[[{"header":{"parameterUnit":"m.s-1","parameterCategory":1,"la1":31.0,"la2":29.5877,"lo1":-88.7671,"lo2":-86.6584,"dy":0.0162,"dx":0.0185,"nx":115,"ny":88,"refTime":"2023-11-11T18:00:00:Z","depth":0,"parameterNumber":2,"parameterNumberName":"U-component_of_WINDS"},"data":[0.0,0.0,0.0,0.0,0.0,0.0,0.0,0.0,0.0,0.0,0.0,0.0,0.0,0.0,0.0,0.0,0.0,0.0,0.0,0.0,0.0,0.0,0.0,0.0,0.0,0.0,0.0,0.0,0.0,0.0,0.0,0.0,0.0,0.0,0.0,0.0,0.0,0.0,0.0,0.0,0.0,0.0,0.0,0.0,0.0,0.0,0.0,0.0,0.0,0.0,0.0,0.0,0.0,0.0,0.0,0.0,0.0,0.0,0.0,0.0,0.0,0.0,0.0,0.0,0.0,0.0,0.0,0.0,0.0,0.0,0.0,0.0,0.0,0.0,0.0,0.0,0.0,0.0,0.0,0.0,0.0,0.0,0.0,0.0,0.0,0.0,0.0,0.0,0.0,0.0,0.0,0.0,0.0,0.0,0.0,0.0,0.0,0.0,0.0,0.0,0.0,0.0,0.0,0.0,0.0,0.0,0.0,0.0,0.0,0.0,0.0,0.0,0.0,0.0,0.0,0.0,0.0,0.0,0.0,0.0,0.0,0.0,0.0,0.0,0.0,0.0,0.0,0.0,0.0,0.0,0.0,0.0,0.0,0.0,0.0,0.0,0.0,0.0,0.0,0.0,0.0,0.0,0.0,0.0,0.0,0.0,0.0,0.0,0.0,0.0,0.0,0.0,0.0,0.0,0.0,0.0,0.0,0.0,0.0,0.0,0.0,0.0,0.0,0.0,0.0,0.0,0.0,0.0,0.0,0.0,0.0,0.0,0.0,0.0,0.0,0.0,0.0,0.0,0.0,0.0,0.0,0.0,0.0,0.0,0.0,0.0,0.0,0.0,0.0,0.0,0.0,0.0,0.0,0.0,0.0,0.0,0.0,0.0,0.0,0.0,0.0,0.0,0.0,0.0,0.0,0.0,0.0,0.0,0.0,0.0,0.0,0.0,0.0,0.0,0.0,0.0,0.0,0.0,0.0,0.0,0.0,0.0,0.0,0.0,0.0,0.0,0.0,0.0,0.0,0.0,0.0,0.0,0.0,0.0,0.0,0.0,0.0,0.0,0.0,0.0,0.0,0.0,0.0,0.0,0.0,0.0,0.0,0.0,0.0,0.0,0.0,0.0,0.0,0.0,0.0,0.0,0.0,0.0,0.0,0.0,0.0,0.0,0.0,0.0,0.0,0.0,0.0,0.0,0.0,0.0,0.0,0.0,0.0,0.0,0.0,0.0,0.0,0.0,0.0,0.0,0.0,0.0,0.0,0.0,0.0,0.0,0.0,0.0,0.0,0.0,0.0,0.0,0.0,0.0,0.0,0.0,0.0,0.0,0.0,0.0,0.0,0.0,0.0,0.0,0.0,0.0,0.0,0.0,0.0,0.0,0.0,0.0,0.0,0.0,0.0,0.0,0.0,0.0,0.0,0.0,0.0,0.0,0.0,0.0,0.0,0.0,0.0,0.0,0.0,0.0,0.0,0.0,0.0,0.0,0.0,0.0,0.0,0.0,0.0,0.0,0.0,0.0,0.0,0.0,0.0,0.0,0.0,0.0,0.0,0.0,0.0,0.0,0.0,0.0,0.0,0.0,0.0,0.0,0.0,0.0,0.0,0.0,0.0,0.0,0.0,0.0,0.0,0.0,0.0,0.0,0.0,0.0,0.0,0.0,0.0,0.0,0.0,0.0,0.0,0.0,0.0,0.0,0.0,0.0,0.0,0.0,0.0,0.0,0.0,0.0,0.0,0.0,0.0,0.0,0.0,0.0,0.0,0.0,0.0,0.0,0.0,0.0,0.0,0.0,0.0,0.0,0.0,0.0,0.0,0.0,0.0,0.0,0.0,0.0,0.0,0.0,0.0,0.0,0.0,0.0,0.0,0.0,0.0,0.0,0.0,0.0,0.0,0.0,0.0,0.0,0.0,0.0,0.0,0.0,0.0,0.0,0.0,0.0,0.0,0.0,0.0,0.0,0.0,0.0,0.0,0.0,0.0,0.0,0.0,0.0,0.0,0.0,0.0,0.0,0.0,0.0,0.0,0.0,0.0,0.0,0.0,0.0,0.0,0.0,0.0,0.0,0.0,0.0,0.0,0.0,0.0,0.0,0.0,0.0,0.0,0.0,0.0,0.0,0.0,0.0,0.0,0.0,0.0,0.0,0.0,0.0,0.0,0.0,0.0,0.0,0.0,0.0,0.0,0.0,0.0,0.0,0.0,0.0,0.0,0.0,0.0,0.0,0.0,0.0,0.0,0.0,0.0,0.0,0.0,0.0,0.0,0.0,0.0,0.0,0.0,0.0,0.0,0.0,0.0,0.0,0.0,0.0,0.0,0.0,0.0,0.0,0.0,0.0,0.0,0.0,0.0,0.0,0.0,0.0,0.0,0.0,0.0,0.0,0.0,0.0,0.0,0.0,0.0,0.0,0.0,0.0,0.0,0.0,0.0,0.0,0.0,0.0,0.0,0.0,0.0,0.0,0.0,0.0,0.0,0.0,0.0,0.0,0.0,0.0,0.0,0.0,0.0,0.0,0.0,0.0,0.0,0.0,0.0,0.0,0.0,0.0,0.0,0.0,0.0,0.0,0.0,0.0,0.0,0.0,0.0,0.0,0.0,0.0,0.0,0.0,0.0,0.0,0.0,0.0,0.0,0.0,0.0,0.0,0.0,0.0,0.0,0.0,0.0,0.0,0.0,0.0,0.0,0.0,0.0,0.0,0.0,0.0,0.0,0.0,0.0,0.0,0.0,0.0,0.0,0.0,0.0,0.0,0.0,0.0,0.0,0.0,0.0,0.0,0.0,0.0,0.0,0.0,0.0,0.0,0.0,0.0,0.0,0.0,0.0,0.0,0.0,0.0,0.0,0.0,0.0,0.0,0.0,0.0,0.0,0.0,0.0,0.0,0.0,0.0,0.0,0.0,0.0,0.0,0.0,0.0,0.0,0.0,0.0,0.0,0.0,0.0,0.0,0.0,0.0,0.0,0.0,0.0,0.0,0.0,0.0,0.0,0.0,0.0,0.0,0.0,0.0,0.0,0.0,0.0,0.0,0.0,0.0,0.0,0.0,0.0,0.0,0.0,0.0,0.0,0.0,0.0,0.0,0.0,0.0,0.0,0.0,0.0,0.0,0.0,0.0,0.0,0.0,0.0,0.0,0.0,0.0,0.0,0.0,0.0,0.0,0.0,0.0,0.0,0.0,0.0,0.0,0.0,0.0,0.0,0.0,0.0,0.0,0.0,0.0,0.0,0.0,0.0,0.0,0.0,0.0,0.0,0.0,0.0,0.0,0.0,0.0,0.0,0.0,0.0,0.0,0.0,0.0,0.0,0.0,0.0,0.0,0.0,0.0,0.0,0.0,0.0,0.0,0.0,0.0,0.0,0.0,0.0,0.0,0.0,0.0,0.0,0.0,0.0,0.0,0.0,0.0,0.0,0.0,0.0,0.0,0.0,0.0,0.0,0.0,0.0,0.0,0.0,0.0,0.0,0.0,0.0,0.0,0.0,0.0,0.0,0.0,0.0,0.0,0.0,0.0,0.0,0.0,0.0,0.0,0.0,0.0,0.0,0.0,0.0,0.0,0.0,0.0,0.0,0.0,0.0,0.0,0.0,0.0,0.0,0.0,0.0,0.0,0.0,0.0,0.0,0.0,0.0,0.0,0.0,0.0,0.0,0.0,0.0,0.0,0.0,0.0,0.0,0.0,0.0,0.0,0.0,0.0,0.0,0.0,0.0,0.0,0.0,0.0,0.0,0.0,0.0,0.0,0.0,0.0,0.0,0.0,0.0,0.0,0.0,0.0,0.0,0.0,0.0,0.0,0.0,0.0,0.0,0.0,0.0,0.0,0.0,0.0,0.0,0.0,0.0,0.0,0.0,0.0,0.0,0.0,0.0,0.0,0.0,0.0,0.0,0.0,0.0,0.0,0.0,0.0,0.0,0.0,0.0,0.0,0.0,0.0,0.0,0.0,0.0,0.0,0.0,0.0,0.0,0.0,0.0,0.0,0.0,0.0,0.0,0.0,0.0,0.0,0.0,0.0,0.0,0.0,0.0,0.0,0.0,0.0,0.0,0.0,0.0,0.0,0.0,0.0,0.0,0.0,0.0,0.0,0.0,0.0,0.0,0.0,0.0,0.0,0.0,0.0,0.0,0.0,0.0,0.0,0.0,0.0,0.0,0.0,0.0,0.0,0.0,0.0,0.0,0.0,0.0,0.0,0.0,0.0,0.0,0.0,0.0,0.0,0.0,0.0,0.0,0.0,0.0,0.0,0.0,0.0,0.0,0.0,0.0,1.756,0.0,0.0,0.0,0.0,0.0,0.0,0.0,0.0,0.0,0.0,0.0,0.0,0.0,0.0,0.0,0.0,0.0,0.0,0.0,0.0,0.0,0.0,0.0,0.0,0.0,0.0,0.0,0.0,0.0,0.0,0.0,0.0,0.0,0.0,0.0,0.0,0.0,0.0,0.0,0.0,0.0,0.0,0.0,0.0,0.0,0.0,0.0,0.0,0.0,0.0,0.0,0.0,0.0,0.0,0.0,0.0,0.0,0.0,0.0,0.0,0.0,0.0,0.0,0.0,0.0,0.0,0.0,0.0,0.0,0.0,0.0,0.0,0.0,0.0,0.0,0.0,0.0,0.0,0.0,0.0,0.0,0.0,0.0,0.0,0.0,0.0,0.0,0.0,0.0,0.0,0.0,0.0,0.0,0.0,0.0,0.0,0.0,0.0,0.0,0.0,0.0,0.0,0.0,0.0,0.0,0.0,0.0,0.0,0.0,0.0,2.0089,1.9632,1.8949,1.8418,1.8033,0.0,0.0,0.0,0.0,0.0,0.0,0.0,0.0,0.0,0.0,0.0,0.0,0.0,0.0,0.0,0.0,0.0,0.0,0.0,0.0,0.0,0.0,0.0,0.0,0.0,0.0,0.0,0.0,0.0,0.0,0.0,0.0,0.0,0.0,0.0,0.0,0.0,0.0,0.0,0.0,0.0,0.0,0.0,0.0,0.0,0.0,0.0,0.0,0.0,0.0,0.0,0.0,0.0,0.0,0.0,0.0,0.0,0.0,0.0,0.0,0.0,0.0,0.0,0.0,0.0,0.0,0.0,0.0,0.0,0.0,0.0,0.0,0.0,0.0,0.0,0.0,0.0,0.0,0.0,0.0,0.0,0.0,0.0,0.0,0.0,0.0,0.0,0.0,0.0,0.0,0.0,0.0,0.0,0.0,0.0,0.0,0.0,0.0,0.0,0.0,0.0,0.0,0.0,0.0,0.0,0.0,0.0,0.0,0.0,0.0,0.0,0.0,1.9447,1.8933,1.8402,0.0,0.0,0.0,0.0,0.0,0.0,0.0,0.0,0.0,0.0,0.0,0.0,0.0,0.0,0.0,0.0,0.0,0.0,0.0,0.0,0.0,0.0,0.0,0.0,0.0,0.0,0.0,0.0,0.0,0.0,0.0,0.0,0.0,0.0,0.0,0.0,0.0,0.0,0.0,0.0,0.0,0.0,0.0,0.0,0.0,0.0,0.0,0.0,0.0,0.0,0.0,0.0,0.0,0.0,0.0,0.0,0.0,0.0,0.0,0.0,0.0,0.0,0.0,0.0,0.0,0.0,0.0,0.0,0.0,0.0,0.0,0.0,0.0,0.0,0.0,0.0,0.0,0.0,0.0,0.0,0.0,0.0,0.0,0.0,0.0,0.0,0.0,0.0,0.0,0.0,0.0,0.0,0.0,0.0,0.0,0.0,0.0,0.0,0.0,0.0,0.0,0.0,0.0,0.0,0.0,0.0,0.0,0.0,0.0,0.0,2.0544,2.0241,1.9897,0.0,1.8444,0.0,0.0,0.0,0.0,0.0,0.0,0.0,0.0,0.0,0.0,0.0,0.0,0.0,0.0,0.0,0.0,0.0,0.0,0.0,0.0,0.0,0.0,0.0,0.0,0.0,0.0,0.0,0.0,0.0,0.0,0.0,0.0,0.0,0.0,0.0,0.0,0.0,0.0,0.0,0.0,0.0,0.0,0.0,0.0,0.0,0.0,0.0,0.0,0.0,0.0,0.0,0.0,0.0,0.0,0.0,0.0,0.0,0.0,0.0,0.0,0.0,0.0,0.0,0.0,0.0,0.0,0.0,0.0,0.0,0.0,0.0,0.0,0.0,0.0,0.0,0.0,0.0,0.0,0.0,0.0,0.0,0.0,0.0,0.0,0.0,0.0,0.0,0.0,0.0,0.0,0.0,0.0,0.0,0.0,0.0,0.0,0.0,0.0,0.0,0.0,0.0,0.0,0.0,0.0,0.0,0.0,0.0,0.0,0.0,0.0,2.0845,2.0558,1.9866,1.9156,0.0,0.0,0.0,0.0,0.0,0.0,0.0,0.0,0.0,0.0,0.0,0.0,0.0,0.0,0.0,0.0,0.0,0.0,0.0,0.0,0.0,0.0,0.0,0.0,0.0,0.0,0.0,0.0,0.0,0.0,0.0,0.0,0.0,0.0,0.0,0.0,0.0,0.0,0.0,0.0,0.0,0.0,0.0,0.0,0.0,0.0,0.0,0.0,0.0,0.0,0.0,0.0,0.0,0.0,0.0,0.0,0.0,0.0,0.0,0.0,0.0,0.0,0.0,0.0,0.0,0.0,0.0,0.0,0.0,0.0,0.0,0.0,0.0,0.0,0.0,0.0,0.0,0.0,0.0,0.0,0.0,0.0,0.0,0.0,0.0,0.0,0.0,0.0,0.0,0.0,0.0,0.0,0.0,0.0,0.0,0.0,0.0,0.0,0.0,0.0,0.0,0.0,0.0,0.0,0.0,0.0,0.0,0.0,0.0,0.0,2.1203,2.1003,2.0572,1.9837,1.9142,1.8561,0.0,0.0,0.0,0.0,0.0,0.0,0.0,0.0,0.0,0.0,0.0,0.0,0.0,0.0,0.0,0.0,0.0,0.0,0.0,0.0,0.0,0.0,0.0,0.0,0.0,0.0,0.0,0.0,0.0,0.0,0.0,0.0,0.0,0.0,0.0,0.0,0.0,0.0,0.0,0.0,0.0,0.0,0.0,0.0,0.0,0.0,0.0,0.0,0.0,0.0,0.0,0.0,0.0,0.0,0.0,0.0,0.0,0.0,0.0,0.0,0.0,0.0,0.0,0.0,0.0,0.0,0.0,0.0,0.0,0.0,0.0,0.0,0.0,0.0,0.0,0.0,0.0,0.0,0.0,0.0,0.0,0.0,0.0,0.0,0.0,0.0,0.0,0.0,0.0,0.0,0.0,0.0,0.0,0.0,0.0,0.0,0.0,0.0,0.0,0.0,0.0,0.0,0.0,0.0,0.0,0.0,0.0,0.0,2.1218,2.1218,2.0917,2.0356,1.9967,1.949,0.0,0.0,0.0,0.0,0.0,0.0,0.0,0.0,0.0,0.0,0.0,0.0,0.0,0.0,0.0,0.0,0.0,0.0,0.0,0.0,0.0,0.0,0.0,0.0,0.0,0.0,0.0,0.0,0.0,0.0,0.0,0.0,0.0,0.0,0.0,0.0,0.0,0.0,0.0,0.0,0.0,0.0,0.0,0.0,0.0,0.0,0.0,0.0,0.0,0.0,0.0,0.0,0.0,0.0,0.0,0.0,0.0,0.0,0.0,0.0,0.0,0.0,0.0,0.0,0.0,0.0,0.0,0.0,0.0,0.0,0.0,0.0,0.0,0.0,0.0,0.0,0.0,0.0,0.0,0.0,0.0,0.0,0.0,0.0,0.0,0.0,0.0,0.0,0.0,0.0,0.0,0.0,0.0,0.0,0.0,0.0,0.0,0.0,0.0,0.0,0.0,0.0,0.0,0.0,0.0,0.0,0.0,0.0,0.0,2.1525,2.173,2.1523,2.0917,2.0769,2.0199,0.0,0.0,0.0,0.0,0.0,0.0,0.0,0.0,0.0,0.0,0.0,0.0,0.0,0.0,0.0,0.0,0.0,0.0,0.0,0.0,0.0,0.0,0.0,0.0,0.0,0.0,0.0,0.0,0.0,0.0,0.0,0.0,0.0,0.0,0.0,0.0,0.0,0.0,0.0,0.0,0.0,0.0,0.0,0.0,0.0,0.0,0.0,0.0,0.0,0.0,0.0,0.0,0.0,0.0,0.0,0.0,0.0,0.0,0.0,0.0,0.0,0.0,0.0,0.0,0.0,0.0,0.0,0.0,0.0,0.0,0.0,0.0,0.0,0.0,0.0,0.0,0.0,0.0,0.0,0.0,0.0,0.0,0.0,0.0,0.0,0.0,0.0,0.0,0.0,0.0,0.0,0.0,0.0,0.0,0.0,0.0,0.0,0.0,0.0,0.0,0.0,0.0,0.0,0.0,0.0,0.0,0.0,0.0,0.0,2.1993,0.0,2.2173,2.1519,2.142,2.0874,0.0,0.0,0.0,0.0,0.0,0.0,0.0,0.0,0.0,0.0,0.0,0.0,0.0,0.0,0.0,0.0,0.0,0.0,0.0,0.0,0.0,0.0,0.0,0.0,0.0,0.0,0.0,0.0,0.0,0.0,0.0,0.0,0.0,0.0,0.0,0.0,0.0,0.0,0.0,0.0,0.0,0.0,0.0,0.0,0.0,0.0,0.0,0.0,0.0,0.0,0.0,0.0,0.0,0.0,0.0,0.0,0.0,0.0,0.0,0.0,0.0,0.0,0.0,0.0,0.0,0.0,0.0,0.0,0.0,0.0,0.0,0.0,0.0,0.0,0.0,0.0,0.0,0.0,0.0,0.0,0.0,0.0,0.0,0.0,0.0,0.0,0.0,0.0,0.0,0.0,0.0,0.0,0.0,0.0,0.0,0.0,0.0,0.0,0.0,0.0,0.0,0.0,0.0,0.0,0.0,0.0,0.0,0.0,2.2052,2.2607,2.2943,2.2805,2.2149,2.1866,2.1406,0.0,0.0,0.0,0.0,0.0,0.0,0.0,0.0,0.0,0.0,0.0,0.0,0.0,0.0,0.0,0.0,0.0,0.0,0.0,0.0,0.0,0.0,0.0,0.0,0.0,0.0,0.0,0.0,0.0,0.0,0.0,0.0,0.0,0.0,0.0,0.0,0.0,0.0,0.0,0.0,0.0,0.0,0.0,0.0,0.0,0.0,0.0,0.0,0.0,0.0,0.0,0.0,0.0,0.0,0.0,0.0,0.0,0.0,0.0,0.0,0.0,0.0,0.0,0.0,0.0,0.0,0.0,0.0,0.0,0.0,0.0,0.0,0.0,0.0,0.0,0.0,0.0,0.0,0.0,0.0,0.0,0.0,0.0,0.0,0.0,0.0,0.0,0.0,0.0,0.0,0.0,0.0,0.0,0.0,0.0,0.0,0.0,0.0,0.0,0.0,0.0,0.0,0.0,0.0,0.0,0.0,0.0,0.0,0.0,2.3969,2.3797,2.3514,2.3089,2.2711,2.2042,0.0,0.0,0.0,0.0,0.0,0.0,0.0,0.0,0.0,0.0,0.0,0.0,0.0,0.0,0.0,0.0,0.0,0.0,0.0,0.0,0.0,0.0,0.0,0.0,0.0,0.0,0.0,0.0,0.0,0.0,0.0,0.0,0.0,0.0,0.0,0.0,0.0,0.0,0.0,0.0,0.0,0.0,0.0,0.0,0.0,0.0,0.0,0.0,0.0,0.0,0.0,0.0,0.0,0.0,0.0,0.0,0.0,0.0,0.0,0.0,0.0,0.0,0.0,0.0,0.0,0.0,0.0,0.0,0.0,0.0,0.0,0.0,0.0,0.0,0.0,0.0,0.0,0.0,0.0,0.0,0.0,0.0,0.0,0.0,0.0,0.0,0.0,0.0,0.0,0.0,0.0,0.0,0.0,0.0,0.0,0.0,0.0,0.0,0.0,0.0,0.0,0.0,0.0,0.0,0.0,0.0,0.0,0.0,0.0,2.5206,2.4647,2.4144,2.3817,2.3344,2.2659,2.181,0.0,0.0,0.0,0.0,0.0,0.0,0.0,0.0,0.0,0.0,0.0,0.0,0.0,0.0,0.0,0.0,0.0,0.0,0.0,0.0,0.0,0.0,0.0,0.0,0.0,0.0,0.0,0.0,0.0,0.0,0.0,0.0,0.0,0.0,0.0,0.0,0.0,0.0,0.0,0.0,0.0,0.0,0.0,0.0,0.0,0.0,0.0,0.0,0.0,0.0,0.0,0.0,0.0,0.0,0.0,0.0,0.0,0.0,0.0,0.0,0.0,0.0,0.0,0.0,0.0,0.0,0.0,0.0,0.0,0.0,0.0,0.0,0.0,0.0,0.0,0.0,0.0,0.0,0.0,0.0,0.0,0.0,0.0,0.0,0.0,0.0,0.0,0.0,0.0,0.0,0.0,0.0,0.0,0.0,0.0,0.0,0.0,0.0,0.0,0.0,0.0,0.0,0.0,0.0,0.0,0.0,0.0,0.0,2.6326,2.5375,2.4676,2.4342,2.3768,2.3256,0.0,0.0,0.0,0.0,0.0,0.0,0.0,0.0,0.0,0.0,0.0,0.0,0.0,0.0,0.0,0.0,0.0,0.0,0.0,0.0,0.0,0.0,0.0,0.0,0.0,0.0,0.0,0.0,0.0,0.0,0.0,0.0,0.0,0.0,0.0,0.0,0.0,0.0,0.0,0.0,0.0,0.0,0.0,0.0,0.0,0.0,0.0,0.0,0.0,0.0,0.0,0.0,0.0,0.0,0.0,0.0,0.0,0.0,0.0,0.0,0.0,0.0,0.0,0.0,0.0,0.0,0.0,0.0,0.0,0.0,0.0,0.0,0.0,0.0,0.0,0.0,0.0,0.0,0.0,0.0,0.0,0.0,0.0,0.0,0.0,0.0,0.0,0.0,0.0,0.0,0.0,0.0,0.0,0.0,0.0,0.0,0.0,0.0,0.0,0.0,0.0,0.0,0.0,0.0,0.0,0.0,0.0,0.0,0.0,2.5787,2.5497,2.5222,2.497,2.4336,2.3646,0.0,0.0,0.0,0.0,0.0,0.0,0.0,0.0,0.0,0.0,0.0,0.0,0.0,0.0,0.0,0.0,0.0,0.0,0.0,0.0,0.0,0.0,0.0,0.0,0.0,0.0,0.0,0.0,0.0,0.0,0.0,0.0,0.0,0.0,0.0,0.0,0.0,0.0,0.0,0.0,0.0,0.0,0.0,0.0,0.0,0.0,0.0,0.0,0.0,0.0,0.0,0.0,0.0,0.0,0.0,0.0,0.0,0.0,0.0,0.0,0.0,0.0,0.0,0.0,0.0,0.0,0.0,0.0,0.0,0.0,0.0,0.0,0.0,0.0,0.0,0.0,0.0,0.0,0.0,0.0,0.0,0.0,0.0,0.0,0.0,0.0,0.0,0.0,0.0,0.0,0.0,0.0,0.0,0.0,0.0,0.0,0.0,0.0,0.0,0.0,0.0,0.0,0.0,0.0,0.0,0.0,0.0,0.0,2.6083,2.6339,2.6059,2.5834,2.5726,2.4962,2.4275,0.0,0.0,0.0,0.0,0.0,0.0,0.0,0.0,0.0,0.0,0.0,0.0,0.0,0.0,0.0,0.0,0.0,0.0,0.0,0.0,0.0,0.0,0.0,0.0,0.0,0.0,0.0,0.0,0.0,0.0,0.0,0.0,0.0,0.0,0.0,0.0,0.0,0.0,0.0,0.0,0.0,0.0,0.0,0.0,0.0,0.0,0.0,0.0,0.0,0.0,0.0,0.0,0.0,0.0,0.0,0.0,0.0,0.0,0.0,0.0,0.0,0.0,0.0,0.0,0.0,0.0,0.0,0.0,0.0,0.0,0.0,0.0,0.0,0.0,0.0,0.0,0.0,0.0,0.0,0.0,0.0,0.0,0.0,0.0,0.0,0.0,0.0,0.0,0.0,0.0,0.0,0.0,0.0,0.0,0.0,0.0,0.0,0.0,0.0,0.0,0.0,0.0,0.0,0.0,0.0,0.0,0.0,0.0,2.663,2.7308,2.672,2.644,2.6427,2.5625,2.4997,0.0,0.0,0.0,0.0,0.0,0.0,0.0,0.0,0.0,0.0,0.0,0.0,0.0,0.0,0.0,0.0,0.0,0.0,0.0,0.0,0.0,0.0,0.0,0.0,0.0,0.0,0.0,0.0,0.0,0.0,0.0,0.0,0.0,0.0,0.0,0.0,0.0,0.0,0.0,0.0,0.0,0.0,0.0,0.0,0.0,0.0,0.0,0.0,0.0,0.0,0.0,0.0,0.0,0.0,0.0,0.0,0.0,0.0,0.0,0.0,0.0,0.0,0.0,0.0,0.0,0.0,0.0,0.0,0.0,0.0,0.0,0.0,0.0,0.0,0.0,0.0,0.0,0.0,0.0,0.0,0.0,0.0,0.0,0.0,0.0,0.0,0.0,0.0,0.0,0.0,0.0,0.0,0.0,0.0,0.0,0.0,0.0,0.0,0.0,0.0,0.0,0.0,0.0,0.0,0.0,0.0,0.0,0.0,2.6859,2.6881,2.6677,2.6566,2.6566,2.6082,2.5411,0.0,0.0,0.0,0.0,0.0,0.0,0.0,0.0,0.0,0.0,0.0,0.0,0.0,0.0,0.0,0.0,0.0,0.0,0.0,0.0,0.0,0.0,0.0,0.0,0.0,0.0,0.0,0.0,0.0,0.0,0.0,0.0,0.0,0.0,0.0,0.0,0.0,0.0,0.0,0.0,0.0,0.0,0.0,0.0,0.0,0.0,0.0,0.0,2.193,0.0,0.0,0.0,0.0,0.0,0.0,0.0,0.0,0.0,0.0,0.0,0.0,0.0,0.0,0.0,0.0,0.0,0.0,0.0,0.0,0.0,0.0,0.0,0.0,0.0,0.0,0.0,0.0,0.0,0.0,0.0,0.0,0.0,0.0,0.0,0.0,0.0,0.0,0.0,0.0,0.0,0.0,0.0,0.0,0.0,0.0,0.0,0.0,0.0,0.0,0.0,0.0,0.0,0.0,0.0,0.0,0.0,0.0,0.0,2.7015,2.7297,2.7051,2.6826,2.6684,2.6362,2.5779,0.0,0.0,0.0,0.0,0.0,0.0,0.0,0.0,0.0,0.0,0.0,0.0,0.0,0.0,0.0,0.0,0.0,0.0,0.0,0.0,0.0,0.0,0.0,0.0,0.0,0.0,0.0,0.0,0.0,0.0,0.0,0.0,0.0,0.0,0.0,0.0,0.0,0.0,0.0,0.0,0.0,0.0,0.0,0.0,0.0,0.0,0.0,0.0,0.0,0.0,0.0,0.0,0.0,0.0,0.0,0.0,0.0,0.0,0.0,0.0,0.0,0.0,0.0,0.0,0.0,0.0,0.0,0.0,0.0,0.0,0.0,0.0,0.0,0.0,0.0,0.0,0.0,0.0,0.0,0.0,0.0,0.0,0.0,0.0,0.0,0.0,0.0,0.0,0.0,0.0,0.0,0.0,0.0,0.0,0.0,0.0,0.0,0.0,0.0,0.0,0.0,0.0,0.0,0.0,0.0,0.0,0.0,2.676,2.7055,2.7701,2.7271,2.6924,2.6646,2.6285,2.574,2.4841,0.0,0.0,0.0,0.0,0.0,0.0,0.0,0.0,0.0,0.0,0.0,0.0,0.0,0.0,0.0,0.0,0.0,0.0,0.0,0.0,0.0,0.0,0.0,0.0,0.0,0.0,0.0,0.0,0.0,0.0,0.0,0.0,0.0,0.0,0.0,0.0,0.0,0.0,2.3078,2.3618,0.0,0.0,0.0,0.0,0.0,0.0,0.0,0.0,2.35,0.0,0.0,0.0,0.0,0.0,0.0,0.0,0.0,0.0,0.0,0.0,0.0,0.0,0.0,0.0,0.0,0.0,0.0,0.0,0.0,0.0,0.0,0.0,0.0,0.0,0.0,0.0,0.0,0.0,0.0,0.0,0.0,0.0,0.0,0.0,0.0,0.0,0.0,0.0,0.0,0.0,0.0,0.0,0.0,0.0,0.0,0.0,0.0,0.0,0.0,0.0,0.0,0.0,0.0,0.0,0.0,2.6412,2.6648,2.685,2.6944,2.658,2.6255,2.5988,2.5335,2.4547,2.3657,0.0,0.0,0.0,0.0,0.0,0.0,0.0,0.0,0.0,0.0,0.0,0.0,0.0,0.0,0.0,0.0,0.0,0.0,0.0,0.0,0.0,0.0,0.0,0.0,0.0,0.0,0.0,0.0,0.0,0.0,0.0,0.0,0.0,0.0,0.0,0.0,0.0,0.0,0.0,2.355,2.3621,0.0,0.0,0.0,0.0,0.0,0.0,0.0,0.0,2.4062,0.0,0.0,0.0,0.0,0.0,0.0,0.0,0.0,0.0,0.0,0.0,0.0,0.0,0.0,0.0,0.0,0.0,0.0,0.0,0.0,0.0,0.0,0.0,0.0,0.0,0.0,0.0,0.0,0.0,0.0,0.0,0.0,0.0,0.0,0.0,0.0,0.0,0.0,0.0,0.0,0.0,0.0,0.0,0.0,0.0,0.0,0.0,0.0,0.0,0.0,0.0,0.0,0.0,0.0,0.0,2.52,2.54,2.572,2.608,2.5691,2.5422,2.5293,2.4818,2.4163,0.0,0.0,0.0,0.0,0.0,0.0,0.0,0.0,0.0,0.0,0.0,0.0,0.0,0.0,0.0,0.0,0.0,0.0,0.0,0.0,0.0,0.0,0.0,0.0,0.0,0.0,0.0,0.0,0.0,0.0,0.0,0.0,0.0,0.0,0.0,0.0,0.0,0.0,0.0,0.0,2.3209,2.3316,2.2992,0.0,0.0,0.0,0.0,0.0,0.0,2.4337,2.46,0.0,0.0,0.0,0.0,0.0,0.0,0.0,0.0,0.0,0.0,0.0,0.0,0.0,0.0,0.0,0.0,0.0,0.0,0.0,0.0,0.0,0.0,0.0,0.0,0.0,0.0,0.0,0.0,0.0,0.0,0.0,0.0,0.0,0.0,0.0,0.0,0.0,0.0,0.0,0.0,0.0,0.0,0.0,0.0,0.0,0.0,0.0,0.0,0.0,0.0,0.0,0.0,0.0,0.0,0.0,2.3921,2.4051,2.4416,2.5037,2.4686,2.4498,2.4441,2.4195,2.3669,0.0,0.0,0.0,0.0,0.0,0.0,0.0,0.0,0.0,0.0,0.0,0.0,0.0,0.0,0.0,0.0,0.0,0.0,0.0,0.0,0.0,0.0,0.0,0.0,0.0,0.0,0.0,0.0,0.0,0.0,0.0,0.0,0.0,0.0,0.0,0.0,0.0,0.0,0.0,0.0,0.0,2.3189,2.2641,2.2573,0.0,0.0,0.0,0.0,2.438,2.4842,0.0,0.0,0.0,0.0,0.0,0.0,0.0,0.0,0.0,0.0,0.0,0.0,0.0,0.0,0.0,0.0,0.0,0.0,0.0,0.0,0.0,0.0,0.0,0.0,0.0,0.0,0.0,0.0,0.0,0.0,0.0,0.0,0.0,0.0,0.0,0.0,0.0,0.0,0.0,0.0,0.0,0.0,0.0,0.0,0.0,0.0,0.0,0.0,0.0,0.0,0.0,0.0,0.0,0.0,0.0,0.0,2.3056,2.3337,2.3555,2.3653,2.3603,2.3448,2.3213,2.2981,2.2362,0.0,0.0,0.0,0.0,0.0,0.0,0.0,0.0,0.0,0.0,0.0,0.0,0.0,0.0,0.0,0.0,0.0,0.0,0.0,0.0,0.0,0.0,0.0,0.0,0.0,0.0,0.0,0.0,0.0,0.0,0.0,0.0,0.0,0.0,0.0,0.0,0.0,0.0,0.0,0.0,0.0,2.3516,2.2918,2.2831,2.3034,0.0,0.0,0.0,2.4783,2.5275,0.0,0.0,0.0,0.0,0.0,0.0,0.0,0.0,0.0,0.0,0.0,0.0,0.0,0.0,0.0,0.0,0.0,0.0,0.0,0.0,0.0,0.0,0.0,0.0,0.0,0.0,0.0,0.0,0.0,0.0,0.0,0.0,0.0,0.0,0.0,0.0,0.0,0.0,0.0,0.0,0.0,0.0,0.0,0.0,0.0,0.0,0.0,0.0,0.0,0.0,0.0,0.0,0.0,0.0,0.0,2.1864,2.1979,2.2256,2.2368,2.2311,2.2333,2.2156,2.1793,2.1576,2.1028,0.0,0.0,0.0,0.0,0.0,0.0,0.0,0.0,0.0,0.0,0.0,0.0,0.0,0.0,0.0,0.0,0.0,0.0,0.0,0.0,0.0,0.0,0.0,0.0,0.0,0.0,0.0,0.0,0.0,0.0,0.0,0.0,0.0,0.0,0.0,0.0,0.0,0.0,0.0,0.0,0.0,0.0,2.2433,2.2405,0.0,0.0,0.0,2.365,2.4714,0.0,0.0,0.0,0.0,0.0,0.0,0.0,0.0,0.0,0.0,0.0,0.0,0.0,0.0,0.0,0.0,0.0,0.0,0.0,0.0,0.0,0.0,0.0,0.0,0.0,0.0,0.0,0.0,0.0,0.0,0.0,0.0,0.0,0.0,0.0,0.0,0.0,0.0,0.0,0.0,0.0,0.0,0.0,0.0,0.0,0.0,0.0,0.0,0.0,0.0,0.0,0.0,0.0,0.0,0.0,0.0,0.0,2.0666,2.0906,2.1038,2.1031,2.105,2.0896,2.0575,2.0334,0.0,0.0,0.0,0.0,0.0,0.0,0.0,0.0,0.0,0.0,0.0,0.0,0.0,0.0,0.0,0.0,0.0,0.0,0.0,0.0,0.0,0.0,0.0,0.0,0.0,0.0,0.0,2.0851,0.0,0.0,0.0,0.0,0.0,0.0,0.0,0.0,0.0,0.0,0.0,0.0,0.0,0.0,2.2347,2.2012,2.1938,2.2193,0.0,0.0,2.3224,2.4569,2.4717,2.4912,0.0,0.0,0.0,0.0,0.0,0.0,0.0,0.0,0.0,0.0,0.0,0.0,0.0,0.0,0.0,0.0,0.0,0.0,0.0,0.0,0.0,0.0,0.0,0.0,0.0,0.0,0.0,0.0,0.0,0.0,0.0,0.0,0.0,0.0,0.0,0.0,0.0,0.0,0.0,0.0,0.0,0.0,0.0,0.0,0.0,0.0,0.0,0.0,0.0,0.0,0.0,0.0,0.0,0.0,0.0,1.8982,1.9337,1.963,1.9732,1.9796,1.9885,1.9959,1.9615,1.9264,0.0,0.0,0.0,0.0,0.0,0.0,0.0,0.0,0.0,0.0,0.0,0.0,0.0,0.0,0.0,0.0,0.0,0.0,0.0,0.0,0.0,0.0,0.0,0.0,0.0,0.0,0.0,0.0,0.0,0.0,0.0,0.0,0.0,0.0,0.0,0.0,0.0,0.0,0.0,0.0,0.0,2.2214,2.192,2.174,2.2032,0.0,0.0,2.3534,2.433,2.4554,2.4779,2.5035,0.0,0.0,0.0,0.0,0.0,0.0,0.0,0.0,0.0,0.0,0.0,0.0,0.0,0.0,0.0,0.0,0.0,0.0,0.0,0.0,0.0,0.0,0.0,0.0,0.0,0.0,0.0,0.0,0.0,0.0,0.0,0.0,0.0,0.0,0.0,0.0,0.0,0.0,0.0,0.0,0.0,0.0,0.0,0.0,0.0,0.0,0.0,0.0,0.0,0.0,0.0,0.0,0.0,1.9269,1.9016,1.9321,1.9419,1.9163,1.9432,1.9192,1.8384,1.8245,1.7862,0.0,0.0,0.0,0.0,0.0,0.0,0.0,0.0,0.0,0.0,0.0,0.0,0.0,0.0,0.0,0.0,0.0,0.0,0.0,0.0,0.0,0.0,0.0,0.0,0.0,0.0,0.0,0.0,2.1318,2.1667,2.2019,0.0,0.0,0.0,0.0,0.0,0.0,0.0,0.0,0.0,0.0,2.2014,2.1888,2.1844,0.0,0.0,2.2812,2.314,2.3863,2.4195,2.4427,2.4753,2.4434,0.0,0.0,0.0,0.0,0.0,0.0,0.0,0.0,0.0,0.0,0.0,0.0,0.0,0.0,0.0,0.0,0.0,0.0,0.0,0.0,0.0,0.0,0.0,0.0,0.0,0.0,0.0,0.0,0.0,0.0,0.0,0.0,0.0,0.0,0.0,0.0,0.0,0.0,0.0,0.0,0.0,0.0,0.0,0.0,0.0,0.0,0.0,0.0,0.0,0.0,0.0,0.0,1.8733,1.853,1.8866,1.8852,1.8394,1.8638,1.8336,1.7434,1.7279,1.6948,0.0,0.0,0.0,0.0,0.0,0.0,0.0,0.0,0.0,0.0,0.0,0.0,0.0,0.0,0.0,0.0,0.0,0.0,0.0,0.0,0.0,0.0,0.0,0.0,0.0,0.0,0.0,0.0,2.0749,2.1161,2.1421,0.0,0.0,0.0,0.0,0.0,0.0,0.0,0.0,0.0,0.0,2.1429,2.1549,2.1339,2.1313,2.1768,2.2076,2.2417,2.2962,2.3332,2.3675,2.4001,0.0,0.0,0.0,0.0,0.0,0.0,0.0,0.0,0.0,0.0,0.0,0.0,0.0,0.0,0.0,0.0,0.0,0.0,0.0,0.0,0.0,0.0,0.0,0.0,0.0,0.0,0.0,0.0,0.0,0.0,0.0,0.0,0.0,0.0,0.0,0.0,0.0,0.0,0.0,0.0,0.0,0.0,0.0,0.0,0.0,0.0,0.0,0.0,0.0,0.0,0.0,0.0,0.0,1.7759,1.7256,1.7609,1.7581,1.7262,1.718,1.7255,1.7374,1.7091,1.6798,1.6565,0.0,0.0,0.0,0.0,0.0,0.0,0.0,0.0,0.0,0.0,0.0,0.0,0.0,0.0,0.0,0.0,0.0,0.0,0.0,0.0,0.0,0.0,0.0,0.0,0.0,0.0,1.9003,2.0062,2.0764,0.0,0.0,0.0,0.0,0.0,0.0,0.0,0.0,0.0,0.0,2.0608,2.0336,2.0666,2.0001,1.9857,2.0645,2.1039,2.1304,2.1569,2.203,2.2393,0.0,0.0,0.0,0.0,0.0,0.0,0.0,0.0,0.0,0.0,0.0,0.0,0.0,0.0,0.0,0.0,0.0,0.0,0.0,0.0,0.0,0.0,0.0,0.0,0.0,0.0,0.0,2.1278,2.1222,0.0,0.0,0.0,0.0,0.0,0.0,0.0,0.0,0.0,0.0,0.0,1.9185,1.9294,0.0,0.0,0.0,0.0,0.0,0.0,0.0,0.0,0.0,0.0,0.0,0.0,1.7403,1.6824,1.7164,1.7272,1.7132,1.7396,1.7231,1.6778,1.6722,1.6501,1.6126,0.0,0.0,0.0,0.0,0.0,0.0,0.0,0.0,0.0,0.0,0.0,0.0,0.0,0.0,0.0,0.0,0.0,0.0,0.0,0.0,0.0,0.0,0.0,0.0,0.0,1.867,0.0,0.0,0.0,0.0,0.0,0.0,0.0,0.0,0.0,0.0,0.0,2.0455,2.0428,2.0076,1.9894,2.0147,2.0012,2.0056,0.0,0.0,0.0,0.0,0.0,0.0,0.0,0.0,0.0,0.0,0.0,0.0,0.0,0.0,2.3326,2.2721,2.3446,2.4353,2.4936,0.0,0.0,0.0,0.0,0.0,0.0,0.0,0.0,0.0,0.0,0.0,0.0,0.0,0.0,0.0,0.0,2.0492,0.0,0.0,0.0,0.0,0.0,0.0,0.0,0.0,1.9116,1.9019,1.8807,1.8992,1.9042,0.0,1.8737,1.858,0.0,0.0,0.0,0.0,0.0,0.0,0.0,0.0,1.6996,1.6528,1.6854,1.6955,1.6774,1.7119,1.7013,1.6363,1.6349,1.6132,1.5671,1.5363,1.5187,0.0,0.0,0.0,0.0,0.0,0.0,0.0,0.0,0.0,0.0,0.0,0.0,0.0,0.0,0.0,0.0,0.0,0.0,0.0,0.0,0.0,0.0,0.0,1.8106,0.0,0.0,0.0,0.0,0.0,0.0,0.0,0.0,0.0,2.0104,2.0105,2.0074,1.9931,1.9665,1.953,1.979,0.0,0.0,0.0,0.0,0.0,0.0,0.0,2.1352,2.1507,2.1187,2.1074,2.1536,2.1856,2.2118,2.2246,0.0,0.0,2.2783,2.358,2.4512,2.5113,2.5547,2.6007,2.6611,2.6748,2.6878,0.0,0.0,0.0,0.0,0.0,0.0,0.0,0.0,2.0287,1.9883,0.0,1.9626,0.0,0.0,0.0,0.0,0.0,0.0,0.0,0.0,1.923,1.9175,1.8377,1.8195,1.8211,1.835,1.7754,1.7475,1.7457,1.8271,0.0,0.0,0.0,0.0,0.0,0.0,1.6495,1.6202,1.6587,1.658,1.6153,1.6374,1.6449,1.63,1.6064,1.5711,1.5235,1.5234,1.514,1.5011,1.4827,0.0,0.0,0.0,0.0,0.0,0.0,0.0,0.0,0.0,0.0,0.0,0.0,0.0,0.0,0.0,0.0,0.0,0.0,0.0,0.0,1.6774,0.0,0.0,0.0,0.0,0.0,0.0,0.0,0.0,0.0,0.0,1.9355,1.9778,1.9931,1.9642,0.0,0.0,0.0,0.0,1.8891,1.9273,1.9559,1.9794,1.998,2.0302,2.0482,2.0531,0.0,0.0,2.1166,2.1299,2.1548,2.2221,2.273,2.3145,2.3255,2.4308,2.5333,2.57,2.6073,2.6459,2.6719,2.6836,2.7044,2.0135,0.0,0.0,0.0,0.0,2.0456,2.0439,2.0531,2.0062,1.9728,1.9555,1.9756,0.0,0.0,0.0,0.0,0.0,0.0,1.7589,1.7875,1.7893,1.7891,1.7944,1.8061,1.8122,1.8159,1.7963,1.7831,1.7712,1.7935,1.7785,1.7211,0.0,0.0,0.0,0.0,1.6466,1.6188,1.6323,1.6437,1.6395,1.6483,1.6456,1.6313,1.6117,1.5956,1.5717,1.535,1.5193,1.516,1.508,0.0,0.0,0.0,0.0,0.0,0.0,0.0,0.0,0.0,0.0,0.0,0.0,0.0,0.0,0.0,0.0,0.0,0.0,0.0,1.5981,1.6038,1.6264,0.0,0.0,0.0,0.0,0.0,0.0,0.0,0.0,0.0,1.7936,1.8709,1.9257,0.0,0.0,1.9306,1.9413,1.9453,1.9524,1.9622,0.0,0.0,0.0,2.0192,2.0158,2.0509,2.0516,2.0541,2.0751,2.1109,2.1427,2.1681,2.2441,2.3056,2.3121,2.4019,2.4937,2.5418,2.5962,2.6458,2.6812,2.693,2.6989,1.9711,2.0255,1.993,1.9822,1.9822,1.9577,1.966,1.9912,1.9438,1.9165,1.8933,1.9158,1.8947,1.8485,1.881,0.0,0.0,0.0,1.7401,1.7756,1.7858,1.7938,1.7997,1.8136,1.818,1.8173,1.7855,1.7672,1.7586,1.7522,1.73,1.692,0.0,0.0,1.6119,1.6363,1.6381,1.6178,1.6381,1.6473,1.656,1.656,1.652,1.6483,1.6279,1.6096,1.5996,1.5567,1.5309,1.5187,1.5144,1.5122,0.0,0.0,0.0,0.0,0.0,0.0,0.0,0.0,0.0,0.0,0.0,1.5829,1.5641,0.0,0.0,0.0,1.5652,1.5831,1.5987,1.5868,0.0,0.0,0.0,0.0,0.0,0.0,0.0,1.689,1.7117,1.7227,1.7223,1.7899,1.8503,1.8889,1.9208,1.9386,1.9459,0.0,1.9817,1.989,1.9949,2.0024,2.0397,2.0143,2.0035,2.0257,2.0291,2.046,2.0798,2.1123,2.143,2.1818,2.237,2.2833,2.2782,2.3702,2.4608,2.4986,2.5356,2.5749,2.6299,2.6386,2.6495,1.9612,1.9849,1.8953,1.8587,1.8573,1.8633,1.8714,1.8833,1.8737,1.8415,1.798,1.8239,1.8019,1.7449,1.7807,0.0,0.0,1.8469,1.8308,1.8003,1.8682,1.8747,1.8255,1.8255,1.8248,1.8234,1.7558,1.7222,1.7195,1.7073,1.7019,1.6998,1.6914,1.6621,1.6214,1.6307,1.6381,1.6381,1.6659,1.675,1.6736,1.673,1.6723,1.6696,1.6425,1.6252,1.6096,1.5811,1.552,1.5235,1.5079,1.5114,1.536,0.0,0.0,0.0,0.0,0.0,0.0,0.0,0.0,0.0,0.0,0.0,0.0,0.0,0.0,0.0,1.529,0.0,1.6088,1.6088,0.0,0.0,0.0,1.6134,1.6035,1.6221,1.6317,1.6317,0.0,0.0,0.0,0.0,1.7809,1.837,1.9002,1.9471,1.9733,1.9798,1.9863,2.0101,2.0177,2.0242,2.0388,2.0299,2.0161,2.0022,1.9873,2.0225,2.0972,2.1144,2.1497,2.2124,2.2379,2.2424,2.2441,2.3273,2.4127,2.4333,2.4649,2.4901,2.5425,2.5575,2.5827,1.9434,1.9476,1.9041,1.9022,1.9238,1.9285,1.9307,1.9337,1.9307,1.9231,1.9114,1.9053,1.8824,1.8453,1.8138,1.8066,1.8216,1.7832,1.7777,1.7916,1.8122,1.8088,1.7978,1.7978,1.7916,1.7759,1.7609,1.7426,1.7372,1.7331,1.7317,1.7311,1.7274,1.709,1.6833,1.691,1.6978,1.6985,1.7168,1.7202,1.7093,1.7087,1.6926,1.6702,1.6513,1.6402,1.6259,1.5961,1.5716,1.5492,1.5384,1.5234,1.5114,1.5392,0.0,0.0,0.0,0.0,0.0,0.0,0.0,0.0,0.0,1.5711,1.5082,0.0,1.5466,0.0,1.5286,1.5485,1.5697,1.5711,0.0,0.0,1.5711,1.5759,1.5711,1.5746,1.5814,1.5766,1.6077,1.6278,1.6369,1.6934,1.748,1.7793,1.8305,1.8811,1.9269,1.9607,1.999,2.0361,2.0564,2.073,2.0755,2.0747,2.069,2.0657,2.0649,2.0743,2.0922,2.0992,2.1025,2.1267,2.165,2.1863,2.1925,2.245,2.2876,2.3109,2.4375,2.5587,2.5744,2.5786,2.5838,1.9793,1.9712,1.9481,1.9456,1.9562,1.9284,1.9163,1.917,1.917,1.9128,1.9049,1.8948,1.8729,1.8572,1.8299,1.8177,1.8253,1.7929,1.7914,1.8063,1.807,1.8063,1.807,1.8063,1.8023,1.7948,1.7893,1.7845,1.7826,1.7819,1.7819,1.7819,1.7819,1.7738,1.7575,1.7392,1.7297,1.7297,1.7378,1.7378,1.7297,1.7229,1.7114,1.6899,1.6682,1.6558,1.6408,1.6117,1.5859,1.56,1.5493,1.5303,1.5126,1.5283,1.536,0.0,0.0,0.0,0.0,0.0,0.0,0.0,0.0,0.0,0.0,0.0,1.5393,0.0,1.5418,0.0,1.558,1.5587,1.5621,1.573,1.5737,1.5757,1.5825,1.59,1.594,1.5891,1.6137,1.6279,1.6286,1.6738,1.7064,1.7207,1.7593,1.8148,1.8895,1.9257,1.9553,1.9904,2.0265,2.0588,2.0856,2.0901,2.0901,2.0901,2.0901,2.0934,2.0954,2.0978,2.0994,2.1121,2.1354,2.157,2.1578,2.2056,2.238,2.2596,2.3619,2.468,2.5039,2.5159,2.5212,2.0309,2.0173,2.0003,1.9861,1.9705,1.9222,1.8963,1.8902,1.8909,1.8762,1.8613,1.8484,1.8423,1.8409,1.8403,1.8409,1.8403,1.8403,1.8416,1.843,1.843,1.8437,1.843,1.843,1.8416,1.8375,1.8375,1.8369,1.8292,1.8328,1.8328,1.8342,1.8328,1.8321,1.8294,1.7799,1.7528,1.7507,1.7507,1.7487,1.7453,1.7317,1.7229,1.7182,1.6924,1.6648,1.6524,1.6259,1.5974,1.5634,1.554,1.5398,1.5248,1.5126,1.5278,0.0,1.5501,0.0,0.0,0.0,0.0,0.0,0.0,0.0,0.0,1.5221,1.5364,1.5621,1.5648,1.5661,1.575,1.5702,1.5798,1.5976,1.599,1.5995,1.6123,1.6259,1.6341,1.6341,1.6463,1.65,1.6551,1.6635,1.673,1.6836,1.7071,1.7607,1.8468,1.8809,1.8975,1.9109,1.9569,2.0154,2.0577,2.0776,2.083,2.0875,2.0945,2.1032,2.1132,2.1157,2.1205,2.1335,2.1414,2.1423,2.1384,2.1814,2.2143,2.2173,2.261,2.3168,2.3868,2.4105,2.444,2.0668,2.0621,2.0356,2.0227,2.0187,1.9949,1.9637,1.9305,1.9305,1.9217,1.9074,1.9047,1.8972,1.8871,1.8864,1.8864,1.8864,1.8864,1.8925,1.9033,1.9033,1.9033,1.9033,1.9033,1.8911,1.8687,1.8738,1.8613,1.8491,1.8319,1.8375,1.8427,1.8375,1.8321,1.8314,0.0,0.0,0.0,1.7968,1.7846,1.7561,1.7521,1.7446,1.7202,1.7026,0.0,1.6479,1.6354,1.6123,1.5881,1.5833,0.0,0.0,0.0,0.0,0.0,0.0,0.0,0.0,0.0,0.0,0.0,1.5466,1.5459,1.5208,1.5404,1.5627,1.5967,1.5995,1.6096,1.6334,1.6354,1.6368,1.6388,1.6395,1.6408,1.6442,1.6469,1.6483,1.6483,1.6567,1.6655,1.6675,1.6842,1.6978,1.7087,1.7154,1.7344,1.7799,1.83,1.8755,1.9233,1.954,1.9692,1.9817,2.024,2.0545,2.0631,2.1013,2.1232,2.1264,2.1327,2.1327,2.1384,2.1384,2.1384,2.1384,2.1494,2.1603,2.1549,2.1658,2.2017,2.3094,2.3294,2.3512,2.1102,0.0,2.0783,2.0661,0.0,2.058,2.0329,1.9908,1.982,1.9671,1.9522,1.9379,1.9278,1.9203,1.9128,1.9094,1.9094,1.9094,1.9128,1.9203,1.9203,1.9203,1.9203,1.9203,1.9122,1.8986,1.8979,1.8938,1.8857,1.8789,1.8789,1.8864,1.8789,1.8755,1.8755,1.8681,1.8504,1.8206,1.8206,1.8097,1.788,1.7792,1.765,1.7426,0.0,0.0,0.0,0.0,0.0,0.0,0.0,0.0,0.0,0.0,0.0,1.5485,1.5479,1.5486,1.5418,1.5547,1.5677,1.5635,1.5839,1.5872,1.5642,1.59,1.6137,1.6279,1.63,1.6361,1.6503,1.6517,1.6585,1.6727,1.6748,1.6795,1.6937,1.6912,1.6965,1.6971,1.7032,1.7027,1.7027,1.7141,1.7222,1.7297,1.7372,1.7467,1.7616,1.7861,1.8264,1.8944,1.9126,1.9239,1.9577,1.9798,2.0073,2.0128,2.0285,2.0615,2.089,2.0945,2.1055,2.1274,2.1384,2.1384,2.1384,2.1384,2.1384,2.1384,2.1384,2.1549,2.2198,2.2472,2.2863,2.1436,2.1455,2.119,2.1062,2.1034,2.1007,2.0858,2.06,0.0,0.0,0.0,1.9651,1.9549,1.9542,1.942,1.9359,1.9359,1.9359,1.9359,1.9359,1.9359,1.9345,1.9325,1.9318,1.9305,1.9278,1.9257,1.9257,1.9278,1.923,1.9217,1.9237,1.9217,1.9203,1.9196,1.9081,1.8837,1.8457,1.8389,1.8287,1.8131,1.8009,1.786,1.7636,1.7446,1.7216,1.7026,1.687,1.6605,1.6225,1.6171,1.6049,1.5763,1.5749,1.5749,1.5742,1.5742,1.5749,1.5749,1.5906,1.6017,1.6017,1.6252,1.6354,1.6178,1.6381,1.6544,1.6598,1.6598,1.6619,1.6673,1.668,1.6781,1.7032,1.706,1.7154,1.7325,1.7419,1.7392,1.7419,1.7392,1.7412,1.7399,1.7399,1.7379,1.7467,1.75,1.7609,1.7629,1.7697,1.7902,1.8439,1.8578,1.875,1.9136,1.9412,1.9412,1.9467,1.9522,1.979,2.0183,2.034,2.056,2.111,2.1219,2.1274,2.1384,2.1384,2.1384,2.1384,2.1384,2.1384,2.1439,2.1768,2.2316,2.1753,2.1625,2.1448,2.1306,2.117,2.1048,2.0973,2.0885,2.0343,2.0092,2.0064,2.0024,2.0003,2.0003,1.9983,1.9976,1.9976,1.9976,1.9976,0.0,1.9976,1.9908,1.9848,1.978,1.9712,1.965,1.9468,1.9468,1.9616,1.9332,1.9264,1.9373,1.9271,1.921,1.9196,1.9183,1.9081,1.8898,1.8633,1.843,1.8294,1.8267,1.8118,1.7846,1.7792,1.7575,1.7175,1.7026,1.6856,1.6615,1.653,1.6391,1.6351,1.6337,1.6395,1.6395,1.6395,1.6395,1.6344,1.6415,1.6429,1.6442,1.6714,1.6768,1.649,1.6497,1.6632,1.6876,1.6917,1.7026,1.7249,1.727,1.7223,1.7344,1.7358,1.7378,1.7433,1.7433,1.7439,1.7439,1.7419,1.7433,1.7446,1.7439,1.7494,1.7534,1.7595,1.7697,1.7792,1.7833,1.7895,1.797,1.8026,1.8081,1.8302,1.8585,1.8805,1.8861,1.9247,1.9522,1.9687,1.9735,1.9963,2.0505,2.0615,2.0835,2.1219,2.1384,2.1329,2.1329,2.1329,2.1384,2.1384,2.1494,2.1768,2.1964,2.1896,2.1747,2.1597,2.1448,2.1211,2.1116,2.1082,2.0743,2.0594,2.0573,2.0417,2.0336,2.0329,2.0173,2.0098,2.0098,2.0098,2.0098,2.0098,2.0098,2.0064,2.0003,1.9997,1.9963,1.9895,1.9834,1.9827,1.9881,1.9752,1.9725,1.9718,1.9279,1.8836,1.8527,1.8319,1.8276,1.8152,1.83,1.8226,1.7936,1.7658,1.739,1.7164,1.6954,1.6781,1.6583,1.6318,1.6192,1.5999,1.5852,1.5743,1.5673,1.5641,1.5552,1.5552,1.5603,1.5552,1.5603,1.5744,1.5845,1.5999,1.6445,1.6683,1.6545,1.6795,1.7066,1.7202,1.7222,1.727,1.7405,1.7419,1.7399,1.7487,1.7487,1.7575,1.7643,1.7663,1.7656,1.7656,1.7663,1.7663,1.7663,1.7663,1.7677,1.7758,1.7765,1.7792,1.7908,1.7915,1.7915,1.7915,1.7915,1.7915,1.7915,1.8088,1.8253,1.8253,1.8474,1.8805,1.9026,1.9081,1.9357,1.9853,2.0018,2.0128,2.045,2.0733,2.0835,2.0945,2.1219,2.1329,2.1384,2.1384,2.1494,2.2174,2.2099,2.1984,2.1855,2.1699,2.1428,2.1319,2.1299,2.1163,2.1102,2.1055,2.0712,2.0577,2.0621,2.0404,2.0288,2.0254,2.0254,2.0234,2.02,2.02,2.018,2.0153,2.0153,2.009,1.9959,1.987,1.9807,1.9703,1.9683,1.9663,1.9588,1.8993,1.8441,1.7941,1.7739,1.7623,1.7587,1.764,1.7632,1.7556,1.7172,1.6859,1.6603,1.6389,1.6192,1.6119,1.5705,1.5464,1.5356,1.5087,1.485,1.4756,1.4655,1.4596,1.4602,1.4758,1.4861,1.4977,1.5206,1.536,1.5566,1.6095,1.6379,1.6385,1.679,1.7236,1.7426,1.7412,1.748,1.7528,1.7528,1.7568,1.7629,1.7642,1.7738,1.7895,1.7915,1.7915,1.7915,1.7915,1.7908,1.7915,1.7915,1.7908,1.7902,1.7915,1.7915,1.7915,1.7915,1.7915,1.7915,1.7915,1.7915,1.7915,1.7915,1.7915,1.7915,1.797,1.8136,1.8419,1.853,1.875,1.9247,1.9412,1.9522,1.9577,1.9963,2.0238,2.034,2.0725,2.1164,2.1384,2.1384,2.1384,2.2357,2.2127,2.2031,2.2004,2.1781,2.1692,2.1558,2.1604,2.1469,2.1401,2.1228,2.1089,2.0895,2.0953,2.0912,2.0817,2.0702,2.0709,2.0634,2.0449,2.0435,2.0368,2.0203,2.0253,1.9994,1.9416,1.9249,1.9018,1.8604,1.843,1.8293,1.8293,1.8212,1.8082,1.8013,1.7989,1.7916,1.7739,1.6795,1.6606,1.7281,1.7316,1.7134,1.6872,1.6783,1.6713,1.6304,1.5697,1.5217,1.5183,1.4424,1.4025,1.4009,1.3998,1.3992,1.3981,1.4471,1.5027,1.5452,1.5583,1.5506,1.559,1.5754,1.5924,1.593,1.6151,1.661,1.7294,1.7527,1.7622,1.7854,1.7861,1.7854,1.7868,1.7881,1.7853,1.7915,1.7915,1.7915,1.7915,1.7915,1.7915,1.7915,1.7915,1.7915,1.7915,1.7915,1.7915,1.7915,1.7915,1.7915,1.7915,1.7915,1.7915,1.7915,1.7915,1.7915,1.7915,1.7915,1.797,1.8033,1.8088,1.8143,1.864,1.8805,1.8971,1.9302,1.968,1.9632,1.9743,2.0175,2.0725,2.1219,2.1329,2.1329,2.1163,2.1048,2.0965,2.0851,2.0704,2.0576,2.0512,2.0506,2.0455,2.0384,2.0295,2.018,2.0501,2.1123,2.1034,2.0765,2.0252,2.0252,2.0032,1.9586,1.958,1.9555,1.9446,1.9503,1.9304,1.9035,1.891,1.8739,1.8573,1.8405,1.7959,1.7189,1.7069,1.6652,1.5886,1.5765,1.5706,1.5596,1.5144,1.5078,1.5334,1.5242,1.5062,1.4851,1.482,1.4708,1.4491,1.4088,1.386,1.3793,1.3359,1.3137,1.3072,1.3002,1.2937,1.2936,1.3148,1.3396,1.3677,1.3682,1.3708,1.3777,1.4492,1.499,1.5114,1.5735,1.6441,1.6851,1.7112,1.742,1.7805,1.7922,1.7915,1.7915,1.7915,1.7915,1.7915,1.7915,1.7915,1.7915,1.7915,1.7915,1.7915,1.7915,1.7915,1.7915,1.7915,1.7915,1.7915,1.7915,1.7915,1.7915,1.7915,1.7915,1.7915,1.7915,1.7915,1.7915,1.7915,1.7915,1.7915,1.7915,1.8026,1.8253,1.8253,1.8309,1.8474,1.8916,1.9081,1.9192,1.9522,2.0128,2.0725,2.089,2.1,2.041,2.0355,2.0233,2.0092,1.9958,1.9829,1.9768,1.9762,1.9731,1.9664,1.9573,1.9566,1.9999,2.0659,2.0613,2.0247,1.9751,1.9679,1.94,1.8913,1.8907,1.8907,1.8907,1.8907,1.8717,1.8374,1.822,1.7978,1.7649,1.7504,1.6939,1.6094,1.5865,1.5299,1.4398,1.4243,1.4191,1.4196,1.4002,1.3925,1.3878,1.3498,1.3376,1.3466,1.3431,1.3327,1.3194,1.291,1.2696,1.2656,1.2383,1.2169,1.2068,1.1991,1.1974,1.2135,1.2126,1.2264,1.2506,1.2506,1.2539,1.2667,1.341,1.395,1.4126,1.4825,1.5491,1.5946,1.6203,1.6658,1.7648,1.7726,1.7755,1.7928,1.7949,1.7922,1.7915,1.7915,1.7915,1.7915,1.7915,1.7915,1.7915,1.7915,1.7915,1.7915,1.7915,1.7915,1.7915,1.7915,1.7915,1.7915,1.7915,1.7915,1.7915,1.7915,1.7915,1.7915,1.7915,1.7915,1.7915,1.7915,1.7915,1.8033,1.797,1.797,1.8136,1.8364,1.8592,1.875,1.9081,1.9577,2.0128,2.0238,2.0505,2.063,2.0431,2.0297,2.0017,2.0029,1.982,1.9765,1.9548,1.9576,1.9583,1.9509,1.9503,1.9633,1.9584,1.9329,1.929,1.912,1.9048,1.8856,1.8682,1.8729,1.8848,1.8907,1.8848,1.8137,1.6984,1.6891,1.6287,1.5112,1.4976,1.485,1.4836,1.473,1.4622,1.4409,1.432,1.4337,1.4081,1.3628,1.3332,1.3194,1.2601,1.2642,1.3385,1.3645,1.3415,1.3242,1.271,1.2315,1.2218,1.1607,1.1168,1.1082,1.1061,1.1269,1.1724,1.1843,1.2127,1.2526,1.2578,1.2644,1.2716,1.2815,1.2896,1.2953,1.3186,1.3709,1.4621,1.4792,1.5509,1.6972,1.7253,1.7455,1.7945,1.7948,1.788,1.7915,1.7915,1.7915,1.7915,1.7915,1.7915,1.7915,1.7915,1.7915,1.7915,1.7915,1.7915,1.7915,1.7915,1.7915,1.7922,1.7922,1.7922,1.7922,1.7922,1.7922,1.7915,1.7915,1.7915,1.7915,1.7915,1.7915,1.7915,1.7915,1.7915,1.7915,1.8033,1.8253,1.8419,1.8592,1.9026,1.9522,1.9632,1.9908,1.7646,1.7536,1.7416,1.7418,1.7296,1.725,1.7203,1.7198,1.7161,1.7104,1.7046,1.7041,1.6993,1.6852,1.6768,1.7208,1.7908,1.7495,1.6958,1.6458,1.6387,1.6382,1.6387,1.6387,1.6183,1.5714,1.5593,1.5326,1.4804,1.4734,1.4472,1.4075,1.4043,1.3829,1.3428,1.3268,1.3055,1.2592,1.2349,1.1981,1.1564,1.1129,1.1161,1.1463,1.1781,1.1915,1.1731,1.1041,1.0655,1.0513,1.0305,1.011,0.9982,0.9873,0.9876,1.0048,1.0105,1.0391,1.0967,1.1082,1.1253,1.1654,1.1997,1.2257,1.236,1.2723,1.3145,1.3603,1.4091,1.4786,1.5665,1.6383,1.6953,1.7425,1.7478,1.7573,1.7832,1.7915,1.7915,1.7915,1.7915,1.7915,1.7915,1.7915,1.7915,1.7915,1.7915,1.7922,1.7922,1.7922,1.7936,1.7942,1.7948,1.8009,1.8009,1.7976,1.7922,1.7922,1.7915,1.7922,1.7922,1.7915,1.7915,1.7915,1.7915,1.7915,1.7915,1.7915,1.8088,1.8088,1.8253,1.853,1.8916,1.9026,1.9357,1.6062,1.5962,1.5886,1.5891,1.5819,1.5748,1.57,1.5672,1.5667,1.5629,1.5576,1.5567,1.5524,1.5398,1.5187,1.5537,1.6319,1.6075,1.5615,1.5143,1.511,1.5091,1.5086,1.5057,1.491,1.4633,1.4378,1.4177,1.4118,1.4109,1.3779,1.3123,1.3094,1.2678,1.2082,1.1927,1.1649,1.131,1.1201,1.0911,1.0448,1.0411,1.035,1.0268,1.0212,1.0283,1.0495,1.0047,0.973,0.9663,0.9629,0.9561,0.9492,0.9331,0.9274,0.9274,0.9277,0.9438,0.9826,0.9881,1.0102,1.0476,1.1053,1.1486,1.1598,1.2125,1.2568,1.291,1.3221,1.3742,1.4417,1.5174,1.6058,1.6784,1.7003,1.7201,1.7628,1.7657,1.7748,1.7874,1.7915,1.7915,1.7915,1.7915,1.7915,1.7915,1.7894,1.7935,1.7935,1.7982,1.8009,1.8023,1.8104,1.8158,1.8165,1.8104,1.8009,1.7996,1.8017,1.7997,1.7949,1.7942,1.7929,1.7922,1.7915,1.7915,1.7915,1.7915,1.7915,1.7915,1.797,1.8198,1.8364,1.8419,1.8805,1.6161,1.5932,1.6071,1.5806,1.5655,1.5552,1.5697,1.5565,1.5542,1.5402,1.5254,1.5453,1.5226,1.53,1.4522,1.4421,1.4398,1.473,1.5016,1.5047,1.504,1.4998,1.4993,1.4779,1.434,1.3736,1.3183,1.2907,1.2895,1.2815,1.2481,1.1942,1.1808,1.1508,1.0716,1.0786,1.0613,1.0419,1.0412,1.0337,1.0468,1.0126,1.0022,0.996,0.8985,0.8769,0.9783,0.9763,0.9563,0.9497,0.9496,0.9541,0.9294,0.9191,0.9381,0.9182,0.9381,0.9411,0.941,0.939,0.9353,0.9666,1.0117,1.0473,1.0602,1.1059,1.1587,1.2006,1.229,1.2578,1.3221,1.3844,1.4887,1.6298,1.6509,1.667,1.7058,1.7244,1.736,1.7768,1.7914,1.7936,1.7936,1.797,1.799,1.8004,1.8016,1.8091,1.8097,1.8179,1.8287,1.8294,1.8294,1.8314,1.8321,1.8314,1.8226,1.8152,1.8111,1.8077,1.8002,1.7968,1.7997,1.7983,1.7929,1.7929,1.7915,1.7915,1.7915,1.7915,1.7915,1.7915,1.8026,1.8143,1.8253,1.4749,1.4654,1.4518,1.4458,1.4394,1.4405,1.4362,1.4328,1.4272,1.3957,1.3523,1.3396,1.3093,1.267,1.2325,1.224,1.2214,1.2462,1.295,1.3732,1.3825,1.3808,1.3736,1.3298,1.2611,1.192,1.1605,1.1448,1.1505,1.1529,1.1298,1.1157,1.1076,1.0928,1.0657,1.07,1.029,0.9281,0.9176,0.8689,0.7826,0.7659,0.7632,0.7551,0.7141,0.71,0.7355,0.7297,0.7226,0.7264,0.7189,0.714,0.7052,0.6971,0.6932,0.6929,0.6929,0.7405,0.8172,0.8283,0.8637,0.9275,0.9746,0.9809,0.9921,1.035,1.0734,1.1076,1.1679,1.2344,1.2578,1.3104,1.4057,1.5267,1.5739,1.6127,1.6632,1.7054,1.7374,1.7566,1.7947,1.8179,1.8172,1.8165,1.8152,1.8152,1.8213,1.8247,1.826,1.8301,1.8314,1.8321,1.8382,1.8464,1.847,1.8491,1.847,1.8362,1.8294,1.8213,1.8131,1.8063,1.8036,1.7975,1.7976,1.7936,1.7929,1.7915,1.7915,1.7915,1.7915,1.7915,1.7915,1.797,1.8088,1.3202,1.3148,1.306,1.3006,1.2904,1.2922,1.2884,1.2857,1.2803,1.2497,1.2125,1.1986,1.1669,1.1315,1.1221,1.1208,1.1208,1.1208,1.1643,1.2378,1.2405,1.2398,1.2386,1.188,1.1459,1.0973,1.0867,1.0847,1.0843,1.0799,1.0573,1.01,1.0032,0.9679,0.9256,0.9185,0.8638,0.7936,0.7767,0.7285,0.6613,0.6391,0.6368,0.6288,0.6085,0.5932,0.5825,0.5553,0.5559,0.59,0.6005,0.5966,0.5909,0.592,0.5827,0.5822,0.5871,0.6223,0.6932,0.6973,0.7251,0.8081,0.8616,0.8857,0.9031,0.9587,1.0107,1.0275,1.0954,1.1553,1.1641,1.2397,1.3172,1.3716,1.4575,1.5388,1.6088,1.67,1.701,1.7161,1.7564,1.7861,1.7974,1.8208,1.8258,1.8321,1.8369,1.8396,1.8409,1.8457,1.8464,1.8484,1.8559,1.8613,1.8626,1.8654,1.8701,1.8593,1.8477,1.8369,1.8267,1.8213,1.8172,1.8077,1.8002,1.7983,1.7963,1.7929,1.7915,1.7915,1.7915,1.7915,1.7915,1.7915,1.797,1.1703,1.1686,1.1691,1.1761,1.1627,1.1692,1.1658,1.1531,1.1514,1.1439,1.128,1.1078,1.0974,1.0957,1.0496,1.0467,1.0865,1.0592,1.0512,1.0689,1.0713,1.0753,1.0884,1.0769,1.0539,1.0324,1.0308,1.0438,1.0161,1.0145,0.9952,0.8706,0.8563,0.794,0.715,0.6602,0.6782,0.6611,0.6534,0.6464,0.6257,0.6257,0.6239,0.6132,0.5596,0.5246,0.5148,0.4731,0.482,0.5764,0.5777,0.5687,0.5807,0.587,0.5725,0.5656,0.5825,0.5783,0.5867,0.59,0.5924,0.6199,0.7097,0.7607,0.7752,0.8644,0.9344,0.9404,1.0168,1.0554,1.0673,1.1476,1.2138,1.2416,1.3494,1.4496,1.5457,1.6037,1.635,1.6554,1.6985,1.7376,1.7465,1.787,1.8155,1.8282,1.837,1.8531,1.8559,1.862,1.8779,1.8793,1.8759,1.8701,1.8694,1.8701,1.8793,1.8701,1.8613,1.8538,1.843,1.8375,1.8287,1.8186,1.8111,1.803,1.7955,1.799,1.7942,1.7922,1.7922,1.7922,1.7922,1.7922,1.7929,1.1794,1.1693,1.1672,1.1695,1.163,1.1623,1.1613,1.1589,1.1463,1.0652,0.9991,0.9721,0.9126,0.8126,0.8043,0.7946,0.8127,0.8119,0.7954,0.792,0.7839,0.8597,0.9364,0.9489,0.8918,0.8076,0.8039,0.775,0.7743,0.799,0.7627,0.7211,0.7219,0.7003,0.6577,0.6508,0.6211,0.5769,0.5696,0.5413,0.4989,0.4984,0.491,0.4837,0.4698,0.4615,0.4586,0.4362,0.4266,0.4606,0.4675,0.4584,0.471,0.4626,0.4678,0.4675,0.4602,0.478,0.5143,0.5194,0.5431,0.5861,0.619,0.6431,0.6488,0.7584,0.8155,0.8441,0.9193,0.9818,0.9907,1.0513,1.1211,1.2127,1.283,1.363,1.4459,1.5019,1.5571,1.6092,1.6607,1.6883,1.7108,1.7518,1.7922,1.7992,1.8301,1.8623,1.8572,1.8701,1.882,1.882,1.88,1.8807,1.8813,1.8813,1.8813,1.8813,1.8779,1.8701,1.8613,1.8552,1.843,1.8301,1.8274,1.8206,1.8111,1.805,1.7982,1.799,1.797,1.7935,1.7942,1.7929,1.7936,0.9929,0.9784,0.9759,0.9711,0.9731,0.9728,0.9714,0.9688,0.9654,0.9131,0.8397,0.8206,0.7683,0.6892,0.6873,0.6851,0.6828,0.6826,0.6802,0.6759,0.6808,0.7288,0.7918,0.799,0.757,0.6798,0.6632,0.6691,0.6755,0.6663,0.6514,0.6239,0.6168,0.602,0.5588,0.5655,0.55,0.5061,0.4986,0.4773,0.4349,0.4334,0.4328,0.4324,0.4317,0.4298,0.4281,0.4253,0.4223,0.4189,0.4148,0.4122,0.412,0.4095,0.4015,0.4078,0.4067,0.4249,0.4499,0.4616,0.4733,0.5108,0.5403,0.5582,0.5754,0.6508,0.7081,0.714,0.8189,0.8756,0.9015,0.9558,1.0454,1.1306,1.1878,1.2551,1.3528,1.4029,1.4501,1.5148,1.5731,1.6256,1.6489,1.7019,1.731,1.7529,1.7917,1.8162,1.8342,1.8588,1.8834,1.8854,1.8854,1.8854,1.8854,1.8847,1.8827,1.8827,1.882,1.882,1.8728,1.8667,1.8572,1.8457,1.843,1.8375,1.826,1.8186,1.8165,1.8118,1.8063,1.8043,1.803,1.7962,1.7962,0.7204,0.7196,0.7157,0.704,0.7147,0.7065,0.7334,0.7085,0.7291,0.7144,0.6915,0.6812,0.6724,0.665,0.6335,0.6521,0.6515,0.6372,0.6409,0.63,0.6339,0.6388,0.6448,0.666,0.652,0.6308,0.6448,0.6376,0.623,0.6302,0.6096,0.5599,0.5462,0.51,0.4799,0.4584,0.4431,0.4478,0.4541,0.4467,0.4388,0.4371,0.436,0.4356,0.4331,0.4315,0.4302,0.4282,0.4256,0.423,0.4196,0.4177,0.4173,0.4151,0.4142,0.4135,0.4116,0.4099,0.4155,0.4137,0.4054,0.4246,0.4683,0.4927,0.5045,0.5578,0.599,0.5988,0.7009,0.7685,0.8105,0.8837,0.9645,1.0397,1.0584,1.1295,1.2483,1.302,1.3372,1.3899,1.4549,1.5123,1.5766,1.6355,1.6776,1.699,1.7435,1.7857,1.815,1.8391,1.8677,1.8891,1.8929,1.8902,1.8895,1.8881,1.8796,1.8776,1.882,1.882,1.882,1.8715,1.8667,1.862,1.8579,1.8498,1.8325,1.8278,1.8328,1.8274,1.8199,1.824,1.828,1.8165,1.8111,0.7233,0.72,0.719,0.7159,0.7042,0.7006,0.6914,0.6902,0.687,0.6421,0.6124,0.5969,0.5675,0.5168,0.5154,0.5143,0.5047,0.5041,0.5014,0.4961,0.4952,0.5,0.5125,0.5472,0.5471,0.5189,0.5047,0.4978,0.5049,0.5119,0.4908,0.4838,0.4838,0.4694,0.4547,0.4473,0.4462,0.4439,0.4364,0.4422,0.4407,0.4397,0.439,0.4386,0.436,0.4334,0.4313,0.4304,0.4297,0.4279,0.4242,0.4212,0.4207,0.42,0.4193,0.4187,0.4169,0.4152,0.4148,0.4129,0.4112,0.4109,0.4219,0.4331,0.4328,0.4869,0.5164,0.5344,0.5938,0.6809,0.759,0.7981,0.8677,0.9431,0.9776,1.0122,1.1096,1.2035,1.2796,1.3396,1.3694,1.4001,1.4645,1.5287,1.5762,1.6313,1.6905,1.7504,1.7847,1.8123,1.8458,1.8712,1.8837,1.8823,1.8986,1.8966,1.8918,1.8884,1.8864,1.8868,1.8868,1.8847,1.8755,1.8735,1.8721,1.862,1.8504,1.8427,1.8477,1.8403,1.8348,1.8382,1.8389,1.8308,1.8267,0.4988,0.4974,0.4974,0.4956,0.4927,0.4835,0.482,0.4802,0.4774,0.4542,0.4245,0.4164,0.3938,0.3574,0.3573,0.3566,0.3555,0.3543,0.3527,0.3503,0.3421,0.3403,0.3598,0.4155,0.4433,0.4422,0.4488,0.4488,0.4488,0.4488,0.4558,0.4488,0.4488,0.4558,0.4488,0.4488,0.4478,0.4467,0.4463,0.4455,0.4443,0.4426,0.441,0.4402,0.4384,0.4367,0.4356,0.4338,0.4331,0.4319,0.4287,0.4253,0.4238,0.4226,0.4219,0.4214,0.4206,0.4204,0.4204,0.4191,0.4172,0.417,0.4144,0.4122,0.4105,0.4397,0.4507,0.4687,0.5164,0.5928,0.679,0.6875,0.7523,0.8482,0.8771,0.9197,1.0158,1.1074,1.1979,1.2703,1.2989,1.3348,1.3836,1.4345,1.4744,1.525,1.5781,1.6376,1.7084,1.7363,1.8029,1.8319,1.8576,1.8754,1.9037,1.9128,1.9074,1.9054,1.904,1.8972,1.8918,1.8884,1.885,1.881,1.8755,1.8742,1.8654,1.864,1.862,1.8599,1.8565,1.8538,1.8504,1.847,1.8437,0.2424,0.2424,0.2424,0.2417,0.2406,0.2477,0.2543,0.2456,0.229,0.2649,0.2353,0.2267,0.2625,0.2334,0.2406,0.2334,0.233,0.2395,0.2529,0.2522,0.2511,0.2498,0.2629,0.3049,0.3538,0.415,0.442,0.4488,0.4488,0.4488,0.4488,0.4488,0.4488,0.4488,0.4488,0.4488,0.4486,0.4482,0.4482,0.4482,0.4478,0.4459,0.4437,0.4414,0.4407,0.4401,0.439,0.4373,0.4361,0.4428,0.4337,0.4312,0.4285,0.4252,0.4233,0.4234,0.423,0.4234,0.4242,0.4232,0.4214,0.4221,0.4189,0.4167,0.4144,0.4116,0.4159,0.4274,0.4635,0.5166,0.5754,0.5847,0.6444,0.7241,0.7612,0.823,0.9319,0.9961,1.0715,1.1862,1.2189,1.2379,1.2969,1.3517,1.3844,1.418,1.472,1.538,1.6038,1.6643,1.7271,1.7908,1.8173,1.8481,1.8814,1.9211,1.9164,1.9096,1.9103,1.9101,1.9033,1.9027,1.8972,1.8875,1.8813,1.8807,1.8807,1.8715,1.8715,1.882,1.8793,1.8718,1.864,1.864,1.8606,0.2424,0.2424,0.2424,0.2423,0.2419,0.2407,0.2326,0.2394,0.2222,0.2283,0.2208,0.2267,0.2189,0.2188,0.2261,0.2261,0.2114,0.2037,0.2105,0.2098,0.2091,0.2084,0.2001,0.2214,0.2496,0.2915,0.3673,0.4285,0.4353,0.4488,0.4218,0.4422,0.4353,0.4353,0.4284,0.4489,0.4356,0.436,0.4427,0.4497,0.4491,0.448,0.4463,0.4437,0.4435,0.4426,0.4407,0.4398,0.4392,0.4391,0.4387,0.438,0.4361,0.432,0.4297,0.4286,0.4267,0.4262,0.4335,0.4241,0.4237,0.4236,0.4214,0.4193,0.4184,0.4157,0.4129,0.4112,0.422,0.4508,0.5106,0.5149,0.5529,0.6094,0.6464,0.6902,0.7959,0.8494,0.9178,1.0575,1.105,1.1474,1.2151,1.2762,1.3128,1.3542,1.401,1.4679,1.5403,1.5889,1.638,1.7077,1.7775,1.8119,1.8518,1.904,1.9239,1.9125,1.9098,1.9183,1.9142,1.9162,1.9094,1.8905,1.8854,1.8841,1.8834,1.8827,1.8841,1.8803,1.8841,1.8827,1.8769,1.8755,1.8786,0.1136,0.1136,0.1136,0.1136,0.1136,0.1133,0.1131,0.113,0.112,0.1113,0.1109,0.1103,0.1097,0.1095,0.1094,0.1094,0.0,0.1094,0.1092,0.1089,0.1089,0.1085,0.1223,0.1438,0.1578,0.193,0.2771,0.3329,0.3329,0.3259,0.3398,0.3258,0.3329,0.3329,0.34,0.3687,0.3896,0.3965,0.4248,0.4454,0.451,0.4428,0.4478,0.447,0.4466,0.4458,0.4447,0.4426,0.4422,0.4418,0.4407,0.4402,0.4392,0.4376,0.4349,0.4331,0.4305,0.4296,0.437,0.4283,0.4275,0.4281,0.4255,0.4233,0.4219,0.4192,0.4162,0.4132,0.4105,0.4208,0.4508,0.4493,0.4798,0.5301,0.5492,0.5996,0.6688,0.694,0.7913,0.9238,0.9916,1.0597,1.1529,1.203,1.246,1.2881,1.3278,1.3943,1.4729,1.5016,1.5364,1.6277,1.7024,1.7599,1.8012,1.8613,1.9132,1.908,1.9099,1.9185,1.9217,1.9223,1.9115,1.8945,1.8877,1.8891,1.8847,1.8834,1.8868,1.8864,1.8884,1.8898,1.8891,1.8877,1.8915,0.0,0.0,0.0,0.0,0.0,0.0,0.0,0.0,0.0,0.0,0.0,0.0,0.0,0.0,0.0,0.0,0.0,0.0,0.0,0.0,0.0,0.0,0.0,0.0506,0.0867,0.1008,0.1366,0.1936,0.2357,0.2427,0.2287,0.2356,0.2287,0.2217,0.2429,0.2926,0.3075,0.3362,0.3719,0.4064,0.4045,0.4166,0.4291,0.4356,0.4426,0.4493,0.4478,0.4462,0.4452,0.4446,0.4435,0.442,0.4417,0.4412,0.4397,0.4372,0.4338,0.4337,0.4404,0.4323,0.4304,0.4316,0.4304,0.4275,0.4251,0.4223,0.4193,0.4147,0.4122,0.4103,0.4222,0.4075,0.4318,0.4632,0.4887,0.5074,0.5652,0.6098,0.6547,0.7666,0.8675,0.9664,1.0524,1.1052,1.1471,1.1966,1.2312,1.2992,1.3662,1.3872,1.4348,1.5376,1.6233,1.6977,1.7512,1.8077,1.8665,1.898,1.9057,1.9173,1.9206,1.9257,1.9162,1.9122,1.9108,1.9101,1.8945,1.8915,1.8945,1.9013,1.9027,1.9033,1.9033,1.9027,1.9006,0.0,0.0,0.0,0.0,0.0,0.0,0.0,0.0,0.0,0.0,0.0,0.0,0.0,0.0,0.0,0.0,0.0,0.0,0.0,0.0,0.0,0.0,0.0,0.0,0.0,0.0,0.0,0.1084,0.1653,0.1935,0.2077,0.2006,0.1935,0.2147,0.1937,0.2224,0.236,0.2361,0.2505,0.2575,0.2714,0.321,0.3482,0.3683,0.4031,0.4306,0.4219,0.4278,0.4342,0.4411,0.4478,0.4476,0.4473,0.4451,0.4371,0.4417,0.4386,0.4418,0.4418,0.4331,0.4319,0.4326,0.4307,0.4287,0.4274,0.4245,0.4208,0.4239,0.4162,0.4151,0.4135,0.4125,0.4184,0.4248,0.4377,0.4634,0.5085,0.5276,0.5726,0.6176,0.7202,0.8424,0.9456,0.9926,1.0395,1.0897,1.1463,1.2086,1.2754,1.3032,1.3379,1.4421,1.528,1.6029,1.6704,1.7273,1.7923,1.854,1.8771,1.8986,1.9145,1.9186,1.938,1.9346,1.9319,1.9318,1.921,1.9156,1.9162,1.9162,1.9176,1.9183,1.9176,1.9169,1.9162,0.0,0.0,0.0,0.0,0.0,0.0,0.0,0.0,0.0,0.0,0.0,0.0,0.0,0.0,0.0,0.0,0.0,0.0,0.0,0.0,0.0,0.0,0.0,0.0,0.0,0.0,0.0,0.0291,0.0,0.0,0.0,0.0,0.0,0.0869,0.1156,0.1446,0.1591,0.1734,0.2019,0.223,0.2371,0.2508,0.2714,0.2706,0.3062,0.3269,0.3332,0.3672,0.3809,0.3946,0.4219,0.4488,0.4485,0.4474,0.4467,0.4463,0.4429,0.4391,0.436,0.4343,0.4337,0.4331,0.4317,0.4317,0.4305,0.4271,0.4232,0.4202,0.4199,0.4191,0.4182,0.4181,0.4181,0.4114,0.4172,0.4305,0.4564,0.4571,0.4898,0.5289,0.5804,0.6924,0.8034,0.8583,0.9261,1.0264,1.0624,1.1101,1.1958,1.2667,1.3026,1.3514,1.4327,1.5077,1.5691,1.6308,1.6925,1.7514,1.8022,1.831,1.8851,1.9023,1.9233,1.9468,1.9556,1.9495,1.944,1.9345,1.9257,1.9284,1.9332,1.9332,1.9332,1.9332,1.9305,0.0,0.0,0.0,0.0,0.0,0.0,0.0,0.0,0.0,0.0,0.0,0.0,0.0,0.0,0.0,0.0,0.0,0.0,0.0,0.0,0.0,0.0,0.0,0.0,0.0,0.0,0.0,0.0,0.0,0.0,0.0,0.0,0.0,0.0,0.0,0.0583,0.0874,0.0946,0.1306,0.1521,0.1664,0.1802,0.1941,0.2009,0.2079,0.2221,0.2287,0.2705,0.3053,0.319,0.3811,0.4081,0.415,0.435,0.4484,0.448,0.4458,0.4429,0.4392,0.4365,0.4345,0.4334,0.4326,0.4324,0.4311,0.4285,0.4263,0.4233,0.423,0.4226,0.4221,0.4215,0.4211,0.4208,0.4211,0.4217,0.4218,0.4345,0.4406,0.4661,0.5118,0.539,0.6335,0.7025,0.8038,0.9366,0.9907,1.0177,1.1034,1.201,1.2365,1.2669,1.3443,1.4066,1.4554,1.516,1.5856,1.6502,1.7076,1.764,1.8193,1.8668,1.8908,1.9218,1.9556,1.963,1.9609,1.944,1.9345,1.9427,1.9488,1.9488,1.9488,1.9481,1.9468,0.0,0.0,0.0,0.0,0.0,0.0,0.0,0.0,0.0,0.0,0.0,0.0,0.0,0.0,0.0,0.0,0.0,0.0,0.0,0.0,0.0,0.0,0.0,0.0,0.0,0.0,0.0,0.0,0.0,0.0,0.0,0.0,0.0,0.0,0.0,0.0,0.0,0.0,0.0,0.0,0.0,0.0873,0.1233,0.1373,0.1804,0.2232,0.2147,0.2216,0.2287,0.2286,0.3054,0.3468,0.3536,0.4013,0.4287,0.4281,0.4484,0.4459,0.4431,0.4391,0.436,0.4345,0.4331,0.4317,0.4309,0.4308,0.4289,0.4266,0.4262,0.4249,0.4234,0.4219,0.4233,0.4237,0.4242,0.4241,0.4241,0.4236,0.4296,0.4287,0.4489,0.49,0.5028,0.5859,0.6803,0.8081,0.9091,0.9372,1.0187,1.1054,1.1397,1.1804,1.2627,1.316,1.3389,1.4004,1.4834,1.5535,1.6151,1.6913,1.7602,1.8015,1.8407,1.898,1.9311,1.9515,1.9745,1.9651,1.963,1.963,1.9637,1.9596,1.9583,1.9583,1.9596,0.0,0.0,0.0,0.0,0.0,0.0,0.0,0.0,0.0,0.0,0.0,0.0,0.0,0.0,0.0,0.0,0.0,0.0,0.0,0.0,0.0,0.0,0.0,0.0,0.0,0.0,0.0,0.0,0.0,0.0,0.0,0.0,0.0,0.0,0.0,0.0,0.0,0.0,0.0,0.0,0.0,0.0219,0.0437,0.0509,0.0582,0.0871,0.0869,0.1298,0.144,0.1724,0.2287,0.2567,0.2776,0.3398,0.381,0.3946,0.4218,0.4412,0.4467,0.4428,0.4395,0.4419,0.4328,0.4311,0.4316,0.4311,0.4305,0.4294,0.429,0.4278,0.4278,0.4275,0.4278,0.4275,0.4271,0.4268,0.4266,0.4262,0.4262,0.4257,0.4335,0.4481,0.4605,0.4723,0.5751,0.6768,0.7728,0.8683,0.944,1.0193,1.054,1.0962,1.1739,1.2609,1.2911,1.3402,1.4014,1.4569,1.5243,1.5967,1.675,1.7281,1.7736,1.8348,1.9049,1.9376,1.9642,1.9847,1.9868,1.978,1.9766,1.9711,1.9718,1.9752,1.9773,0.0,0.0,0.0,0.0,0.0,0.0,0.0,0.0,0.0,0.0,0.0,0.0,0.0,0.0,0.0,0.0,0.0,0.0,0.0,0.0,0.0,0.0,0.0,0.0,0.0,0.0,0.0,0.0,0.0,0.0,0.0,0.0,0.0,0.0,0.0,0.0,0.0,0.0,0.0,0.0,0.0,0.0,0.0,0.0,0.0,0.0,0.0,0.0581,0.0725,0.1012,0.1369,0.1794,0.2147,0.2568,0.3053,0.3468,0.3809,0.4218,0.4412,0.4456,0.442,0.4376,0.4357,0.4342,0.4335,0.4328,0.4324,0.4323,0.4316,0.4309,0.4311,0.4302,0.43,0.4293,0.4294,0.4293,0.4294,0.4292,0.4296,0.4297,0.4304,0.4301,0.4364,0.4481,0.5052,0.601,0.6771,0.7677,0.8458,0.9154,0.9849,1.0285,1.0916,1.1746,1.2583,1.2689,1.2932,1.3815,1.4389,1.5061,1.5729,1.6315,1.7132,1.7878,1.8592,1.9172,1.9581,1.9809,1.9839,1.9854,1.982,1.9875,1.9847,1.9888,1.9861,0.0,0.0,0.0,0.0,0.0,0.0,0.0,0.0,0.0,0.0,0.0,0.0,0.0,0.0,0.0,0.0,0.0,0.0,0.0,0.0,0.0,0.0,0.0,0.0,0.0,0.0,0.0,0.0,0.0,0.0,0.0,0.0,0.0,0.0,0.0,0.0,0.0,0.0,0.0,0.0,0.0,0.0,0.0,0.0,0.0,0.0,0.0,0.0,0.0,0.0,0.0,0.1083,0.1227,0.1866,0.2498,0.3123,0.3329,0.381,0.4419,0.439,0.4431,0.4403,0.4386,0.4382,0.4384,0.4372,0.4422,0.4352,0.4337,0.4319,0.4313,0.4312,0.4315,0.4309,0.4309,0.4309,0.4309,0.4309,0.4309,0.4309,0.4309,0.4308,0.4308,0.4367,0.4673,0.5309,0.5942,0.6659,0.7459,0.8039,0.8745,0.9514,1.0025,1.075,1.1434,1.1503,1.1843,1.2809,1.3592,1.4213,1.4964,1.5703,1.6488,1.7385,1.8086,1.8711,1.9262,1.9763,1.9979,2.0146,2.0051,2.0037,2.0064,2.0051,1.9997,0.0,0.0,0.0,0.0,0.0,0.0,0.0,0.0,0.0,0.0,0.0,0.0,0.0,0.0,0.0,0.0,0.0,0.0,0.0,0.0,0.0,0.0,0.0,0.0,0.0,0.0,0.0,0.0,0.0,0.0,0.0,0.0,0.0,0.0,0.0,0.0,0.0,0.0,0.0,0.0,0.0,0.0,0.0,0.0,0.0,0.0,0.0,0.0,0.0,0.0,0.0,0.0,0.0,0.1083,0.1582,0.2218,0.2567,0.3742,0.4285,0.4474,0.4459,0.4435,0.4416,0.4407,0.4398,0.4392,0.4386,0.4383,0.4371,0.4356,0.4346,0.4341,0.4337,0.4313,0.4309,0.4309,0.4309,0.4309,0.4309,0.4309,0.4309,0.4309,0.4309,0.4309,0.4555,0.475,0.533,0.5999,0.674,0.6982,0.7424,0.8397,0.9097,0.9748,1.0278,1.066,1.1131,1.2006,1.2732,1.3416,1.4123,1.5009,1.5739,1.659,1.7385,1.8169,1.8994,1.9776,2.0275,2.0471,2.0329,2.0207,2.0193,2.0146,2.0078,0.0,0.0,0.0,0.0,0.0,0.0,0.0,0.0,0.0,0.0,0.0,0.0,0.0,0.0,0.0,0.0,0.0,0.0,0.0,0.0,0.0,0.0,0.0,0.0,0.0,0.0,0.0,0.0,0.0,0.0,0.0,0.0,0.0,0.0,0.0,0.0,0.0,0.0,0.0,0.0,0.0,0.0,0.0,0.0,0.0,0.0,0.0,0.0,0.0,0.0,0.0,0.0,0.0,0.0,0.0,0.1441,0.2498,0.3536,0.3945,0.4419,0.4404,0.4461,0.4439,0.4432,0.4426,0.4422,0.4417,0.4413,0.4407,0.4392,0.4375,0.4369,0.435,0.4327,0.4315,0.4316,0.4311,0.4311,0.4309,0.4309,0.4309,0.4309,0.4309,0.4309,0.437,0.4505,0.4709,0.5384,0.5988,0.6162,0.6403,0.7322,0.8111,0.8733,0.9417,1.012,1.0651,1.1275,1.1955,1.2682,1.3524,1.4372,1.5089,1.5824,1.6731,1.7726,1.8931,1.9718,2.0121,2.0396,2.0512,2.041,2.0336,2.0295,2.0261,0.0,-0.0074,0.0,0.0,0.0,0.0,0.0,0.0,0.0,0.0,0.0,0.0,0.0,0.0,0.0,0.0,0.0,0.0,0.0,0.0,0.0,0.0,0.0,0.0,0.0,0.0,0.0,0.0,0.0,0.0,0.0,0.0,0.0,0.0,0.0,0.0,0.0,0.0,0.0,0.0,0.0,0.0,0.0,0.0,0.0,0.0,0.0,0.0,0.0,0.0,0.0,0.0,0.0,0.0,0.0,0.1298,0.2568,0.2985,0.3606,0.4081,0.442,0.4411,0.448,0.4484,0.4474,0.4455,0.4447,0.4439,0.4432,0.4417,0.4402,0.4384,0.4367,0.4347,0.433,0.4323,0.4317,0.4313,0.4309,0.4309,0.4309,0.4309,0.4309,0.4309,0.4309,0.4377,0.451,0.4713,0.5248,0.5302,0.5686,0.6288,0.7087,0.7701,0.8465,0.9255,0.9949,1.0579,1.1444,1.217,1.2959,1.3672,1.4382,1.5174,1.6114,1.7146,1.8433,1.9286,1.9861,2.0123,2.051,2.0641,2.0566,2.058,2.056,-0.1612,-0.1609,-0.1609,-0.1607,-0.1605,-0.1608,-0.1023,0.0,0.0,0.0,0.0,0.0,0.0,0.0,0.0,0.0,0.0,0.0,0.0,0.0,0.0,0.0,0.0,0.0,0.0,0.0,0.0,0.0,0.0,0.0,0.0,0.0,0.0,0.0,0.0,0.0,0.0,0.0,0.0,0.0,0.0,0.0,0.0,0.0,0.0,0.0,0.0,0.0,0.0,0.0,0.0,0.0,0.0,0.0,0.0291,0.1012,0.1653,0.2147,0.3193,0.3605,0.3947,0.4353,0.4488,0.4488,0.4484,0.4478,0.4471,0.4463,0.4458,0.4446,0.4432,0.4414,0.4398,0.438,0.436,0.4343,0.4335,0.4323,0.4319,0.4309,0.4309,0.4309,0.4309,0.4309,0.4309,0.4309,0.4377,0.4511,0.4576,0.47,0.4963,0.5565,0.6091,0.676,0.7521,0.8318,0.9109,0.9886,1.0675,1.1456,1.2224,1.2936,1.3677,1.4579,1.5644,1.675,1.7919,1.8714,1.9426,2.0136,2.0526,2.0691,2.0817,2.0804,2.0804,-0.2325,-0.2325,-0.2325,-0.2321,-0.2244,-0.2243,-0.1665,-0.0942,-0.0873,-0.0875,-0.0875,0.0,-0.0876,0.0,0.0,0.0,0.0,0.0,0.0,0.0,0.0,0.0,0.0,0.0,0.0,0.0,0.0,0.0,0.0,0.0,0.0,0.0,0.0,0.0,0.0,0.0,0.0,0.0,0.0,0.0,0.0,0.0,0.0,0.0,0.0,0.0,0.0,0.0,0.0,0.0,0.0,0.0,0.0,0.0,0.0,0.0653,0.1084,0.1583,0.2287,0.3123,0.3606,0.4014,0.4353,0.4488,0.4488,0.4485,0.4484,0.4481,0.4482,0.4478,0.4463,0.4448,0.4433,0.4418,0.4392,0.4368,0.4353,0.4338,0.4326,0.4312,0.4309,0.4309,0.4309,0.4309,0.4309,0.4309,0.4309,0.4377,0.4375,0.4437,0.4567,0.4903,0.5355,0.5807,0.664,0.7485,0.8281,0.9069,0.9827,1.061,1.1391,1.2182,1.2908,1.4018,1.5242,1.6298,1.7359,1.819,1.9012,1.9711,2.0371,2.0632,2.0799,2.0946,2.0953,-0.2743,-0.2745,-0.2672,-0.2882,-0.2578,-0.2792,-0.272,-0.2578,-0.2751,-0.2475,-0.2255,-0.2257,-0.2109,-0.1888,-0.1963,-0.1674,-0.1384,-0.1239,0.0,0.0,0.0,0.0,0.0,0.0,0.0,0.0,0.0,0.0,0.0,0.0,0.0,0.0,0.0,0.0,0.0,0.0,0.0,0.0,0.0,0.0,0.0,0.0,0.0,0.0,0.0,0.0,0.0,0.0,0.0,0.0,0.0,0.0,0.0,0.0,0.0,0.0146,0.0581,0.1012,0.1581,0.2284,0.3051,0.3533,0.4012,0.4281,0.4418,0.4488,0.4488,0.4488,0.4486,0.4486,0.4474,0.4465,0.4452,0.444,0.4421,0.4401,0.4386,0.4364,0.4339,0.4326,0.4312,0.4312,0.4309,0.4309,0.4309,0.4309,0.4309,0.4309,0.4308,0.4305,0.4371,0.4437,0.4764,0.5221,0.5757,0.6611,0.7464,0.8244,0.9009,0.9865,1.0751,1.1453,1.2136,1.3485,1.4843,1.5725,1.6639,1.7569,1.8445,1.9244,1.9891,2.0443,2.0731,2.0927,2.1129,-0.5752,-0.5778,-0.5778,-0.5771,-0.5759,-0.5732,-0.5648,-0.5722,-0.5737,-0.4383,-0.2587,-0.2299,-0.2373,-0.2591,-0.2674,-0.2461,-0.2174,-0.2181,-0.1968,0.0,0.0,-0.1167,-0.0948,-0.0875,-0.0584,0.0,0.0,0.0,0.0,0.0,0.0,0.0,0.0,0.0,0.0,0.0,0.0,0.0,0.0,0.0,0.0,0.0,0.0,0.0,0.0,0.0,0.0,0.0,0.0,0.0,0.0,0.0,0.0,0.0,0.0,0.0,0.0,0.0581,0.1011,0.1578,0.221,0.3045,0.3595,0.4004,0.4278,0.4418,0.4488,0.4488,0.4488,0.4488,0.4486,0.4478,0.4473,0.4461,0.445,0.4435,0.4418,0.4387,0.4424,0.4339,0.4323,0.4317,0.4315,0.4311,0.4309,0.4309,0.4309,0.4309,0.4309,0.4307,0.4307,0.4374,0.4374,0.4706,0.5245,0.5779,0.6632,0.7435,0.8286,0.9157,1.0093,1.1139,1.2117,1.3224,1.4387,1.5133,1.5908,1.6893,1.7761,1.8575,1.9433,1.9933,2.056,2.0844,2.1128,-0.6777,-0.6875,-0.6896,-0.6892,-0.6871,-0.6845,-0.6753,-0.6737,-0.6733,-0.5812,-0.44,-0.4205,-0.4218,-0.4218,-0.4235,-0.3675,-0.3465,-0.3334,-0.2764,-0.2477,-0.2479,-0.2042,-0.1823,-0.175,-0.1167,0.0,0.0,0.0,0.0,0.0,0.0,0.0,0.0,0.0,0.0,0.0,0.0,0.0,0.0,0.0,0.0,0.0,0.0,0.0,0.0,0.0,0.0,0.0,0.0,0.0,0.0,0.0,0.0,0.0,0.0,0.0,0.0,0.0,0.0,0.1009,0.1433,0.2278,0.3252,0.3667,0.3928,0.4068,0.4488,0.4488,0.4488,0.4488,0.4488,0.4482,0.4482,0.4474,0.4469,0.4458,0.4433,0.4403,0.4384,0.4375,0.4361,0.4352,0.4346,0.4335,0.433,0.4309,0.4309,0.4312,0.4312,0.4319,0.4316,0.4315,0.4319,0.4313,0.4712,0.5181,0.578,0.6658,0.7476,0.8608,0.9669,1.0949,1.2166,1.2919,1.3661,1.4361,1.5167,1.606,1.6912,1.7728,1.8603,1.9497,2.0047,2.0645,2.0964,-0.7147,-0.7087,-0.7203,-0.7196,-0.7085,-0.7153,-0.7128,-0.7089,-0.7012,-0.7014,-0.6885,-0.6954,-0.6987,-0.6777,-0.6716,-0.5882,-0.5257,-0.4984,-0.4061,-0.3564,-0.328,-0.3208,-0.299,-0.2625,-0.2115,-0.1386,0.0,0.0,0.0,0.0,0.0,0.0,0.0,0.0,0.0,0.0,0.0,0.0,0.0,0.0,0.0,0.0,0.0,0.0,0.0,0.0,0.0,0.0,0.0,0.0,0.0,0.0,0.0,0.0,0.0,0.0,0.0,0.0,0.0,0.0579,0.0936,0.1504,0.2562,0.3114,0.331,0.3798,0.415,0.4358,0.4358,0.4491,0.4491,0.4489,0.4489,0.4488,0.4482,0.4478,0.445,0.4424,0.4413,0.4405,0.4395,0.4384,0.4373,0.4362,0.4349,0.4327,0.4317,0.4317,0.4322,0.4337,0.4343,0.4341,0.4341,0.4399,0.4382,0.4725,0.5268,0.5813,0.67,0.7969,0.918,1.029,1.1309,1.21,1.2833,1.3578,1.4291,1.5096,1.5947,1.6867,1.7773,1.8645,1.9449,2.0047,2.0645,-0.8595,-0.8641,-0.8701,-0.8691,-0.8644,-0.8636,-0.8605,-0.8556,-0.8553,-0.855,-0.8558,-0.8423,-0.802,-0.6759,-0.6798,-0.6471,-0.6352,-0.632,-0.6422,-0.6077,-0.5458,-0.4957,-0.4448,-0.3865,-0.3209,-0.2334,-0.1459,-0.1021,-0.0802,0.0,0.0,0.0,0.0,0.0,0.0,0.0,0.0,0.0,0.0,0.0,0.0,0.0,0.0,0.0,0.0,0.0,0.0,0.0,0.0,0.0,0.0,0.0,0.0,0.0,0.0,0.0,0.0,0.0,0.0,0.0,0.0,0.0936,0.179,0.2069,0.249,0.3128,0.3482,0.3832,0.3966,0.4364,0.4428,0.4495,0.4493,0.4489,0.4485,0.4484,0.4471,0.4451,0.4437,0.4428,0.4417,0.4407,0.4397,0.439,0.4387,0.4372,0.4369,0.4367,0.435,0.4358,0.4369,0.4365,0.4362,0.4341,0.4323,0.441,0.4824,0.5305,0.5922,0.7146,0.8382,0.9503,1.0458,1.1302,1.212,1.2811,1.3596,1.4291,1.5066,1.5987,1.6867,1.7707,1.859,1.9474,2.0092]},{"header":{"parameterUnit":"m.s-1","parameterCategory":1,"la1":31.0,"la2":29.5877,"lo1":-88.7671,"lo2":-86.6584,"dy":0.0162,"dx":0.0185,"nx":115,"ny":88,"refTime":"2023-11-11T18:00:00:Z","depth":0,"parameterNumber":3,"parameterNumberName":"V-component_of_WINDS"},"data":[0.0,0.0,0.0,0.0,0.0,0.0,0.0,0.0,0.0,0.0,0.0,0.0,0.0,0.0,0.0,0.0,0.0,0.0,0.0,0.0,0.0,0.0,0.0,0.0,0.0,0.0,0.0,0.0,0.0,0.0,0.0,0.0,0.0,0.0,0.0,0.0,0.0,0.0,0.0,0.0,0.0,0.0,0.0,0.0,0.0,0.0,0.0,0.0,0.0,0.0,0.0,0.0,0.0,0.0,0.0,0.0,0.0,0.0,0.0,0.0,0.0,0.0,0.0,0.0,0.0,0.0,0.0,0.0,0.0,0.0,0.0,0.0,0.0,0.0,0.0,0.0,0.0,0.0,0.0,0.0,0.0,0.0,0.0,0.0,0.0,0.0,0.0,0.0,0.0,0.0,0.0,0.0,0.0,0.0,0.0,0.0,0.0,0.0,0.0,0.0,0.0,0.0,0.0,0.0,0.0,0.0,0.0,0.0,0.0,0.0,0.0,0.0,0.0,0.0,0.0,0.0,0.0,0.0,0.0,0.0,0.0,0.0,0.0,0.0,0.0,0.0,0.0,0.0,0.0,0.0,0.0,0.0,0.0,0.0,0.0,0.0,0.0,0.0,0.0,0.0,0.0,0.0,0.0,0.0,0.0,0.0,0.0,0.0,0.0,0.0,0.0,0.0,0.0,0.0,0.0,0.0,0.0,0.0,0.0,0.0,0.0,0.0,0.0,0.0,0.0,0.0,0.0,0.0,0.0,0.0,0.0,0.0,0.0,0.0,0.0,0.0,0.0,0.0,0.0,0.0,0.0,0.0,0.0,0.0,0.0,0.0,0.0,0.0,0.0,0.0,0.0,0.0,0.0,0.0,0.0,0.0,0.0,0.0,0.0,0.0,0.0,0.0,0.0,0.0,0.0,0.0,0.0,0.0,0.0,0.0,0.0,0.0,0.0,0.0,0.0,0.0,0.0,0.0,0.0,0.0,0.0,0.0,0.0,0.0,0.0,0.0,0.0,0.0,0.0,0.0,0.0,0.0,0.0,0.0,0.0,0.0,0.0,0.0,0.0,0.0,0.0,0.0,0.0,0.0,0.0,0.0,0.0,0.0,0.0,0.0,0.0,0.0,0.0,0.0,0.0,0.0,0.0,0.0,0.0,0.0,0.0,0.0,0.0,0.0,0.0,0.0,0.0,0.0,0.0,0.0,0.0,0.0,0.0,0.0,0.0,0.0,0.0,0.0,0.0,0.0,0.0,0.0,0.0,0.0,0.0,0.0,0.0,0.0,0.0,0.0,0.0,0.0,0.0,0.0,0.0,0.0,0.0,0.0,0.0,0.0,0.0,0.0,0.0,0.0,0.0,0.0,0.0,0.0,0.0,0.0,0.0,0.0,0.0,0.0,0.0,0.0,0.0,0.0,0.0,0.0,0.0,0.0,0.0,0.0,0.0,0.0,0.0,0.0,0.0,0.0,0.0,0.0,0.0,0.0,0.0,0.0,0.0,0.0,0.0,0.0,0.0,0.0,0.0,0.0,0.0,0.0,0.0,0.0,0.0,0.0,0.0,0.0,0.0,0.0,0.0,0.0,0.0,0.0,0.0,0.0,0.0,0.0,0.0,0.0,0.0,0.0,0.0,0.0,0.0,0.0,0.0,0.0,0.0,0.0,0.0,0.0,0.0,0.0,0.0,0.0,0.0,0.0,0.0,0.0,0.0,0.0,0.0,0.0,0.0,0.0,0.0,0.0,0.0,0.0,0.0,0.0,0.0,0.0,0.0,0.0,0.0,0.0,0.0,0.0,0.0,0.0,0.0,0.0,0.0,0.0,0.0,0.0,0.0,0.0,0.0,0.0,0.0,0.0,0.0,0.0,0.0,0.0,0.0,0.0,0.0,0.0,0.0,0.0,0.0,0.0,0.0,0.0,0.0,0.0,0.0,0.0,0.0,0.0,0.0,0.0,0.0,0.0,0.0,0.0,0.0,0.0,0.0,0.0,0.0,0.0,0.0,0.0,0.0,0.0,0.0,0.0,0.0,0.0,0.0,0.0,0.0,0.0,0.0,0.0,0.0,0.0,0.0,0.0,0.0,0.0,0.0,0.0,0.0,0.0,0.0,0.0,0.0,0.0,0.0,0.0,0.0,0.0,0.0,0.0,0.0,0.0,0.0,0.0,0.0,0.0,0.0,0.0,0.0,0.0,0.0,0.0,0.0,0.0,0.0,0.0,0.0,0.0,0.0,0.0,0.0,0.0,0.0,0.0,0.0,0.0,0.0,0.0,0.0,0.0,0.0,0.0,0.0,0.0,0.0,0.0,0.0,0.0,0.0,0.0,0.0,0.0,0.0,0.0,0.0,0.0,0.0,0.0,0.0,0.0,0.0,0.0,0.0,0.0,0.0,0.0,0.0,0.0,0.0,0.0,0.0,0.0,0.0,0.0,0.0,0.0,0.0,0.0,0.0,0.0,0.0,0.0,0.0,0.0,0.0,0.0,0.0,0.0,0.0,0.0,0.0,0.0,0.0,0.0,0.0,0.0,0.0,0.0,0.0,0.0,0.0,0.0,0.0,0.0,0.0,0.0,0.0,0.0,0.0,0.0,0.0,0.0,0.0,0.0,0.0,0.0,0.0,0.0,0.0,0.0,0.0,0.0,0.0,0.0,0.0,0.0,0.0,0.0,0.0,0.0,0.0,0.0,0.0,0.0,0.0,0.0,0.0,0.0,0.0,0.0,0.0,0.0,0.0,0.0,0.0,0.0,0.0,0.0,0.0,0.0,0.0,0.0,0.0,0.0,0.0,0.0,0.0,0.0,0.0,0.0,0.0,0.0,0.0,0.0,0.0,0.0,0.0,0.0,0.0,0.0,0.0,0.0,0.0,0.0,0.0,0.0,0.0,0.0,0.0,0.0,0.0,0.0,0.0,0.0,0.0,0.0,0.0,0.0,0.0,0.0,0.0,0.0,0.0,0.0,0.0,0.0,0.0,0.0,0.0,0.0,0.0,0.0,0.0,0.0,0.0,0.0,0.0,0.0,0.0,0.0,0.0,0.0,0.0,0.0,0.0,0.0,0.0,0.0,0.0,0.0,0.0,0.0,0.0,0.0,0.0,0.0,0.0,0.0,0.0,0.0,0.0,0.0,0.0,0.0,0.0,0.0,0.0,0.0,0.0,0.0,0.0,0.0,0.0,0.0,0.0,0.0,0.0,0.0,0.0,0.0,0.0,0.0,0.0,0.0,0.0,0.0,0.0,0.0,0.0,0.0,0.0,0.0,0.0,0.0,0.0,0.0,0.0,0.0,0.0,0.0,0.0,0.0,0.0,0.0,0.0,0.0,0.0,0.0,0.0,0.0,0.0,0.0,0.0,0.0,0.0,0.0,0.0,0.0,0.0,0.0,0.0,0.0,0.0,0.0,0.0,0.0,0.0,0.0,0.0,0.0,0.0,0.0,0.0,0.0,0.0,0.0,0.0,0.0,0.0,0.0,0.0,0.0,0.0,0.0,0.0,0.0,0.0,0.0,0.0,0.0,0.0,0.0,0.0,0.0,0.0,0.0,0.0,0.0,0.0,0.0,0.0,0.0,0.0,0.0,0.0,0.0,0.0,0.0,0.0,0.0,0.0,0.0,0.0,0.0,0.0,0.0,0.0,0.0,0.0,0.0,0.0,0.0,0.0,0.0,0.0,0.0,0.0,0.0,0.0,0.0,0.0,0.0,0.0,0.0,0.0,0.0,0.0,0.0,0.0,0.0,0.0,0.0,0.0,0.0,0.0,0.0,0.0,0.0,0.0,0.0,0.0,0.0,0.0,0.0,0.0,0.0,0.0,0.0,0.0,0.0,0.0,0.0,0.0,0.0,0.0,0.0,0.0,0.0,0.0,0.0,0.0,0.0,0.0,0.0,0.0,0.0,0.0,0.0,0.0,0.0,0.0,0.0,0.0,0.0,0.0,0.0,0.0,0.0,0.0,0.0,0.0,0.0,0.0,0.0,0.0,0.0,0.0,0.0,0.0,0.0,0.0,0.0,0.0,0.0,0.0,0.0,0.0,0.0,0.0,0.0,0.0,0.0,0.0,0.0,0.0,0.0,0.0,0.0,0.0,0.0,0.0,0.0,0.0,0.0,0.0,0.0,0.0,0.0,0.0,0.0,0.0,0.0,0.0,0.0,0.0,0.0,0.0,0.0,0.0,0.0,0.0,0.0,0.0,0.0,0.0,0.0,0.0,0.0,0.0,0.0,0.0,0.0,0.0,0.0,0.0,0.0,0.0,0.0,0.0,0.0,0.0,0.0,5.109,0.0,0.0,0.0,0.0,0.0,0.0,0.0,0.0,0.0,0.0,0.0,0.0,0.0,0.0,0.0,0.0,0.0,0.0,0.0,0.0,0.0,0.0,0.0,0.0,0.0,0.0,0.0,0.0,0.0,0.0,0.0,0.0,0.0,0.0,0.0,0.0,0.0,0.0,0.0,0.0,0.0,0.0,0.0,0.0,0.0,0.0,0.0,0.0,0.0,0.0,0.0,0.0,0.0,0.0,0.0,0.0,0.0,0.0,0.0,0.0,0.0,0.0,0.0,0.0,0.0,0.0,0.0,0.0,0.0,0.0,0.0,0.0,0.0,0.0,0.0,0.0,0.0,0.0,0.0,0.0,0.0,0.0,0.0,0.0,0.0,0.0,0.0,0.0,0.0,0.0,0.0,0.0,0.0,0.0,0.0,0.0,0.0,0.0,0.0,0.0,0.0,0.0,0.0,0.0,0.0,0.0,0.0,0.0,0.0,0.0,5.2248,5.2421,5.1799,5.1741,5.2373,0.0,0.0,0.0,0.0,0.0,0.0,0.0,0.0,0.0,0.0,0.0,0.0,0.0,0.0,0.0,0.0,0.0,0.0,0.0,0.0,0.0,0.0,0.0,0.0,0.0,0.0,0.0,0.0,0.0,0.0,0.0,0.0,0.0,0.0,0.0,0.0,0.0,0.0,0.0,0.0,0.0,0.0,0.0,0.0,0.0,0.0,0.0,0.0,0.0,0.0,0.0,0.0,0.0,0.0,0.0,0.0,0.0,0.0,0.0,0.0,0.0,0.0,0.0,0.0,0.0,0.0,0.0,0.0,0.0,0.0,0.0,0.0,0.0,0.0,0.0,0.0,0.0,0.0,0.0,0.0,0.0,0.0,0.0,0.0,0.0,0.0,0.0,0.0,0.0,0.0,0.0,0.0,0.0,0.0,0.0,0.0,0.0,0.0,0.0,0.0,0.0,0.0,0.0,0.0,0.0,0.0,0.0,0.0,0.0,0.0,0.0,0.0,5.2448,5.2553,5.3444,0.0,0.0,0.0,0.0,0.0,0.0,0.0,0.0,0.0,0.0,0.0,0.0,0.0,0.0,0.0,0.0,0.0,0.0,0.0,0.0,0.0,0.0,0.0,0.0,0.0,0.0,0.0,0.0,0.0,0.0,0.0,0.0,0.0,0.0,0.0,0.0,0.0,0.0,0.0,0.0,0.0,0.0,0.0,0.0,0.0,0.0,0.0,0.0,0.0,0.0,0.0,0.0,0.0,0.0,0.0,0.0,0.0,0.0,0.0,0.0,0.0,0.0,0.0,0.0,0.0,0.0,0.0,0.0,0.0,0.0,0.0,0.0,0.0,0.0,0.0,0.0,0.0,0.0,0.0,0.0,0.0,0.0,0.0,0.0,0.0,0.0,0.0,0.0,0.0,0.0,0.0,0.0,0.0,0.0,0.0,0.0,0.0,0.0,0.0,0.0,0.0,0.0,0.0,0.0,0.0,0.0,0.0,0.0,0.0,0.0,5.2658,5.2817,5.2864,0.0,5.3471,0.0,0.0,0.0,0.0,0.0,0.0,0.0,0.0,0.0,0.0,0.0,0.0,0.0,0.0,0.0,0.0,0.0,0.0,0.0,0.0,0.0,0.0,0.0,0.0,0.0,0.0,0.0,0.0,0.0,0.0,0.0,0.0,0.0,0.0,0.0,0.0,0.0,0.0,0.0,0.0,0.0,0.0,0.0,0.0,0.0,0.0,0.0,0.0,0.0,0.0,0.0,0.0,0.0,0.0,0.0,0.0,0.0,0.0,0.0,0.0,0.0,0.0,0.0,0.0,0.0,0.0,0.0,0.0,0.0,0.0,0.0,0.0,0.0,0.0,0.0,0.0,0.0,0.0,0.0,0.0,0.0,0.0,0.0,0.0,0.0,0.0,0.0,0.0,0.0,0.0,0.0,0.0,0.0,0.0,0.0,0.0,0.0,0.0,0.0,0.0,0.0,0.0,0.0,0.0,0.0,0.0,0.0,0.0,0.0,0.0,5.2581,5.2694,5.2959,5.3261,0.0,0.0,0.0,0.0,0.0,0.0,0.0,0.0,0.0,0.0,0.0,0.0,0.0,0.0,0.0,0.0,0.0,0.0,0.0,0.0,0.0,0.0,0.0,0.0,0.0,0.0,0.0,0.0,0.0,0.0,0.0,0.0,0.0,0.0,0.0,0.0,0.0,0.0,0.0,0.0,0.0,0.0,0.0,0.0,0.0,0.0,0.0,0.0,0.0,0.0,0.0,0.0,0.0,0.0,0.0,0.0,0.0,0.0,0.0,0.0,0.0,0.0,0.0,0.0,0.0,0.0,0.0,0.0,0.0,0.0,0.0,0.0,0.0,0.0,0.0,0.0,0.0,0.0,0.0,0.0,0.0,0.0,0.0,0.0,0.0,0.0,0.0,0.0,0.0,0.0,0.0,0.0,0.0,0.0,0.0,0.0,0.0,0.0,0.0,0.0,0.0,0.0,0.0,0.0,0.0,0.0,0.0,0.0,0.0,0.0,5.248,5.2561,5.2647,5.297,5.3225,5.343,0.0,0.0,0.0,0.0,0.0,0.0,0.0,0.0,0.0,0.0,0.0,0.0,0.0,0.0,0.0,0.0,0.0,0.0,0.0,0.0,0.0,0.0,0.0,0.0,0.0,0.0,0.0,0.0,0.0,0.0,0.0,0.0,0.0,0.0,0.0,0.0,0.0,0.0,0.0,0.0,0.0,0.0,0.0,0.0,0.0,0.0,0.0,0.0,0.0,0.0,0.0,0.0,0.0,0.0,0.0,0.0,0.0,0.0,0.0,0.0,0.0,0.0,0.0,0.0,0.0,0.0,0.0,0.0,0.0,0.0,0.0,0.0,0.0,0.0,0.0,0.0,0.0,0.0,0.0,0.0,0.0,0.0,0.0,0.0,0.0,0.0,0.0,0.0,0.0,0.0,0.0,0.0,0.0,0.0,0.0,0.0,0.0,0.0,0.0,0.0,0.0,0.0,0.0,0.0,0.0,0.0,0.0,0.0,5.2516,5.2516,5.2595,5.2856,5.2963,5.3098,0.0,0.0,0.0,0.0,0.0,0.0,0.0,0.0,0.0,0.0,0.0,0.0,0.0,0.0,0.0,0.0,0.0,0.0,0.0,0.0,0.0,0.0,0.0,0.0,0.0,0.0,0.0,0.0,0.0,0.0,0.0,0.0,0.0,0.0,0.0,0.0,0.0,0.0,0.0,0.0,0.0,0.0,0.0,0.0,0.0,0.0,0.0,0.0,0.0,0.0,0.0,0.0,0.0,0.0,0.0,0.0,0.0,0.0,0.0,0.0,0.0,0.0,0.0,0.0,0.0,0.0,0.0,0.0,0.0,0.0,0.0,0.0,0.0,0.0,0.0,0.0,0.0,0.0,0.0,0.0,0.0,0.0,0.0,0.0,0.0,0.0,0.0,0.0,0.0,0.0,0.0,0.0,0.0,0.0,0.0,0.0,0.0,0.0,0.0,0.0,0.0,0.0,0.0,0.0,0.0,0.0,0.0,0.0,0.0,5.3277,5.3784,5.4119,5.4314,5.4371,5.4294,0.0,0.0,0.0,0.0,0.0,0.0,0.0,0.0,0.0,0.0,0.0,0.0,0.0,0.0,0.0,0.0,0.0,0.0,0.0,0.0,0.0,0.0,0.0,0.0,0.0,0.0,0.0,0.0,0.0,0.0,0.0,0.0,0.0,0.0,0.0,0.0,0.0,0.0,0.0,0.0,0.0,0.0,0.0,0.0,0.0,0.0,0.0,0.0,0.0,0.0,0.0,0.0,0.0,0.0,0.0,0.0,0.0,0.0,0.0,0.0,0.0,0.0,0.0,0.0,0.0,0.0,0.0,0.0,0.0,0.0,0.0,0.0,0.0,0.0,0.0,0.0,0.0,0.0,0.0,0.0,0.0,0.0,0.0,0.0,0.0,0.0,0.0,0.0,0.0,0.0,0.0,0.0,0.0,0.0,0.0,0.0,0.0,0.0,0.0,0.0,0.0,0.0,0.0,0.0,0.0,0.0,0.0,0.0,0.0,5.4436,0.0,5.5753,5.5967,5.5711,5.546,0.0,0.0,0.0,0.0,0.0,0.0,0.0,0.0,0.0,0.0,0.0,0.0,0.0,0.0,0.0,0.0,0.0,0.0,0.0,0.0,0.0,0.0,0.0,0.0,0.0,0.0,0.0,0.0,0.0,0.0,0.0,0.0,0.0,0.0,0.0,0.0,0.0,0.0,0.0,0.0,0.0,0.0,0.0,0.0,0.0,0.0,0.0,0.0,0.0,0.0,0.0,0.0,0.0,0.0,0.0,0.0,0.0,0.0,0.0,0.0,0.0,0.0,0.0,0.0,0.0,0.0,0.0,0.0,0.0,0.0,0.0,0.0,0.0,0.0,0.0,0.0,0.0,0.0,0.0,0.0,0.0,0.0,0.0,0.0,0.0,0.0,0.0,0.0,0.0,0.0,0.0,0.0,0.0,0.0,0.0,0.0,0.0,0.0,0.0,0.0,0.0,0.0,0.0,0.0,0.0,0.0,0.0,0.0,5.4581,5.6042,5.6875,5.7435,5.7607,5.6963,5.6595,0.0,0.0,0.0,0.0,0.0,0.0,0.0,0.0,0.0,0.0,0.0,0.0,0.0,0.0,0.0,0.0,0.0,0.0,0.0,0.0,0.0,0.0,0.0,0.0,0.0,0.0,0.0,0.0,0.0,0.0,0.0,0.0,0.0,0.0,0.0,0.0,0.0,0.0,0.0,0.0,0.0,0.0,0.0,0.0,0.0,0.0,0.0,0.0,0.0,0.0,0.0,0.0,0.0,0.0,0.0,0.0,0.0,0.0,0.0,0.0,0.0,0.0,0.0,0.0,0.0,0.0,0.0,0.0,0.0,0.0,0.0,0.0,0.0,0.0,0.0,0.0,0.0,0.0,0.0,0.0,0.0,0.0,0.0,0.0,0.0,0.0,0.0,0.0,0.0,0.0,0.0,0.0,0.0,0.0,0.0,0.0,0.0,0.0,0.0,0.0,0.0,0.0,0.0,0.0,0.0,0.0,0.0,0.0,0.0,5.9325,5.9647,5.9885,6.005,5.9943,5.9151,0.0,0.0,0.0,0.0,0.0,0.0,0.0,0.0,0.0,0.0,0.0,0.0,0.0,0.0,0.0,0.0,0.0,0.0,0.0,0.0,0.0,0.0,0.0,0.0,0.0,0.0,0.0,0.0,0.0,0.0,0.0,0.0,0.0,0.0,0.0,0.0,0.0,0.0,0.0,0.0,0.0,0.0,0.0,0.0,0.0,0.0,0.0,0.0,0.0,0.0,0.0,0.0,0.0,0.0,0.0,0.0,0.0,0.0,0.0,0.0,0.0,0.0,0.0,0.0,0.0,0.0,0.0,0.0,0.0,0.0,0.0,0.0,0.0,0.0,0.0,0.0,0.0,0.0,0.0,0.0,0.0,0.0,0.0,0.0,0.0,0.0,0.0,0.0,0.0,0.0,0.0,0.0,0.0,0.0,0.0,0.0,0.0,0.0,0.0,0.0,0.0,0.0,0.0,0.0,0.0,0.0,0.0,0.0,0.0,6.308,6.2671,6.249,6.2657,6.2126,6.1214,5.982,0.0,0.0,0.0,0.0,0.0,0.0,0.0,0.0,0.0,0.0,0.0,0.0,0.0,0.0,0.0,0.0,0.0,0.0,0.0,0.0,0.0,0.0,0.0,0.0,0.0,0.0,0.0,0.0,0.0,0.0,0.0,0.0,0.0,0.0,0.0,0.0,0.0,0.0,0.0,0.0,0.0,0.0,0.0,0.0,0.0,0.0,0.0,0.0,0.0,0.0,0.0,0.0,0.0,0.0,0.0,0.0,0.0,0.0,0.0,0.0,0.0,0.0,0.0,0.0,0.0,0.0,0.0,0.0,0.0,0.0,0.0,0.0,0.0,0.0,0.0,0.0,0.0,0.0,0.0,0.0,0.0,0.0,0.0,0.0,0.0,0.0,0.0,0.0,0.0,0.0,0.0,0.0,0.0,0.0,0.0,0.0,0.0,0.0,0.0,0.0,0.0,0.0,0.0,0.0,0.0,0.0,0.0,0.0,6.7048,6.5783,6.5131,6.5214,6.3677,6.2826,0.0,0.0,0.0,0.0,0.0,0.0,0.0,0.0,0.0,0.0,0.0,0.0,0.0,0.0,0.0,0.0,0.0,0.0,0.0,0.0,0.0,0.0,0.0,0.0,0.0,0.0,0.0,0.0,0.0,0.0,0.0,0.0,0.0,0.0,0.0,0.0,0.0,0.0,0.0,0.0,0.0,0.0,0.0,0.0,0.0,0.0,0.0,0.0,0.0,0.0,0.0,0.0,0.0,0.0,0.0,0.0,0.0,0.0,0.0,0.0,0.0,0.0,0.0,0.0,0.0,0.0,0.0,0.0,0.0,0.0,0.0,0.0,0.0,0.0,0.0,0.0,0.0,0.0,0.0,0.0,0.0,0.0,0.0,0.0,0.0,0.0,0.0,0.0,0.0,0.0,0.0,0.0,0.0,0.0,0.0,0.0,0.0,0.0,0.0,0.0,0.0,0.0,0.0,0.0,0.0,0.0,0.0,0.0,0.0,6.8177,6.8536,6.8138,6.6898,6.5966,6.4639,0.0,0.0,0.0,0.0,0.0,0.0,0.0,0.0,0.0,0.0,0.0,0.0,0.0,0.0,0.0,0.0,0.0,0.0,0.0,0.0,0.0,0.0,0.0,0.0,0.0,0.0,0.0,0.0,0.0,0.0,0.0,0.0,0.0,0.0,0.0,0.0,0.0,0.0,0.0,0.0,0.0,0.0,0.0,0.0,0.0,0.0,0.0,0.0,0.0,0.0,0.0,0.0,0.0,0.0,0.0,0.0,0.0,0.0,0.0,0.0,0.0,0.0,0.0,0.0,0.0,0.0,0.0,0.0,0.0,0.0,0.0,0.0,0.0,0.0,0.0,0.0,0.0,0.0,0.0,0.0,0.0,0.0,0.0,0.0,0.0,0.0,0.0,0.0,0.0,0.0,0.0,0.0,0.0,0.0,0.0,0.0,0.0,0.0,0.0,0.0,0.0,0.0,0.0,0.0,0.0,0.0,0.0,0.0,6.8733,7.0681,7.0993,7.0618,6.9617,6.8234,6.6696,0.0,0.0,0.0,0.0,0.0,0.0,0.0,0.0,0.0,0.0,0.0,0.0,0.0,0.0,0.0,0.0,0.0,0.0,0.0,0.0,0.0,0.0,0.0,0.0,0.0,0.0,0.0,0.0,0.0,0.0,0.0,0.0,0.0,0.0,0.0,0.0,0.0,0.0,0.0,0.0,0.0,0.0,0.0,0.0,0.0,0.0,0.0,0.0,0.0,0.0,0.0,0.0,0.0,0.0,0.0,0.0,0.0,0.0,0.0,0.0,0.0,0.0,0.0,0.0,0.0,0.0,0.0,0.0,0.0,0.0,0.0,0.0,0.0,0.0,0.0,0.0,0.0,0.0,0.0,0.0,0.0,0.0,0.0,0.0,0.0,0.0,0.0,0.0,0.0,0.0,0.0,0.0,0.0,0.0,0.0,0.0,0.0,0.0,0.0,0.0,0.0,0.0,0.0,0.0,0.0,0.0,0.0,0.0,7.0405,7.3405,7.3039,7.2767,7.273,7.0403,6.8678,0.0,0.0,0.0,0.0,0.0,0.0,0.0,0.0,0.0,0.0,0.0,0.0,0.0,0.0,0.0,0.0,0.0,0.0,0.0,0.0,0.0,0.0,0.0,0.0,0.0,0.0,0.0,0.0,0.0,0.0,0.0,0.0,0.0,0.0,0.0,0.0,0.0,0.0,0.0,0.0,0.0,0.0,0.0,0.0,0.0,0.0,0.0,0.0,0.0,0.0,0.0,0.0,0.0,0.0,0.0,0.0,0.0,0.0,0.0,0.0,0.0,0.0,0.0,0.0,0.0,0.0,0.0,0.0,0.0,0.0,0.0,0.0,0.0,0.0,0.0,0.0,0.0,0.0,0.0,0.0,0.0,0.0,0.0,0.0,0.0,0.0,0.0,0.0,0.0,0.0,0.0,0.0,0.0,0.0,0.0,0.0,0.0,0.0,0.0,0.0,0.0,0.0,0.0,0.0,0.0,0.0,0.0,0.0,7.2197,7.3604,7.4301,7.4631,7.4631,7.2149,6.9816,0.0,0.0,0.0,0.0,0.0,0.0,0.0,0.0,0.0,0.0,0.0,0.0,0.0,0.0,0.0,0.0,0.0,0.0,0.0,0.0,0.0,0.0,0.0,0.0,0.0,0.0,0.0,0.0,0.0,0.0,0.0,0.0,0.0,0.0,0.0,0.0,0.0,0.0,0.0,0.0,0.0,0.0,0.0,0.0,0.0,0.0,0.0,0.0,6.015,0.0,0.0,0.0,0.0,0.0,0.0,0.0,0.0,0.0,0.0,0.0,0.0,0.0,0.0,0.0,0.0,0.0,0.0,0.0,0.0,0.0,0.0,0.0,0.0,0.0,0.0,0.0,0.0,0.0,0.0,0.0,0.0,0.0,0.0,0.0,0.0,0.0,0.0,0.0,0.0,0.0,0.0,0.0,0.0,0.0,0.0,0.0,0.0,0.0,0.0,0.0,0.0,0.0,0.0,0.0,0.0,0.0,0.0,0.0,7.3971,7.6029,7.6656,7.6818,7.6412,7.4704,7.2672,0.0,0.0,0.0,0.0,0.0,0.0,0.0,0.0,0.0,0.0,0.0,0.0,0.0,0.0,0.0,0.0,0.0,0.0,0.0,0.0,0.0,0.0,0.0,0.0,0.0,0.0,0.0,0.0,0.0,0.0,0.0,0.0,0.0,0.0,0.0,0.0,0.0,0.0,0.0,0.0,0.0,0.0,0.0,0.0,0.0,0.0,0.0,0.0,0.0,0.0,0.0,0.0,0.0,0.0,0.0,0.0,0.0,0.0,0.0,0.0,0.0,0.0,0.0,0.0,0.0,0.0,0.0,0.0,0.0,0.0,0.0,0.0,0.0,0.0,0.0,0.0,0.0,0.0,0.0,0.0,0.0,0.0,0.0,0.0,0.0,0.0,0.0,0.0,0.0,0.0,0.0,0.0,0.0,0.0,0.0,0.0,0.0,0.0,0.0,0.0,0.0,0.0,0.0,0.0,0.0,0.0,0.0,7.3648,7.5743,7.8498,7.9061,7.8891,7.8078,7.7293,7.5828,7.3576,0.0,0.0,0.0,0.0,0.0,0.0,0.0,0.0,0.0,0.0,0.0,0.0,0.0,0.0,0.0,0.0,0.0,0.0,0.0,0.0,0.0,0.0,0.0,0.0,0.0,0.0,0.0,0.0,0.0,0.0,0.0,0.0,0.0,0.0,0.0,0.0,0.0,0.0,5.7663,6.0054,0.0,0.0,0.0,0.0,0.0,0.0,0.0,0.0,6.4567,0.0,0.0,0.0,0.0,0.0,0.0,0.0,0.0,0.0,0.0,0.0,0.0,0.0,0.0,0.0,0.0,0.0,0.0,0.0,0.0,0.0,0.0,0.0,0.0,0.0,0.0,0.0,0.0,0.0,0.0,0.0,0.0,0.0,0.0,0.0,0.0,0.0,0.0,0.0,0.0,0.0,0.0,0.0,0.0,0.0,0.0,0.0,0.0,0.0,0.0,0.0,0.0,0.0,0.0,0.0,0.0,7.2445,7.5514,7.743,7.7976,7.9585,8.0062,7.9246,7.8555,7.7412,7.5604,0.0,0.0,0.0,0.0,0.0,0.0,0.0,0.0,0.0,0.0,0.0,0.0,0.0,0.0,0.0,0.0,0.0,0.0,0.0,0.0,0.0,0.0,0.0,0.0,0.0,0.0,0.0,0.0,0.0,0.0,0.0,0.0,0.0,0.0,0.0,0.0,0.0,0.0,0.0,6.2883,6.4897,0.0,0.0,0.0,0.0,0.0,0.0,0.0,0.0,6.6109,0.0,0.0,0.0,0.0,0.0,0.0,0.0,0.0,0.0,0.0,0.0,0.0,0.0,0.0,0.0,0.0,0.0,0.0,0.0,0.0,0.0,0.0,0.0,0.0,0.0,0.0,0.0,0.0,0.0,0.0,0.0,0.0,0.0,0.0,0.0,0.0,0.0,0.0,0.0,0.0,0.0,0.0,0.0,0.0,0.0,0.0,0.0,0.0,0.0,0.0,0.0,0.0,0.0,0.0,0.0,7.3577,7.619,7.8141,7.938,8.0409,8.0782,8.0372,7.962,7.8269,0.0,0.0,0.0,0.0,0.0,0.0,0.0,0.0,0.0,0.0,0.0,0.0,0.0,0.0,0.0,0.0,0.0,0.0,0.0,0.0,0.0,0.0,0.0,0.0,0.0,0.0,0.0,0.0,0.0,0.0,0.0,0.0,0.0,0.0,0.0,0.0,0.0,0.0,0.0,0.0,6.5087,6.712,6.8098,0.0,0.0,0.0,0.0,0.0,0.0,6.8252,6.8282,0.0,0.0,0.0,0.0,0.0,0.0,0.0,0.0,0.0,0.0,0.0,0.0,0.0,0.0,0.0,0.0,0.0,0.0,0.0,0.0,0.0,0.0,0.0,0.0,0.0,0.0,0.0,0.0,0.0,0.0,0.0,0.0,0.0,0.0,0.0,0.0,0.0,0.0,0.0,0.0,0.0,0.0,0.0,0.0,0.0,0.0,0.0,0.0,0.0,0.0,0.0,0.0,0.0,0.0,0.0,7.5152,7.7159,7.909,8.0943,8.154,8.1719,8.1532,8.0709,7.9113,0.0,0.0,0.0,0.0,0.0,0.0,0.0,0.0,0.0,0.0,0.0,0.0,0.0,0.0,0.0,0.0,0.0,0.0,0.0,0.0,0.0,0.0,0.0,0.0,0.0,0.0,0.0,0.0,0.0,0.0,0.0,0.0,0.0,0.0,0.0,0.0,0.0,0.0,0.0,0.0,0.0,6.9557,7.0599,7.0785,0.0,0.0,0.0,0.0,7.0183,7.0518,0.0,0.0,0.0,0.0,0.0,0.0,0.0,0.0,0.0,0.0,0.0,0.0,0.0,0.0,0.0,0.0,0.0,0.0,0.0,0.0,0.0,0.0,0.0,0.0,0.0,0.0,0.0,0.0,0.0,0.0,0.0,0.0,0.0,0.0,0.0,0.0,0.0,0.0,0.0,0.0,0.0,0.0,0.0,0.0,0.0,0.0,0.0,0.0,0.0,0.0,0.0,0.0,0.0,0.0,0.0,0.0,7.7217,7.9741,8.1142,8.148,8.2998,8.3488,8.2824,8.1997,8.0466,0.0,0.0,0.0,0.0,0.0,0.0,0.0,0.0,0.0,0.0,0.0,0.0,0.0,0.0,0.0,0.0,0.0,0.0,0.0,0.0,0.0,0.0,0.0,0.0,0.0,0.0,0.0,0.0,0.0,0.0,0.0,0.0,0.0,0.0,0.0,0.0,0.0,0.0,0.0,0.0,0.0,7.319,7.4238,7.4387,7.4325,0.0,0.0,0.0,7.3801,7.3015,0.0,0.0,0.0,0.0,0.0,0.0,0.0,0.0,0.0,0.0,0.0,0.0,0.0,0.0,0.0,0.0,0.0,0.0,0.0,0.0,0.0,0.0,0.0,0.0,0.0,0.0,0.0,0.0,0.0,0.0,0.0,0.0,0.0,0.0,0.0,0.0,0.0,0.0,0.0,0.0,0.0,0.0,0.0,0.0,0.0,0.0,0.0,0.0,0.0,0.0,0.0,0.0,0.0,0.0,0.0,7.5166,7.8586,8.0252,8.1518,8.2546,8.3349,8.3598,8.333,8.2499,8.0946,0.0,0.0,0.0,0.0,0.0,0.0,0.0,0.0,0.0,0.0,0.0,0.0,0.0,0.0,0.0,0.0,0.0,0.0,0.0,0.0,0.0,0.0,0.0,0.0,0.0,0.0,0.0,0.0,0.0,0.0,0.0,0.0,0.0,0.0,0.0,0.0,0.0,0.0,0.0,0.0,0.0,0.0,7.5732,7.5943,0.0,0.0,0.0,7.5729,7.5922,0.0,0.0,0.0,0.0,0.0,0.0,0.0,0.0,0.0,0.0,0.0,0.0,0.0,0.0,0.0,0.0,0.0,0.0,0.0,0.0,0.0,0.0,0.0,0.0,0.0,0.0,0.0,0.0,0.0,0.0,0.0,0.0,0.0,0.0,0.0,0.0,0.0,0.0,0.0,0.0,0.0,0.0,0.0,0.0,0.0,0.0,0.0,0.0,0.0,0.0,0.0,0.0,0.0,0.0,0.0,0.0,0.0,7.991,8.1018,8.2274,8.3767,8.3843,8.4002,8.4283,8.3296,0.0,0.0,0.0,0.0,0.0,0.0,0.0,0.0,0.0,0.0,0.0,0.0,0.0,0.0,0.0,0.0,0.0,0.0,0.0,0.0,0.0,0.0,0.0,0.0,0.0,0.0,0.0,5.9499,0.0,0.0,0.0,0.0,0.0,0.0,0.0,0.0,0.0,0.0,0.0,0.0,0.0,0.0,7.5594,7.7724,7.7786,7.7876,0.0,0.0,7.7779,7.7774,7.7071,7.6104,0.0,0.0,0.0,0.0,0.0,0.0,0.0,0.0,0.0,0.0,0.0,0.0,0.0,0.0,0.0,0.0,0.0,0.0,0.0,0.0,0.0,0.0,0.0,0.0,0.0,0.0,0.0,0.0,0.0,0.0,0.0,0.0,0.0,0.0,0.0,0.0,0.0,0.0,0.0,0.0,0.0,0.0,0.0,0.0,0.0,0.0,0.0,0.0,0.0,0.0,0.0,0.0,0.0,0.0,0.0,8.1209,8.2932,8.4187,8.5045,8.5111,8.5491,8.6236,8.4752,8.3029,0.0,0.0,0.0,0.0,0.0,0.0,0.0,0.0,0.0,0.0,0.0,0.0,0.0,0.0,0.0,0.0,0.0,0.0,0.0,0.0,0.0,0.0,0.0,0.0,0.0,0.0,0.0,0.0,0.0,0.0,0.0,0.0,0.0,0.0,0.0,0.0,0.0,0.0,0.0,0.0,0.0,7.8601,8.1275,8.096,8.0638,0.0,0.0,8.0904,7.9893,7.8925,7.7994,7.705,0.0,0.0,0.0,0.0,0.0,0.0,0.0,0.0,0.0,0.0,0.0,0.0,0.0,0.0,0.0,0.0,0.0,0.0,0.0,0.0,0.0,0.0,0.0,0.0,0.0,0.0,0.0,0.0,0.0,0.0,0.0,0.0,0.0,0.0,0.0,0.0,0.0,0.0,0.0,0.0,0.0,0.0,0.0,0.0,0.0,0.0,0.0,0.0,0.0,0.0,0.0,0.0,0.0,7.8932,8.2164,8.3898,8.4957,8.5336,8.6316,8.657,8.6026,8.5377,8.426,0.0,0.0,0.0,0.0,0.0,0.0,0.0,0.0,0.0,0.0,0.0,0.0,0.0,0.0,0.0,0.0,0.0,0.0,0.0,0.0,0.0,0.0,0.0,0.0,0.0,0.0,0.0,0.0,6.5854,6.6439,6.6652,0.0,0.0,0.0,0.0,0.0,0.0,0.0,0.0,0.0,0.0,7.9549,8.1688,8.17,0.0,0.0,8.2084,8.1708,8.1704,8.0872,7.9741,7.8207,7.7202,0.0,0.0,0.0,0.0,0.0,0.0,0.0,0.0,0.0,0.0,0.0,0.0,0.0,0.0,0.0,0.0,0.0,0.0,0.0,0.0,0.0,0.0,0.0,0.0,0.0,0.0,0.0,0.0,0.0,0.0,0.0,0.0,0.0,0.0,0.0,0.0,0.0,0.0,0.0,0.0,0.0,0.0,0.0,0.0,0.0,0.0,0.0,0.0,0.0,0.0,0.0,0.0,8.0144,8.3155,8.4882,8.5925,8.6304,8.745,8.7673,8.6901,8.6374,8.5445,0.0,0.0,0.0,0.0,0.0,0.0,0.0,0.0,0.0,0.0,0.0,0.0,0.0,0.0,0.0,0.0,0.0,0.0,0.0,0.0,0.0,0.0,0.0,0.0,0.0,0.0,0.0,0.0,6.7998,6.828,6.8199,0.0,0.0,0.0,0.0,0.0,0.0,0.0,0.0,0.0,0.0,8.0679,8.295,8.2883,8.297,8.3982,8.3296,8.276,8.2975,8.2385,8.1392,7.9748,0.0,0.0,0.0,0.0,0.0,0.0,0.0,0.0,0.0,0.0,0.0,0.0,0.0,0.0,0.0,0.0,0.0,0.0,0.0,0.0,0.0,0.0,0.0,0.0,0.0,0.0,0.0,0.0,0.0,0.0,0.0,0.0,0.0,0.0,0.0,0.0,0.0,0.0,0.0,0.0,0.0,0.0,0.0,0.0,0.0,0.0,0.0,0.0,0.0,0.0,0.0,0.0,0.0,8.2445,8.4346,8.6069,8.7389,8.8289,8.8385,8.8768,8.9382,8.7924,8.6668,8.5719,0.0,0.0,0.0,0.0,0.0,0.0,0.0,0.0,0.0,0.0,0.0,0.0,0.0,0.0,0.0,0.0,0.0,0.0,0.0,0.0,0.0,0.0,0.0,0.0,0.0,0.0,7.0612,7.04,7.0237,0.0,0.0,0.0,0.0,0.0,0.0,0.0,0.0,0.0,0.0,8.0409,8.233,8.5667,8.4942,8.4535,8.5994,8.5375,8.4464,8.359,8.3308,8.2847,0.0,0.0,0.0,0.0,0.0,0.0,0.0,0.0,0.0,0.0,0.0,0.0,0.0,0.0,0.0,0.0,0.0,0.0,0.0,0.0,0.0,0.0,0.0,0.0,0.0,0.0,0.0,7.4359,7.4009,0.0,0.0,0.0,0.0,0.0,0.0,0.0,0.0,0.0,0.0,0.0,8.0881,8.1738,0.0,0.0,0.0,0.0,0.0,0.0,0.0,0.0,0.0,0.0,0.0,0.0,8.3439,8.531,8.7034,8.8088,8.8394,8.9497,8.9688,8.8899,8.887,8.7958,8.5961,0.0,0.0,0.0,0.0,0.0,0.0,0.0,0.0,0.0,0.0,0.0,0.0,0.0,0.0,0.0,0.0,0.0,0.0,0.0,0.0,0.0,0.0,0.0,0.0,0.0,7.2518,0.0,0.0,0.0,0.0,0.0,0.0,0.0,0.0,0.0,0.0,0.0,7.7866,8.0253,8.2434,8.4486,8.6192,8.6464,8.6655,0.0,0.0,0.0,0.0,0.0,0.0,0.0,0.0,0.0,0.0,0.0,0.0,0.0,0.0,7.8278,7.5197,7.436,7.4397,7.5068,0.0,0.0,0.0,0.0,0.0,0.0,0.0,0.0,0.0,0.0,0.0,0.0,0.0,0.0,0.0,0.0,7.7492,0.0,0.0,0.0,0.0,0.0,0.0,0.0,0.0,8.4265,8.5128,8.5495,8.6334,8.6563,0.0,8.607,8.4465,0.0,0.0,0.0,0.0,0.0,0.0,0.0,0.0,8.4718,8.6283,8.8248,8.9303,8.9417,9.0981,9.124,8.9929,8.9853,8.8661,8.6125,8.4434,8.2441,0.0,0.0,0.0,0.0,0.0,0.0,0.0,0.0,0.0,0.0,0.0,0.0,0.0,0.0,0.0,0.0,0.0,0.0,0.0,0.0,0.0,0.0,0.0,7.5235,0.0,0.0,0.0,0.0,0.0,0.0,0.0,0.0,0.0,7.5857,7.7916,8.0141,8.2228,8.4339,8.6094,8.7236,0.0,0.0,0.0,0.0,0.0,0.0,0.0,8.7672,8.707,8.6787,8.6533,8.6178,8.6057,8.5909,8.5634,0.0,0.0,7.9129,7.8039,7.8038,7.8749,7.8773,7.8869,7.9533,7.9652,7.9897,0.0,0.0,0.0,0.0,0.0,0.0,0.0,0.0,8.5115,8.4649,0.0,8.2944,0.0,0.0,0.0,0.0,0.0,0.0,0.0,0.0,8.8801,8.9732,9.0576,8.9935,9.0012,9.0701,9.0024,8.964,8.9286,8.4372,0.0,0.0,0.0,0.0,0.0,0.0,8.6368,8.7417,8.9769,9.1121,9.1317,9.2864,9.3287,9.2441,9.0816,8.8816,8.6401,8.6124,8.4514,8.1242,8.0243,0.0,0.0,0.0,0.0,0.0,0.0,0.0,0.0,0.0,0.0,0.0,0.0,0.0,0.0,0.0,0.0,0.0,0.0,0.0,0.0,7.7462,0.0,0.0,0.0,0.0,0.0,0.0,0.0,0.0,0.0,0.0,7.8911,8.0255,8.2228,8.4866,0.0,0.0,0.0,0.0,8.8874,9.043,8.9849,8.9517,9.0356,8.9724,8.9162,8.9151,0.0,0.0,8.8801,8.893,8.9111,8.9751,8.9704,8.8104,8.2975,8.1735,8.1587,8.2291,8.2379,8.2502,8.3157,8.3365,8.3544,9.3721,0.0,0.0,0.0,0.0,8.8166,8.853,8.871,8.8216,8.7851,8.7529,8.6002,0.0,0.0,0.0,0.0,0.0,0.0,8.8424,9.0119,9.0992,9.1509,9.1778,9.2113,9.242,9.2611,9.2411,9.1999,9.1385,8.9908,8.7906,8.5551,0.0,0.0,0.0,0.0,8.9116,9.008,9.1405,9.2337,9.2979,9.348,9.3326,9.2518,9.1402,9.0201,8.8855,8.7055,8.5615,8.4629,8.2619,0.0,0.0,0.0,0.0,0.0,0.0,0.0,0.0,0.0,0.0,0.0,0.0,0.0,0.0,0.0,0.0,0.0,0.0,0.0,8.034,8.0169,8.0163,0.0,0.0,0.0,0.0,0.0,0.0,0.0,0.0,0.0,8.3486,8.3956,8.4674,0.0,0.0,8.9624,9.012,9.103,9.1854,9.2312,0.0,0.0,0.0,9.2029,9.1877,9.1799,9.1597,9.1472,9.1705,9.1663,9.167,9.1851,9.1708,9.0991,8.9604,8.791,8.6964,8.7028,8.6949,8.6881,8.7018,8.7063,8.7085,9.995,9.685,9.3764,9.2509,9.2509,9.2601,9.2744,9.293,9.2192,9.189,9.1778,9.0374,8.962,8.9358,8.8731,0.0,0.0,0.0,9.22,9.3524,9.434,9.4762,9.4791,9.5242,9.5472,9.5433,9.5175,9.4772,9.4312,9.3966,9.2776,9.074,0.0,0.0,8.8862,9.0207,9.1157,9.1748,9.2903,9.3719,9.422,9.422,9.3989,9.348,9.2326,9.1287,9.0432,8.8286,8.6824,8.6132,8.4275,8.285,0.0,0.0,0.0,0.0,0.0,0.0,0.0,0.0,0.0,0.0,0.0,7.2711,7.4788,0.0,0.0,0.0,8.0524,8.1444,8.2488,8.2113,0.0,0.0,0.0,0.0,0.0,0.0,0.0,8.2787,8.3897,8.515,8.6585,8.7245,8.7758,8.8155,8.9884,9.1204,9.1548,0.0,9.3229,9.3573,9.3601,9.3704,9.3944,9.3759,9.3502,9.3055,9.2967,9.325,9.3816,9.3823,9.3994,9.4506,9.4538,9.4427,9.4439,9.3326,9.1838,9.048,9.0093,8.9982,8.9863,8.9797,8.9806,10.4861,10.3624,9.8943,9.6746,9.6391,9.6419,9.6841,9.7455,9.6677,9.6421,9.6424,9.55,9.4628,9.386,9.3793,0.0,0.0,9.5854,9.672,9.773,9.8398,9.8744,9.8796,9.8796,9.8758,9.8681,9.801,9.7673,9.7519,9.6826,9.6519,9.6403,9.3244,9.163,9.1663,9.2479,9.2903,9.2903,9.448,9.5297,9.522,9.5181,9.5143,9.4989,9.345,9.2172,9.1287,8.9671,8.8017,8.6401,8.5517,8.4637,8.364,0.0,0.0,0.0,0.0,0.0,0.0,0.0,0.0,0.0,0.0,0.0,0.0,0.0,0.0,0.0,8.3256,0.0,8.3742,8.3742,0.0,0.0,0.0,8.3733,8.3712,8.4432,8.4931,8.4931,0.0,0.0,0.0,0.0,9.1088,9.1056,9.1604,9.2344,9.3087,9.3393,9.3699,9.4567,9.467,9.4976,9.5664,9.5243,9.4594,9.3945,9.3497,9.4141,9.5337,9.562,9.6221,9.7281,9.7664,9.7614,9.769,9.7174,9.6321,9.3042,9.2393,9.2326,9.2264,9.2222,9.2152,10.8825,10.8381,10.5959,10.2945,9.9843,9.9794,9.9909,10.0063,9.9909,9.9805,9.9787,9.8884,9.7695,9.6334,9.6394,9.6884,9.7691,9.8,9.8923,10.0327,10.0528,10.0653,10.0673,10.0673,10.0327,9.976,9.9548,9.9144,9.8519,9.8288,9.8211,9.8173,9.7346,9.6308,9.5163,9.5903,9.6288,9.6326,9.7365,9.7557,9.6942,9.6903,9.6297,9.5027,9.395,9.3018,9.221,9.0517,8.9133,8.8141,8.7248,8.6124,8.4637,8.4071,0.0,0.0,0.0,0.0,0.0,0.0,0.0,0.0,0.0,7.8761,8.0156,0.0,8.37,0.0,8.5599,8.6714,8.7351,8.7427,0.0,0.0,8.7427,8.7419,8.7427,8.762,8.7726,8.7735,8.9187,9.0302,9.0524,9.193,9.3179,9.3716,9.3896,9.4035,9.4182,9.5308,9.6107,9.6308,9.6745,9.7268,9.7383,9.7345,9.7077,9.6924,9.6886,9.7066,9.7387,9.7452,9.7605,9.7952,9.7908,9.7861,9.7887,9.7728,9.7388,9.649,9.5976,9.5701,9.5659,9.5607,9.5593,11.2252,11.1791,11.0483,10.8266,10.5546,10.4048,10.3395,10.3434,10.3434,10.3203,10.2781,10.1925,10.1052,10.0207,10.0258,10.0518,10.0941,10.1038,10.1597,10.2443,10.2481,10.2443,10.2481,10.2443,10.2212,10.1789,10.1799,10.1529,10.1096,10.1058,10.1058,10.1058,10.1058,10.0596,9.9673,9.8634,9.8096,9.8096,9.8557,9.8557,9.8096,9.7711,9.7057,9.6143,9.4912,9.3903,9.3056,9.1402,8.994,8.8756,8.7863,8.6786,8.5508,8.5044,8.4156,0.0,0.0,0.0,0.0,0.0,0.0,0.0,0.0,0.0,0.0,0.0,8.5659,0.0,8.744,0.0,8.8641,8.8679,8.8872,8.921,8.9248,8.9363,8.9748,9.0171,9.0402,9.0411,9.1518,9.2326,9.2364,9.3434,9.4368,9.4858,9.5502,9.5875,9.5811,9.6535,9.7193,9.756,9.7965,9.8177,9.812,9.8071,9.8071,9.8071,9.8071,9.8223,9.8579,9.8693,9.877,9.9102,9.9132,9.9085,9.9124,9.8978,9.8906,9.8857,9.8617,9.8075,9.7258,9.7066,9.7052,11.5176,11.4407,11.3445,11.2637,11.1752,10.8664,10.7203,10.6856,10.6895,10.6405,10.5559,10.4828,10.4482,10.4405,10.4366,10.4405,10.4366,10.4366,10.4443,10.452,10.452,10.4559,10.452,10.452,10.4443,10.4212,10.4212,10.4174,10.4069,10.3943,10.3943,10.402,10.3943,10.3905,10.3751,10.0943,9.9404,9.9288,9.9288,9.9173,9.8981,9.8211,9.7711,9.7442,9.598,9.472,9.371,9.221,9.0594,8.8949,8.8132,8.7325,8.6478,8.5786,8.5283,0.0,8.4409,0.0,0.0,0.0,0.0,0.0,0.0,0.0,0.0,8.6324,8.7132,8.8872,8.9026,8.9103,8.9325,8.9334,8.9594,9.0316,9.0393,9.071,9.1441,9.221,9.2672,9.2672,9.3364,9.3873,9.3864,9.4643,9.5181,9.548,9.6509,9.7366,9.7564,9.7618,9.7904,9.8595,9.8664,9.8785,9.8658,9.8536,9.8525,9.8475,9.8541,9.8682,9.9419,9.9534,9.9763,10.0375,10.0477,10.0516,10.0604,10.0471,10.0399,10.0273,10.0175,9.9607,9.8236,9.7816,9.7571,11.7215,11.6946,11.5445,11.4714,11.4484,11.3137,11.1368,10.9483,10.9483,10.8983,10.8175,10.8021,10.7598,10.7021,10.6982,10.6982,10.6982,10.6982,10.7328,10.7944,10.7944,10.7944,10.7944,10.7944,10.7251,10.5982,10.5933,10.5559,10.4866,10.4222,10.4212,10.4838,10.4212,10.3905,10.3866,0.0,0.0,0.0,10.1904,10.1212,9.9913,9.9683,9.8942,9.7557,9.6557,0.0,9.3758,9.2749,9.1441,8.9778,8.9509,0.0,0.0,0.0,0.0,0.0,0.0,0.0,0.0,0.0,0.0,0.0,8.7154,8.7115,8.6247,8.7363,8.891,9.0556,9.071,9.1287,9.2633,9.2749,9.2826,9.2941,9.2979,9.3056,9.3249,9.3403,9.348,9.348,9.4258,9.4758,9.4874,9.5518,9.6288,9.6903,9.7288,9.8048,9.9356,9.9344,9.9378,9.9526,9.9943,10.0431,10.0486,10.0322,10.0141,10.0282,10.0203,10.0157,10.031,10.0336,10.0336,10.0604,10.0604,10.0604,10.0604,10.058,10.0557,10.0569,10.0545,10.0347,9.9784,9.9657,9.9606,11.9677,0.0,11.7869,11.7176,0.0,11.6715,11.5291,11.3264,11.2406,11.156,11.0714,10.9906,10.9329,10.8906,10.8482,10.829,10.829,10.829,10.8482,10.8906,10.8906,10.8906,10.8906,10.8906,10.8444,10.7675,10.7636,10.7405,10.6944,10.6559,10.6559,10.6982,10.6559,10.6367,10.6367,10.5944,10.4943,10.3251,10.3251,10.2635,10.1404,10.0904,10.0096,9.8827,0.0,0.0,0.0,0.0,0.0,0.0,0.0,0.0,0.0,0.0,0.0,8.8102,8.8064,8.7825,8.744,8.8171,8.8624,8.8671,8.9825,9.0017,8.8709,9.0171,9.1518,9.2326,9.2441,9.2787,9.3595,9.3672,9.4057,9.4864,9.498,9.5249,9.6057,9.622,9.6211,9.6249,9.6596,9.6874,9.6874,9.7211,9.7673,9.8096,9.8519,9.9058,9.9904,10.0019,10.0065,10.0376,10.0739,10.1036,10.1011,10.0968,10.0913,10.0902,10.0831,10.0764,10.0708,10.0696,10.0673,10.0627,10.0604,10.0604,10.0604,10.0604,10.0604,10.0604,10.0604,10.0569,10.0387,10.0326,10.0278,12.1958,12.1677,12.0177,11.9446,11.9292,11.9138,11.8292,11.683,0.0,0.0,0.0,11.1445,11.0868,11.0829,11.0137,10.979,10.979,10.979,10.979,10.979,10.979,10.9713,10.9598,10.956,10.9483,10.9329,10.9213,10.9213,10.9329,10.906,10.8983,10.9098,10.8983,10.8906,10.8867,10.8213,10.6828,10.4674,10.4289,10.3712,10.2828,10.2135,10.1289,10.0337,9.8942,9.7634,9.6557,9.5672,9.4172,9.2018,9.171,9.1018,8.968,8.9603,8.9603,8.9564,8.9564,8.9603,8.9603,9.021,9.0547,9.0547,9.2172,9.2749,9.1748,9.2903,9.3826,9.4134,9.4134,9.4249,9.4557,9.4595,9.5172,9.6596,9.6749,9.7288,9.8567,9.8788,9.8634,9.8788,9.8634,9.875,9.8673,9.8673,9.8875,9.9058,9.9567,10.0183,10.0298,10.0366,10.0567,10.1026,10.116,10.1167,10.1095,10.1043,10.1043,10.1032,10.1021,10.0929,10.0891,10.082,10.0775,10.0662,10.0639,10.0627,10.0604,10.0604,10.0604,10.0604,10.0604,10.0604,10.0592,10.0521,10.0401,12.337,12.2639,12.1639,12.0831,12.0062,11.9369,11.8946,11.8446,11.5368,11.3945,11.3791,11.356,11.3445,11.3445,11.333,11.3291,11.3291,11.3291,11.3291,0.0,11.3291,11.2906,11.2203,11.2175,11.1791,11.1088,11.0406,11.0406,11.0895,10.9637,10.9252,10.9867,10.929,10.8944,10.8867,10.879,10.8213,10.7175,10.5674,10.452,10.3751,10.3597,10.2751,10.1212,10.0904,9.9673,9.7403,9.6557,9.5595,9.4527,9.3749,9.3258,9.3027,9.295,9.2979,9.2979,9.2979,9.2979,9.2988,9.3095,9.3172,9.3249,9.4788,9.5095,9.3518,9.3557,9.4326,9.5711,9.5942,9.6557,9.7827,9.7942,9.799,9.8365,9.8442,9.8557,9.8865,9.8865,9.8904,9.8904,9.8788,9.8865,9.8942,9.8904,9.9211,9.976,10.0106,10.0366,10.0904,10.1135,10.1164,10.1269,10.1259,10.125,10.121,10.1198,10.1157,10.1147,10.1074,10.1021,10.0989,10.094,10.0935,10.0787,10.0764,10.0719,10.0639,10.0604,10.0615,10.0615,10.0615,10.0604,10.0604,10.058,10.0521,12.4562,12.4178,12.3332,12.2485,12.1639,12.0292,11.9754,11.9562,11.7638,11.6792,11.6676,11.5792,11.533,11.5291,11.4407,11.3984,11.3984,11.3984,11.3984,11.3984,11.3984,11.3791,11.3445,11.3407,11.3214,11.2829,11.2483,11.2445,11.2753,11.2022,11.1868,11.2186,11.147,11.107,11.1083,11.0206,10.958,10.9205,10.7912,10.6419,10.4725,10.5168,10.4619,10.2914,10.1999,10.0958,9.9764,9.8501,9.7413,9.6574,9.5688,9.5033,9.4609,9.4099,9.3877,9.3877,9.3868,9.3877,9.3868,9.4716,9.5649,9.6574,9.7292,9.741,9.6601,9.6479,9.6788,9.7557,9.7673,9.7942,9.8711,9.8788,9.899,9.949,9.949,9.9673,10.0058,10.0173,10.0135,10.0135,10.0173,10.0173,10.0173,10.0173,10.025,10.0712,10.075,10.0904,10.1241,10.1279,10.1279,10.1279,10.1279,10.1279,10.1279,10.1288,10.1258,10.1258,10.1218,10.1157,10.1116,10.1106,10.1053,10.0957,10.0924,10.0902,10.0798,10.078,10.0719,10.0696,10.0639,10.0615,10.0604,10.0604,10.058,12.5755,12.5332,12.4678,12.3947,12.3062,12.1523,12.0908,12.0793,12.0023,11.9677,11.9408,11.7842,11.7072,11.6946,11.5715,11.5061,11.4868,11.4868,11.4753,11.4561,11.4561,11.4445,11.4291,11.4291,11.4302,11.4286,11.4143,11.4153,11.429,11.4175,11.4059,11.3993,11.35,11.3234,11.3275,11.2002,11.1269,11.1038,11.0594,10.9013,10.6334,10.6911,10.6446,10.4826,10.3476,10.2597,10.2134,10.0578,9.939,9.8695,9.7669,9.6836,9.6219,9.5562,9.5176,9.5215,9.5191,9.5175,9.5236,9.6346,9.7667,9.8979,9.9171,9.9204,9.9242,9.9333,9.9336,9.9144,9.9067,9.9135,9.9404,9.9404,9.9635,10.0298,10.0375,10.0596,10.1164,10.1279,10.1279,10.1279,10.1279,10.1241,10.1279,10.1279,10.1241,10.1202,10.1279,10.1279,10.1279,10.1279,10.1279,10.1279,10.1279,10.1279,10.1279,10.1279,10.1279,10.1279,10.1269,10.124,10.1228,10.1208,10.1167,10.1074,10.1043,10.1021,10.1011,10.0935,10.088,10.082,10.0742,10.065,10.0604,10.0604,10.0604,12.6794,12.5486,12.5344,12.4793,12.392,12.3024,12.2651,12.2524,12.1754,12.137,12.1162,11.96,11.8881,11.8831,11.86,11.8061,11.7407,11.7446,11.7023,11.6341,11.6264,11.588,11.5314,11.5226,11.5231,11.5251,11.4645,11.4802,11.5424,11.474,11.4287,11.4287,11.4181,11.4163,11.4134,11.398,11.3517,11.2793,11.3648,11.2373,10.9108,10.8945,10.8182,10.6523,10.634,10.552,10.4043,10.2358,10.1443,10.1211,9.9862,9.9011,9.8895,9.8818,9.8779,9.8702,9.8671,9.8706,9.8601,9.8739,9.8948,9.9133,9.9819,10.0187,10.0226,10.0903,10.0947,10.0317,10.0038,10.026,10.0933,10.0971,10.0933,10.101,10.1087,10.125,10.1279,10.1279,10.1279,10.1279,10.1279,10.1279,10.1279,10.1279,10.1279,10.1279,10.1279,10.1279,10.1279,10.1279,10.1279,10.1279,10.1279,10.1279,10.1279,10.1279,10.1279,10.1279,10.1279,10.1269,10.1298,10.1288,10.1278,10.1188,10.1157,10.1126,10.1064,10.0951,10.1,10.0979,10.0853,10.0742,10.0639,10.0615,10.0615,12.7751,12.7057,12.6556,12.5862,12.4976,12.4205,12.382,12.3781,12.3473,12.3049,12.251,12.1816,12.0891,11.9792,11.9292,11.8903,11.8635,11.8635,11.8514,11.8232,11.8194,11.8039,11.778,11.7731,11.7724,11.7689,11.6918,11.6668,11.6853,11.6207,11.5842,11.588,11.5503,11.5288,11.5317,11.49,11.4474,11.4134,11.455,11.4046,11.2672,11.1541,11.0225,10.8677,10.8011,10.7199,10.6045,10.4799,10.3963,10.3459,10.2335,10.1497,10.0993,10.0451,9.9947,9.9514,9.9447,9.965,10.0085,10.0124,10.0317,10.0821,10.1115,10.1437,10.1893,10.2233,10.236,10.2412,10.1576,10.1048,10.1299,10.1317,10.1279,10.1279,10.1279,10.1279,10.1279,10.1279,10.1279,10.1279,10.1279,10.1279,10.1279,10.1279,10.1279,10.1279,10.1279,10.1279,10.1279,10.1279,10.1279,10.1279,10.1279,10.1279,10.1279,10.1279,10.1279,10.1279,10.1279,10.1279,10.1279,10.1279,10.1259,10.1258,10.1258,10.1248,10.1218,10.1137,10.1106,10.1085,10.1021,10.0902,10.0742,10.0708,10.0685,12.8862,12.8515,12.7743,12.6856,12.6007,12.5197,12.4811,12.4773,12.458,12.4155,12.3577,12.3538,12.2796,12.1419,12.0357,11.9785,11.963,11.9602,11.9529,11.941,11.9371,11.9371,11.9371,11.9371,11.944,11.9375,11.8806,11.8527,11.8537,11.8005,11.7733,11.7772,11.7054,11.6697,11.6732,11.6004,11.5577,11.5616,11.56,11.5491,11.5104,11.4047,11.2489,11.0668,10.9885,10.9032,10.7946,10.7076,10.6275,10.5454,10.4621,10.3781,10.2927,10.2268,10.1641,10.111,10.1033,10.1252,10.1852,10.1852,10.2123,10.2698,10.2722,10.2926,10.3375,10.3435,10.3653,10.3979,10.303,10.2285,10.204,10.1828,10.1664,10.1673,10.1471,10.1317,10.1279,10.1279,10.1279,10.1279,10.1279,10.1279,10.1279,10.1279,10.1279,10.1279,10.1279,10.1279,10.1279,10.1279,10.1279,10.1279,10.1279,10.1279,10.1279,10.1279,10.1279,10.1279,10.1279,10.1279,10.1279,10.1279,10.1279,10.1298,10.1269,10.1269,10.124,10.1238,10.1236,10.1167,10.1106,10.1011,10.0902,10.088,10.0787,13.0251,12.9452,12.8603,12.7738,12.6905,12.6029,12.5682,12.5637,12.492,12.4524,12.4496,12.4457,12.4397,12.4089,12.2468,12.1367,12.0721,12.0693,12.0328,11.9644,11.9518,11.942,11.9371,11.942,11.957,11.9897,11.9712,11.9678,11.9832,11.981,11.9865,11.9748,11.8895,11.8555,11.8423,11.7686,11.7291,11.7322,11.7336,11.7016,11.6364,11.6233,11.4853,11.2566,11.2141,11.1264,10.9829,10.8909,10.8089,10.7236,10.6518,10.57,10.4885,10.469,10.4472,10.4422,10.4448,10.4415,10.4368,10.4322,10.4393,10.4502,10.4372,10.4559,10.4552,10.4562,10.4574,10.445,10.4426,10.4164,10.3856,10.3097,10.2588,10.2424,10.1789,10.1404,10.1279,10.1279,10.1279,10.1279,10.1279,10.1279,10.1279,10.1279,10.1279,10.1279,10.1279,10.1279,10.1279,10.1279,10.1279,10.1317,10.1317,10.1317,10.1317,10.1317,10.1317,10.1279,10.1279,10.1279,10.1279,10.1279,10.1279,10.1279,10.1279,10.1279,10.1279,10.1298,10.1258,10.1228,10.1236,10.1116,10.1021,10.1,10.0946,13.0728,12.9915,12.9025,12.8512,12.8135,12.7273,12.6925,12.6886,12.6615,12.619,12.5764,12.5725,12.5377,12.4844,12.4225,12.3415,12.2566,12.2546,12.2109,12.1428,12.1399,12.136,12.1399,12.1399,12.1387,12.1409,12.0991,12.0474,12.0028,11.9997,12.0029,12.0037,11.9765,11.9633,11.96,11.9343,11.9209,11.918,11.8734,11.834,11.8068,11.7599,11.6576,11.5094,11.3884,11.277,11.1612,11.0858,11.0032,10.9182,10.8888,10.8083,10.6721,10.5555,10.4966,10.495,10.4944,10.4916,10.4897,10.4885,10.4866,10.4823,10.4784,10.5029,10.541,10.5525,10.563,10.6006,10.6139,10.6044,10.5602,10.4544,10.3385,10.2751,10.2386,10.1934,10.1452,10.1279,10.1279,10.1279,10.1279,10.1279,10.1279,10.1279,10.1279,10.1279,10.1279,10.1317,10.1317,10.1317,10.1394,10.1433,10.1789,10.2135,10.2135,10.1625,10.1317,10.1317,10.1279,10.1317,10.1317,10.1279,10.1279,10.1279,10.1279,10.1279,10.1279,10.1279,10.1288,10.1288,10.1258,10.1208,10.1137,10.1116,10.1053,13.1405,13.059,12.997,12.9418,12.8837,12.8255,12.7868,12.7635,12.7596,12.7286,12.686,12.6782,12.6433,12.5976,12.5962,12.5408,12.4481,12.4198,12.3824,12.3331,12.306,12.2905,12.2866,12.2633,12.2533,12.2488,12.2046,12.148,12.0976,12.0898,12.0936,12.1048,12.0776,12.0624,12.0646,12.0426,12.0296,12.0211,11.975,11.9463,11.9426,11.8998,11.8298,11.7364,11.5996,11.4657,11.3539,11.2717,11.1921,11.1143,11.0754,10.9976,10.8492,10.7329,10.6668,10.6668,10.6707,10.6536,10.6304,10.626,10.6122,10.5771,10.5713,10.5941,10.644,10.6421,10.6684,10.7076,10.7195,10.709,10.6805,10.5871,10.4713,10.3768,10.3337,10.2789,10.1924,10.176,10.1626,10.1366,10.1279,10.1279,10.1279,10.1279,10.1279,10.1279,10.1481,10.1712,10.1712,10.1981,10.2135,10.2212,10.2674,10.2981,10.302,10.2674,10.2135,10.2058,10.1856,10.1741,10.1471,10.1433,10.1356,10.1317,10.1279,10.1279,10.1279,10.1279,10.1279,10.1279,10.1269,10.1268,10.1238,10.1228,10.1157,13.2219,13.1538,13.1482,13.0491,12.925,12.8987,12.8419,12.7923,12.773,12.7746,12.7686,12.7583,12.7453,12.7483,12.7456,12.7193,12.637,12.5623,12.5117,12.4799,12.417,12.3821,12.3783,12.3139,12.2877,12.2946,12.2849,12.28,12.2683,12.2574,12.2608,12.2623,12.1929,12.1605,12.1716,12.1004,12.0549,12.0605,12.0527,12.0416,12.0405,12.0277,11.9816,11.9076,11.8292,11.7133,11.5445,11.4467,11.3582,11.2804,11.2059,11.1153,11.039,10.9889,10.9991,10.9773,10.9991,10.9636,10.893,10.8696,10.8268,10.777,10.7533,10.7538,10.7643,10.7479,10.7424,10.7456,10.7345,10.7273,10.7195,10.6959,10.6346,10.5506,10.4603,10.3787,10.2971,10.2703,10.2366,10.1741,10.1597,10.1394,10.1394,10.1587,10.1702,10.1779,10.2174,10.2597,10.2635,10.3097,10.3712,10.3751,10.3751,10.3866,10.3905,10.3866,10.3366,10.2943,10.2712,10.252,10.2097,10.1904,10.1741,10.1664,10.1356,10.1356,10.1279,10.1279,10.1279,10.1279,10.1279,10.1279,10.1259,10.1278,10.1258,13.3327,13.2473,13.1898,13.1355,13.0772,13.0221,12.9833,12.9522,12.9017,12.8738,12.8666,12.8129,12.7925,12.7928,12.8001,12.7853,12.758,12.7242,12.6526,12.5383,12.498,12.4824,12.4793,12.4565,12.4558,12.4509,12.4068,12.3847,12.3724,12.3251,12.2958,12.2893,12.2743,12.26,12.2584,12.2306,12.2224,12.2187,12.1685,12.1408,12.1427,12.089,12.0461,12.0232,11.9983,11.9281,11.813,11.6177,11.5046,11.4653,11.4462,11.3682,11.2279,11.0992,11.0368,11.0329,11.0329,11.022,10.997,10.9844,10.9739,10.9451,10.9332,10.9365,10.9277,10.8727,10.8376,10.8223,10.7728,10.73,10.7273,10.721,10.6774,10.57,10.5314,10.4782,10.3911,10.3645,10.3473,10.3243,10.3098,10.3097,10.3058,10.302,10.2943,10.2943,10.3289,10.3482,10.3558,10.3789,10.3866,10.3905,10.4251,10.4713,10.4751,10.4866,10.4751,10.4135,10.3751,10.3289,10.2828,10.2443,10.2289,10.1943,10.1625,10.1394,10.1356,10.1279,10.1279,10.1279,10.1279,10.1279,10.1279,10.1269,10.1288,13.4039,13.3494,13.26,13.2056,13.1752,13.1201,13.0812,13.054,12.9996,12.979,12.9629,12.8897,12.8534,12.8526,12.826,12.8104,12.8104,12.8104,12.7477,12.6387,12.5953,12.5875,12.5758,12.5533,12.5454,12.5419,12.4997,12.4763,12.4725,12.4219,12.3964,12.4003,12.4009,12.3841,12.3638,12.3604,12.3526,12.3143,12.2605,12.24,12.236,12.1942,12.1513,12.1243,12.1175,12.0753,11.9897,11.8307,11.7055,11.6217,11.5782,11.504,11.3948,11.297,11.2349,11.2271,11.2033,11.1741,11.1347,11.1031,11.0622,11.0368,11.025,11.023,11.0138,10.9581,10.9338,10.9205,10.8786,10.8213,10.7928,10.7766,10.728,10.6424,10.6231,10.5722,10.4906,10.4336,10.4088,10.3944,10.3916,10.3945,10.3926,10.3925,10.3876,10.3905,10.4174,10.4328,10.4405,10.4674,10.4713,10.4828,10.5251,10.5559,10.5636,10.579,10.6059,10.5443,10.4789,10.4174,10.3597,10.3289,10.3058,10.252,10.2097,10.1664,10.1548,10.1356,10.1279,10.1279,10.1279,10.1279,10.1279,10.1279,10.1269,13.4609,13.4415,13.363,13.2761,13.2067,13.1983,13.1594,13.0977,13.0783,13.075,13.0568,12.988,12.9497,12.9302,12.887,12.8519,12.8212,12.8313,12.8202,12.7796,12.7245,12.6889,12.6799,12.626,12.6005,12.5905,12.5711,12.5621,12.5605,12.541,12.5583,12.5479,12.5411,12.5334,12.4717,12.4669,12.4229,12.3573,12.3382,12.3346,12.3239,12.3239,12.2888,12.2111,12.2059,12.1684,12.0945,12.0415,11.9356,11.7319,11.6302,11.5759,11.5635,11.5632,11.5248,11.5134,11.4735,11.3916,11.3129,11.258,11.1874,11.1312,11.1062,11.052,11.0862,11.06,11.0269,11.0263,11.0,10.961,10.8971,10.8614,10.811,10.741,10.7004,10.6518,10.5791,10.4954,10.4707,10.4517,10.429,10.4186,10.4369,10.434,10.4291,10.4348,10.4848,10.5097,10.5251,10.5597,10.6164,10.6241,10.6049,10.6059,10.602,10.6059,10.6241,10.6059,10.5559,10.5136,10.452,10.4212,10.3712,10.3135,10.2712,10.2251,10.1827,10.1702,10.1433,10.1317,10.1317,10.1317,10.1317,10.1317,10.1356,13.566,13.4492,13.4259,13.3669,13.2929,13.2852,13.2735,13.2462,13.1846,13.1679,13.1535,13.0811,13.0501,13.0528,13.0338,12.9913,12.9393,12.9276,12.8895,12.8349,12.8159,12.7953,12.79,12.7694,12.754,12.7479,12.6894,12.6716,12.6599,12.6114,12.5823,12.577,12.5926,12.5742,12.5492,12.5495,12.5041,12.4358,12.4244,12.3983,12.3532,12.3415,12.3261,12.3108,12.2996,12.2569,12.1788,12.1132,12.0276,11.8895,11.7368,11.6668,11.6623,11.6119,11.5843,11.5765,11.5533,11.5252,11.4924,11.4648,11.4363,11.4224,11.3386,11.3255,11.3173,11.197,11.1381,11.1125,11.0634,11.0149,10.9788,10.9182,10.8367,10.7482,10.74,10.7144,10.6681,10.6445,10.6169,10.6091,10.5972,10.5849,10.5774,10.5746,10.5678,10.5746,10.5812,10.5954,10.6002,10.6059,10.6395,10.6395,10.628,10.6318,10.6356,10.6356,10.6356,10.6356,10.6164,10.6059,10.5559,10.5213,10.452,10.3789,10.3635,10.3251,10.2712,10.2366,10.1981,10.1702,10.1587,10.1712,10.1433,10.1356,10.1394,13.6632,13.5663,13.5312,13.465,13.3904,13.3865,13.3671,13.332,13.2853,13.2655,13.2546,13.1815,13.1494,13.1499,13.1148,13.0719,13.029,13.0251,12.9783,12.8963,12.857,12.8348,12.831,12.8345,12.837,12.8375,12.7875,12.7676,12.7555,12.713,12.6942,12.6995,12.6959,12.6771,12.64,12.6358,12.5973,12.5327,12.5174,12.4948,12.4533,12.4104,12.3948,12.383,12.3635,12.3089,12.2581,12.18,12.0942,11.9966,11.8795,11.8053,11.7975,11.7272,11.6806,11.6764,11.6452,11.6211,11.6124,11.5884,11.5645,11.5551,11.5107,11.4903,11.4582,11.3524,11.2746,11.2703,11.1849,11.1257,11.0688,10.9937,10.9188,10.871,10.8453,10.8062,10.7275,10.7014,10.699,10.694,10.6856,10.6777,10.6742,10.6698,10.6651,10.6536,10.6353,10.639,10.6399,10.6436,10.6472,10.6587,10.6587,10.6587,10.6587,10.6549,10.6433,10.6433,10.6395,10.6395,10.6213,10.5867,10.5328,10.4674,10.452,10.4212,10.3558,10.3135,10.302,10.2751,10.2443,10.2327,10.2251,10.1866,10.1866,13.7467,13.7311,13.657,13.5755,13.4967,13.4815,13.4331,13.3797,13.3551,13.352,13.3336,13.2755,13.2446,13.2411,13.1879,13.1283,13.1166,13.1173,13.0467,12.9691,12.9024,12.8591,12.8393,12.8421,12.8428,12.84,12.8393,12.8357,12.8247,12.8282,12.8371,12.8237,12.8321,12.8023,12.7448,12.73,12.6875,12.6248,12.609,12.5936,12.5665,12.5158,12.4845,12.4728,12.4026,12.3557,12.3206,12.262,12.1879,12.1137,12.0161,11.9614,11.9497,11.8873,11.8599,11.8404,11.7858,11.7389,11.7153,11.6645,11.6101,11.6133,11.596,11.5754,11.5554,11.4825,11.4296,11.4257,11.3573,11.255,11.1542,11.0741,11.0243,10.986,10.9921,10.9183,10.7992,10.7495,10.7452,10.7385,10.7339,10.718,10.7088,10.7039,10.7053,10.7652,10.7422,10.7432,10.7383,10.7382,10.7292,10.7136,10.701,10.6856,10.6818,10.6741,10.6597,10.6482,10.6395,10.6395,10.6395,10.6136,10.5867,10.5597,10.5366,10.4905,10.4261,10.3992,10.3943,10.3635,10.3212,10.3443,10.3674,10.302,10.2712,13.8013,13.7389,13.7194,13.6609,13.5794,13.5092,13.4744,13.451,13.3886,13.3674,13.357,13.3382,13.3316,13.3376,13.3025,13.2752,13.213,13.1974,13.1271,12.9866,12.9632,12.9044,12.8648,12.8555,12.8516,12.8489,12.8455,12.8497,12.8494,12.8492,12.85,12.8502,12.8502,12.839,12.82,12.8086,12.7773,12.711,12.6956,12.6641,12.6212,12.59,12.5704,12.5587,12.4845,12.4104,12.3518,12.3245,12.305,12.2542,12.1488,12.0629,12.0473,12.0278,12.0083,11.9888,11.938,11.8912,11.8795,11.8248,11.774,11.7662,11.715,11.6716,11.6638,11.5874,11.5392,11.5188,11.4494,11.335,11.2048,11.1511,11.1028,11.0575,11.0349,11.0161,10.9596,10.9339,10.9135,10.9102,10.9065,10.9105,10.8942,10.8775,10.8707,10.8744,10.8653,10.8598,10.8463,10.8299,10.8123,10.7841,10.7859,10.7783,10.7675,10.7559,10.729,10.7098,10.6982,10.6664,10.6664,10.6549,10.6367,10.6251,10.6174,10.5597,10.4943,10.4838,10.4789,10.4366,10.4059,10.4251,10.4289,10.3828,10.3597,13.8504,13.8113,13.8113,13.7606,13.6825,13.632,13.5891,13.5383,13.4603,13.4259,13.4151,13.388,13.3653,13.3702,13.3663,13.339,13.2999,13.253,13.1945,13.1047,13.0658,12.9955,12.9325,12.9073,12.8947,12.8635,12.8515,12.8515,12.8515,12.8515,12.8513,12.8515,12.8515,12.8513,12.8515,12.8515,12.8242,12.793,12.7812,12.7578,12.7227,12.6758,12.629,12.6056,12.5548,12.5041,12.4728,12.4221,12.4026,12.3674,12.2776,12.18,12.1371,12.102,12.0825,12.0668,12.0434,12.0395,12.0395,12.0005,11.9458,11.9419,11.8677,11.8053,11.7545,11.6792,11.6319,11.6077,11.5392,11.4299,11.3038,11.2407,11.1974,11.167,11.1452,11.1418,11.1216,11.0579,10.9935,10.9893,10.9742,10.9698,10.9717,10.9888,10.9677,10.9371,10.9257,10.9169,10.9021,10.8858,10.8829,10.8741,10.8816,10.8786,10.8657,10.8482,10.8175,10.8059,10.7982,10.7598,10.729,10.7098,10.6905,10.6674,10.6367,10.629,10.579,10.5713,10.5597,10.5482,10.529,10.5136,10.4943,10.4751,10.4559,13.8885,13.8885,13.8885,13.8455,13.783,13.7595,13.7125,13.6423,13.5449,13.4896,13.4823,13.4082,13.3685,13.369,13.3689,13.369,13.3495,13.3025,13.2476,13.2085,13.1538,13.0835,13.0247,12.9964,12.9717,12.8917,12.8596,12.8515,12.8515,12.8515,12.8515,12.8515,12.8515,12.8515,12.8515,12.8515,12.8476,12.8359,12.8359,12.8359,12.8242,12.7695,12.7071,12.6407,12.6212,12.6017,12.5704,12.5236,12.4885,12.4843,12.4182,12.3479,12.2698,12.1761,12.1215,12.1254,12.1137,12.1254,12.1488,12.1176,12.0668,12.0864,11.9966,11.9341,11.8677,11.7858,11.727,11.6914,11.6353,11.5431,11.4582,11.3951,11.3489,11.3323,11.3299,11.3256,11.2897,11.1744,11.1282,11.0537,11.0737,11.0795,11.0609,11.0583,11.0267,11.0027,10.9956,10.9866,10.9772,10.9721,10.9822,10.9957,11.0072,10.9704,10.9489,10.9301,10.9032,10.8647,10.8685,10.8329,10.7944,10.7905,10.7598,10.6703,10.6356,10.6318,10.6318,10.6136,10.6136,10.6395,10.6241,10.5818,10.5713,10.5713,10.552,13.8885,13.8885,13.8885,13.8807,13.8572,13.7908,13.7558,13.7127,13.5763,13.5019,13.4903,13.4082,13.3771,13.3693,13.3692,13.3692,13.3616,13.3383,13.3069,13.26,13.221,13.1741,13.1039,13.0918,13.0718,13.0319,12.9479,12.8757,12.8676,12.8515,12.8837,12.8635,12.8676,12.8676,12.8717,12.8554,12.8754,12.8871,12.8791,12.8788,12.8593,12.8281,12.7812,12.7071,12.6993,12.6758,12.6212,12.5939,12.5782,12.5743,12.5626,12.5431,12.4885,12.3713,12.305,12.2737,12.2191,12.2035,12.2228,12.1449,12.1332,12.1293,12.0668,12.0083,11.981,11.9029,11.8248,11.774,11.7189,11.6358,11.5512,11.5041,11.5101,11.5073,11.4935,11.491,11.4724,11.4294,11.3457,11.2394,11.2191,11.2109,11.2077,11.2009,11.1967,11.18,11.1585,11.1499,11.1361,11.1293,11.1261,11.1354,11.1443,11.0873,11.0292,11.0084,10.9811,10.9157,10.9003,10.879,10.8559,10.8675,10.829,10.7213,10.6587,10.651,10.6472,10.6433,10.651,10.6636,10.651,10.6433,10.6444,10.6367,10.6203,13.8901,13.8901,13.8901,13.8901,13.8823,13.8472,13.8276,13.8081,13.6909,13.6089,13.5503,13.4761,13.4097,13.3862,13.3745,13.3745,13.375,13.3745,13.3472,13.3159,13.3081,13.2652,13.1908,13.1789,13.1475,13.104,13.0244,12.984,12.984,12.9881,12.976,12.9842,12.984,12.984,12.9838,12.9947,12.9824,12.9783,12.9774,12.9572,12.914,12.883,12.8242,12.8008,12.7891,12.7656,12.7344,12.6758,12.6641,12.6524,12.6212,12.6056,12.5782,12.5314,12.4533,12.4026,12.3284,12.3011,12.3204,12.2659,12.2425,12.2581,12.184,12.1215,12.0825,12.0044,11.9185,11.8326,11.7545,11.6838,11.6358,11.5967,11.5682,11.562,11.5651,11.5626,11.5549,11.5534,11.4962,11.4197,11.4062,11.3961,11.3871,11.3858,11.3773,11.3608,11.3247,11.3049,11.2831,11.2636,11.2431,11.2263,11.2232,11.1906,11.1365,11.1227,11.098,11.0315,10.9717,10.9504,10.8983,10.9021,10.8406,10.7444,10.7059,10.7136,10.6549,10.6472,10.6664,10.6982,10.7098,10.7175,10.7136,10.7059,10.6933,13.8906,13.8906,13.8906,13.8906,13.8906,13.8906,13.8867,13.8711,13.7929,13.7031,13.625,13.5351,13.4531,13.3984,13.3789,13.3789,13.3789,13.3789,13.375,13.3711,13.3711,13.3359,13.2929,13.2655,13.2419,13.2066,13.1789,13.1431,13.0916,13.0876,13.1034,13.0877,13.1034,13.1114,13.0954,13.0826,13.1096,13.1128,13.108,13.0679,13.0054,12.9425,12.8913,12.8754,12.8752,12.8671,12.8242,12.7773,12.75,12.7305,12.6993,12.6563,12.6485,12.6329,12.59,12.5197,12.4221,12.4182,12.4179,12.3791,12.3245,12.3596,12.3245,12.2425,12.1722,12.0942,12.0083,11.8755,11.8053,11.7506,11.7228,11.6686,11.6365,11.6275,11.6303,11.6217,11.6347,11.6363,11.6417,11.5997,11.5886,11.5534,11.5223,11.4781,11.4544,11.4454,11.4142,11.4028,11.3831,11.3491,11.3274,11.2982,11.2822,11.2752,11.2552,11.2542,11.2287,11.1917,11.127,11.0854,10.9976,10.9213,10.8675,10.8444,10.8367,10.8329,10.7444,10.6933,10.7444,10.7829,10.7905,10.7944,10.7944,10.7905,10.779,13.8906,13.8906,13.8906,13.8906,13.8906,13.8906,13.8906,13.8789,13.8007,13.7109,13.625,13.539,13.4609,13.3945,13.3789,13.3789,13.3789,13.3789,13.3789,13.3789,13.3789,13.3711,13.3632,13.3632,13.3437,13.3125,13.3242,13.2495,13.1747,13.1392,13.1272,13.1313,13.1392,13.1193,13.1509,13.1504,13.1111,13.115,13.1187,13.1107,13.0948,13.0742,13.0266,12.983,12.9625,12.9381,12.8876,12.8522,12.8364,12.8322,12.8242,12.8164,12.8086,12.7461,12.7151,12.6485,12.5587,12.457,12.457,12.4026,12.3674,12.387,12.3323,12.2776,12.2386,12.1566,12.0512,11.9534,11.9185,11.8873,11.8404,11.8131,11.7972,11.797,11.7965,11.7956,11.7937,11.789,11.7869,11.7846,11.7748,11.6806,11.61,11.5629,11.5196,11.5149,11.5094,11.4991,11.4723,11.4377,11.4101,11.3856,11.3665,11.3601,11.3464,11.3458,11.316,11.306,11.2547,11.1956,11.1057,11.0217,11.0263,11.007,10.9916,10.956,10.8944,10.8636,10.8675,10.8675,10.8752,10.879,10.8752,10.8713,10.8675,13.8906,13.8906,13.8906,13.8906,13.8906,13.8906,13.8906,13.8828,13.8515,13.7578,13.6445,13.5937,13.5039,13.3984,13.3789,13.3789,13.3789,13.3789,13.3789,13.3789,13.3789,13.3789,13.3789,13.3789,13.3789,13.3789,13.375,13.3476,13.2695,13.2578,13.2617,13.2539,13.2578,13.2731,13.2456,13.257,13.2607,13.2488,13.2172,13.1856,13.1736,13.1382,13.0948,13.0558,13.055,13.0271,12.9957,12.944,12.928,12.9158,12.8876,12.8515,12.8437,12.8125,12.793,12.7812,12.6836,12.5743,12.4845,12.4377,12.4182,12.4026,12.3635,12.3635,12.3284,12.2308,12.1176,12.0317,12.0239,12.0005,11.977,11.9731,11.9731,11.9695,11.9458,11.9532,11.9483,11.9678,11.9665,11.9648,11.9468,11.8509,11.7655,11.7225,11.686,11.658,11.6312,11.5954,11.5594,11.5086,11.4889,11.4714,11.4616,11.4519,11.4358,11.4232,11.3669,11.3382,11.2986,11.2425,11.19,11.1435,11.12,11.112,11.0906,11.056,11.0252,10.9713,10.9213,10.9367,10.9637,10.9637,10.9637,10.9637,10.9483,13.8906,13.8906,13.8906,13.8906,13.8906,13.8906,13.8906,13.8906,13.8867,13.789,13.6523,13.5781,13.4843,13.4062,13.3789,13.3789,13.3789,13.3789,13.3789,13.3789,13.3789,13.3789,13.3789,13.3789,13.3789,13.3789,13.3789,13.3672,13.3711,13.3672,13.3593,13.3789,13.3515,13.3632,13.3711,13.3592,13.3512,13.3434,13.3001,13.2764,13.2646,13.2136,13.1782,13.1547,13.1429,13.1348,13.1034,13.0519,13.0159,12.9961,12.9358,12.8959,12.8917,12.8598,12.8398,12.8281,12.7656,12.6836,12.5782,12.5002,12.4416,12.4104,12.387,12.383,12.344,12.2698,12.2074,12.1215,12.1137,12.102,12.0864,12.0707,12.059,12.0512,12.059,12.0746,12.0785,12.0664,12.0505,12.03,12.0242,12.0426,11.9637,11.9129,11.8673,11.8184,11.7669,11.7058,11.6588,11.6099,11.5826,11.5675,11.5195,11.5081,11.4902,11.4666,11.4177,11.381,11.3409,11.2967,11.2483,11.193,11.1494,11.148,11.162,11.1329,11.0857,11.0252,10.9713,11.0175,11.0521,11.0521,11.0521,11.0483,11.0406,13.8906,13.8906,13.8906,13.8906,13.8906,13.8906,13.8906,13.8789,13.8828,13.7812,13.6093,13.4804,13.4101,13.3828,13.3789,13.3789,13.3789,13.3789,13.3789,13.3789,13.3789,13.3789,13.3789,13.3789,13.3789,13.3789,13.3789,13.3789,13.3789,13.3789,13.3789,13.3789,13.3789,13.3789,13.3789,13.3789,13.3789,13.3789,13.3515,13.3554,13.3515,13.3317,13.3002,13.2493,13.2292,13.1973,13.1193,13.1075,13.0995,13.0956,13.0198,12.9719,12.9639,12.9039,12.8796,12.8639,12.8398,12.7695,12.6875,12.5743,12.4845,12.4416,12.4026,12.3635,12.3401,12.3362,12.2815,12.2152,12.2035,12.1683,12.1254,12.0825,12.1215,12.1332,12.1488,12.1449,12.1449,12.1293,12.1134,12.0861,12.0971,12.1346,12.1224,12.06,11.9807,11.9297,11.8832,11.8262,11.792,11.7489,11.7024,11.6591,11.5876,11.5502,11.5279,11.5088,11.5102,11.4616,11.4018,11.3591,11.3131,11.2551,11.2251,11.1917,11.2019,11.1746,11.1626,11.1445,11.1329,11.1329,11.1368,11.1137,11.106,11.106,11.1137,13.8906,13.8906,13.8906,13.8906,13.8906,13.8906,13.8593,13.8125,13.8086,13.7109,13.5468,13.4336,13.3789,13.3789,13.3789,13.3789,13.3789,13.3789,13.3789,13.3789,13.3789,13.3789,13.3789,13.3789,13.3789,13.3789,13.3789,13.3789,13.3789,13.3867,13.3789,13.3789,13.3906,13.3789,13.3789,13.3867,13.3867,13.3828,13.3828,13.3789,13.3789,13.3789,13.3593,13.3358,13.3319,13.3122,13.277,13.2181,13.1984,13.1707,13.1034,13.0717,13.0478,12.976,12.9319,12.9158,12.8837,12.8361,12.793,12.6797,12.586,12.4609,12.3948,12.344,12.3596,12.344,12.3284,12.2972,12.2855,12.2503,12.2503,12.2425,12.2503,12.2425,12.2308,12.223,12.2152,12.2035,12.2035,12.1918,12.2228,12.2574,12.2296,12.19,12.1113,12.0356,11.9907,11.9489,11.9118,11.8743,11.8242,11.789,11.7226,11.69,11.671,11.6497,11.6228,11.553,11.4813,11.4517,11.4208,11.3931,11.3584,11.3052,11.2698,11.2761,11.2834,11.2917,11.2676,11.2175,11.1742,11.1434,11.1472,11.1665,11.178,13.875,13.8515,13.8515,13.8515,13.8515,13.8515,13.8047,13.7304,13.7226,13.6445,13.4961,13.4179,13.3789,13.3789,13.3789,13.3789,13.3789,13.3789,13.3789,13.3789,13.3789,13.3789,13.3789,13.3789,13.3789,13.3789,13.3789,13.3789,13.3828,13.4023,13.4218,13.4297,13.4375,13.4492,13.4218,13.414,13.414,13.414,13.3867,13.3828,13.3789,13.3789,13.3789,13.3711,13.3711,13.3672,13.3476,13.3084,13.2888,13.2535,13.2063,13.155,13.1193,13.0756,13.0159,12.9719,12.928,12.8837,12.8361,12.7617,12.6563,12.5314,12.4767,12.4338,12.4143,12.3948,12.383,12.3791,12.3596,12.3401,12.344,12.3206,12.3128,12.2933,12.2972,12.2933,12.2972,12.2894,12.3011,12.305,12.3245,12.3167,12.3047,12.2574,12.1809,12.0983,12.0395,12.0145,12.0015,11.965,11.932,11.9048,11.8796,11.8599,11.8474,11.7638,11.6904,11.6724,11.6143,11.5861,11.5575,11.5178,11.5059,11.4906,11.4555,11.4183,11.3955,11.3796,11.3236,11.2599,11.2406,11.2357,11.256,11.2791,11.2637,13.8359,13.7656,13.7617,13.7617,13.7539,13.7617,13.7148,13.6367,13.6211,13.5742,13.4804,13.4101,13.3789,13.3789,13.3789,13.3789,13.3789,13.3789,13.3789,13.3789,13.3789,13.3789,13.3789,13.3789,13.3789,13.3789,13.3828,13.3828,13.3906,13.4492,13.4804,13.5234,13.5586,13.5703,13.5078,13.4961,13.4961,13.4843,13.4179,13.3984,13.3789,13.3789,13.3789,13.3789,13.3789,13.3789,13.3711,13.3632,13.3476,13.3359,13.2812,13.2417,13.2299,13.1549,13.0835,13.0118,12.984,12.9319,12.8557,12.7698,12.6875,12.6095,12.5587,12.547,12.5548,12.5197,12.4687,12.4611,12.4182,12.3674,12.3518,12.3479,12.3557,12.3401,12.3401,12.3401,12.3401,12.3401,12.3401,12.3401,12.3401,12.3362,12.3362,12.3125,12.2332,12.1603,12.0948,12.0754,12.0864,12.0631,12.0346,12.0053,11.9855,11.9125,11.8747,11.8113,11.7608,11.7546,11.7026,11.6283,11.611,11.5854,11.5943,11.6325,11.5823,11.4892,11.4722,11.4637,11.4401,11.4253,11.3714,11.3637,11.3791,11.3714,11.3407,13.6992,13.6718,13.6757,13.6406,13.6015,13.6484,13.625,13.5429,13.4883,13.4453,13.4218,13.3867,13.3789,13.3789,13.3789,13.3789,13.3789,13.3789,13.3789,13.3789,13.3789,13.3789,13.3789,13.3789,13.3789,13.3789,13.3828,13.414,13.4648,13.5,13.5429,13.5898,13.664,13.6601,13.6093,13.5781,13.5664,13.5078,13.4687,13.4375,13.3867,13.3789,13.3789,13.3789,13.3789,13.3789,13.3789,13.3789,13.3789,13.3789,13.3281,13.3242,13.3086,13.2417,13.1826,13.1153,13.0717,12.9399,12.8757,12.8125,12.7695,12.6993,12.6446,12.6212,12.5939,12.5782,12.5587,12.5509,12.5158,12.4728,12.4455,12.4299,12.4182,12.3518,12.3401,12.3401,12.3401,12.3401,12.3401,12.3401,12.3401,12.3401,12.3401,12.3401,12.2767,12.2603,12.2071,12.2118,12.2236,12.1792,12.1374,12.1037,12.0634,11.9682,11.8971,11.8859,11.8305,11.7945,11.6847,11.5512,11.5546,11.6458,11.6125,11.6204,11.5891,11.5533,11.544,11.5467,11.6094,11.6099,11.5291,11.4599,11.4522,11.4253,11.3868,13.6093,13.5859,13.5859,13.5351,13.4804,13.5508,13.5351,13.4609,13.4023,13.3789,13.3789,13.3789,13.3789,13.3789,13.3789,13.3789,13.3789,13.3789,13.3789,13.3789,13.3789,13.3789,13.3789,13.3789,13.3789,13.3789,13.3867,13.4179,13.4922,13.5312,13.6132,13.7148,13.7734,13.7695,13.7304,13.6953,13.6328,13.5664,13.5195,13.4531,13.4023,13.3789,13.3789,13.3789,13.3789,13.3789,13.3789,13.3789,13.3789,13.3789,13.3789,13.3789,13.3554,13.3281,13.2734,13.2062,13.0835,12.9639,12.9119,12.8557,12.8127,12.7734,12.711,12.6915,12.6758,12.6641,12.6485,12.6368,12.6212,12.5782,12.5275,12.5119,12.4572,12.3909,12.3557,12.3596,12.344,12.344,12.3401,12.3401,12.3401,12.3401,12.3401,12.3401,12.3204,12.3238,12.3269,12.332,12.3253,12.2697,12.2176,12.1889,12.1722,12.1091,12.0492,12.0199,11.9487,11.8449,11.744,11.6381,11.6994,11.8113,11.7078,11.6272,11.6737,11.6866,11.6242,11.6269,11.6716,11.6787,11.633,11.5753,11.533,11.5099,11.4907,13.5703,13.5039,13.4961,13.4531,13.4023,13.4648,13.4531,13.3828,13.3828,13.3789,13.3789,13.3789,13.3789,13.3789,13.3789,13.3789,13.3789,13.3789,13.3789,13.3789,13.3789,13.3789,13.3789,13.3789,13.3789,13.3789,13.3906,13.4218,13.5039,13.5976,13.7187,13.832,13.8554,13.8554,13.8281,13.7734,13.6953,13.6132,13.5547,13.4765,13.4062,13.3789,13.3789,13.3789,13.3789,13.3789,13.3789,13.3789,13.3789,13.3789,13.3789,13.3789,13.3789,13.3789,13.3203,13.2259,13.0756,13.0278,12.9598,12.8959,12.8596,12.8322,12.8281,12.8398,12.8125,12.7578,12.7344,12.711,12.6915,12.6485,12.6056,12.5548,12.5041,12.4494,12.3987,12.3791,12.3635,12.3518,12.3401,12.3401,12.3401,12.3401,12.3401,12.3401,12.3401,12.3399,12.3355,12.3386,12.3286,12.2971,12.2563,12.2534,12.2451,12.261,12.2011,12.0974,12.0527,11.9415,11.9531,11.891,11.9534,11.9415,11.8741,11.8249,11.84,11.8255,11.7627,11.7213,11.7117,11.7112,11.7441,11.7061,11.6638,11.6715,11.6599,13.4326,13.4053,13.4053,13.3935,13.3779,13.3974,13.3941,13.3828,13.3789,13.3789,13.3789,13.3789,13.3789,13.3789,13.3789,13.3789,13.3789,13.3789,13.3789,13.3789,13.3789,13.3789,13.3789,13.3789,13.3789,13.3789,13.3906,13.4218,13.5195,13.6328,13.7578,13.8672,13.8632,13.8711,13.8437,13.8007,13.7109,13.6367,13.582,13.4961,13.414,13.3789,13.3789,13.3789,13.3789,13.3789,13.3789,13.3789,13.3789,13.3789,13.3789,13.3789,13.3789,13.375,13.3398,13.2535,13.1747,13.1232,13.0078,12.9559,12.9197,12.8676,12.8515,12.8515,12.8398,12.8242,12.8047,12.7812,12.7656,12.7305,12.6915,12.6407,12.5939,12.5431,12.4845,12.4377,12.4143,12.3791,12.3674,12.3401,12.3401,12.3401,12.3401,12.3401,12.3401,12.3401,12.3399,12.3394,12.3313,12.3035,12.2907,12.2842,12.2622,12.2587,12.1877,12.0847,12.079,12.0572,12.0504,12.0354,12.0082,11.9929,12.0043,11.9819,11.933,11.918,11.901,11.8571,11.8061,11.8734,11.9064,11.848,11.8061,11.7984,11.7984,13.3183,13.3183,13.3183,13.2987,13.2715,13.2676,13.2685,13.2848,13.3434,13.3747,13.3747,13.3789,13.3786,13.375,13.375,13.3789,13.3789,13.375,13.375,13.3789,13.3789,13.3789,13.3789,13.3789,13.3789,13.3789,13.3906,13.4218,13.5195,13.6211,13.7422,13.7695,13.7851,13.789,13.7617,13.7187,13.6601,13.6054,13.5547,13.4922,13.4336,13.3789,13.3789,13.3789,13.3789,13.3789,13.3789,13.3789,13.3789,13.3789,13.3789,13.3789,13.3789,13.375,13.3711,13.2967,13.2456,13.1904,13.1034,13.0118,12.9598,12.9078,12.8676,12.8515,12.8515,12.8437,12.8398,12.832,12.8359,12.8242,12.7812,12.7383,12.6954,12.6524,12.5782,12.508,12.465,12.4221,12.387,12.3479,12.3401,12.3401,12.3401,12.3401,12.3401,12.3401,12.3401,12.3399,12.336,12.3201,12.3079,12.3066,12.2656,12.2284,12.1615,12.1292,12.128,12.1145,12.0655,12.051,12.036,12.0322,12.0286,12.0122,11.9815,11.9755,11.9724,11.9482,11.9196,11.9795,12.0121,11.968,11.9096,11.8792,11.8831,13.2315,13.2432,13.2395,13.2078,13.1263,13.1259,13.1222,13.1263,13.2706,13.3453,13.3379,13.3457,13.3303,13.315,13.3306,13.3427,13.3508,13.3588,13.3711,13.3789,13.3789,13.3789,13.3789,13.3789,13.3789,13.3789,13.3906,13.4218,13.5,13.582,13.6289,13.6289,13.6484,13.664,13.6718,13.6367,13.5859,13.539,13.5,13.4492,13.4062,13.3789,13.3789,13.3789,13.3789,13.3789,13.3789,13.3789,13.3789,13.3789,13.3789,13.3789,13.3789,13.3789,13.375,13.3593,13.3045,13.2535,13.1787,13.0839,13.0081,12.9522,12.9,12.8639,12.8518,12.8515,12.8515,12.8515,12.8476,12.8476,12.8125,12.7851,12.75,12.7149,12.6602,12.6017,12.5587,12.4963,12.426,12.387,12.3479,12.3479,12.3401,12.3401,12.3401,12.3401,12.3401,12.3401,12.3362,12.3284,12.3243,12.3201,12.2954,12.2662,12.2638,12.2321,12.2037,12.1713,12.1228,12.1122,12.136,12.1021,12.0523,12.0694,12.0889,12.0462,12.03,12.0246,12.0273,12.0227,12.0478,12.0544,12.0257,11.9827,11.9831,13.1749,13.2335,13.2335,13.2178,13.1905,13.1281,13.1011,13.1047,13.1398,13.1685,13.1732,13.1737,13.1814,13.1966,13.2512,13.2711,13.2873,13.3302,13.3657,13.3711,13.3711,13.3745,13.3746,13.3747,13.3748,13.3789,13.3906,13.4179,13.4804,13.5234,13.5664,13.6172,13.6132,13.6015,13.6015,13.5625,13.5117,13.4804,13.4414,13.414,13.3867,13.3789,13.3789,13.3789,13.3789,13.3789,13.3789,13.3789,13.3789,13.3789,13.3789,13.3789,13.3789,13.3789,13.3789,13.375,13.3515,13.3084,13.2418,13.1514,13.0723,12.9808,12.9208,12.8766,12.8522,12.8518,12.8515,12.8515,12.8515,12.8515,12.8476,12.8242,12.8086,12.7734,12.7422,12.6993,12.6524,12.5626,12.4726,12.426,12.3791,12.3635,12.3557,12.344,12.3401,12.3401,12.3401,12.3401,12.3401,12.3323,12.3323,12.3321,12.3321,12.3191,12.3208,12.3106,12.2711,12.2665,12.2337,12.2314,12.2279,12.1953,12.1663,12.198,12.2124,12.1601,12.1344,12.1645,12.1561,12.1123,12.0988,12.1144,12.1237,12.0911,12.0981,13.0683,13.1187,13.1577,13.1499,13.1109,13.0602,13.0215,12.9903,12.9825,12.987,13.0082,13.0635,13.1026,13.1026,13.1572,13.2097,13.2337,13.2849,13.333,13.357,13.3688,13.3695,13.3698,13.3699,13.3745,13.375,13.3789,13.4062,13.4492,13.4492,13.4804,13.5234,13.5234,13.5234,13.5195,13.4726,13.4492,13.4414,13.3984,13.3828,13.3789,13.3789,13.3789,13.3789,13.3789,13.3789,13.3789,13.3789,13.3789,13.3789,13.3789,13.3789,13.3789,13.3789,13.3789,13.3789,13.3711,13.3554,13.2929,13.2183,13.132,13.0488,12.9607,12.9245,12.8573,12.8568,12.8515,12.8515,12.8515,12.8515,12.8515,12.8359,12.8359,12.8125,12.7969,12.7656,12.6954,12.6095,12.5548,12.5275,12.4885,12.4611,12.4455,12.4143,12.3987,12.3401,12.3401,12.3479,12.3479,12.3674,12.3596,12.3557,12.3674,12.3518,12.3347,12.3289,12.3145,12.3179,12.3328,12.3098,12.2862,12.2833,12.2836,12.2916,12.2876,12.2481,12.2423,12.2506,12.2273,12.1802,12.1751,12.1809,12.1838,12.1738,12.1604,12.9607,12.9806,13.0622,13.0505,12.9767,12.9724,12.9256,12.8554,12.8441,12.848,12.8683,12.997,13.0594,13.0683,13.0882,13.1431,13.1965,13.2367,13.2906,13.3311,13.3592,13.3633,13.3677,13.3685,13.3694,13.3703,13.375,13.3789,13.3906,13.3945,13.3984,13.3828,13.3789,13.3828,13.3789,13.3828,13.3906,13.3945,13.3828,13.3789,13.3789,13.3789,13.3789,13.3789,13.3789,13.3789,13.3789,13.3789,13.3789,13.3789,13.3789,13.3789,13.3789,13.3789,13.3789,13.3789,13.3789,13.375,13.3476,13.2772,13.2067,13.1319,13.0443,12.9728,12.9098,12.8928,12.8917,12.8832,12.8832,12.8593,12.8593,12.8554,12.8554,12.8515,12.8359,12.8242,12.7422,12.668,12.6368,12.6134,12.586,12.5548,12.5236,12.4924,12.4533,12.3909,12.3635,12.3635,12.3752,12.4182,12.4377,12.4299,12.4299,12.4023,12.3555,12.3699,12.3755,12.3848,12.3959,12.3649,12.3526,12.3831,12.382,12.3549,12.3397,12.3356,12.304,12.2944,12.2679,12.2437,12.2111,12.2021,12.1935,12.1838,12.1738,12.8971,12.9673,13.0569,13.0414,12.9712,12.9595,12.9127,12.8387,12.8348,12.8309,12.8426,12.8513,12.8813,12.8963,12.9705,13.0269,13.0744,13.1567,13.2188,13.2556,13.3365,13.358,13.3637,13.3655,13.3672,13.369,13.3703,13.3707,13.3747,13.3789,13.3789,13.3789,13.3789,13.3789,13.3789,13.3789,13.3789,13.3789,13.3789,13.3789,13.3789,13.3789,13.3789,13.3789,13.3789,13.3789,13.3789,13.3789,13.3789,13.3789,13.3789,13.3789,13.3789,13.3789,13.3789,13.3789,13.3789,13.3789,13.3515,13.3047,13.2422,13.2028,13.1277,13.0804,13.0406,13.0314,13.0266,13.006,12.9822,12.8988,12.883,12.871,12.8671,12.8554,12.8437,12.8398,12.8047,12.7461,12.7071,12.6797,12.6485,12.6212,12.59,12.5704,12.5626,12.5197,12.5119,12.5041,12.4572,12.4806,12.5119,12.5002,12.4924,12.4299,12.3791,12.4336,12.4516,12.4613,12.4703,12.4639,12.4758,12.5108,12.5032,12.4488,12.445,12.4499,12.414,12.363,12.3262,12.2988,12.2437,12.2121,12.2108,12.2089,12.2108]}]]